<?xml version="1.0" encoding="UTF-8" standalone="no" ?>
<gpx xmlns="http://www.topografix.com/GPX/1/1" xmlns:xsi="http://www.w3.org/2001/XMLSchema-instance" xsi:schemaLocation="http://www.topografix.com/GPX/1/1 http://www.topografix.com/GPX/1/1/gpx.xsd" version="1.1" creator="VisuGPX - https://www.visugpx.com">
  <metadata>
    <name>Col des ascles – col des echelles</name>
    <desc><![CDATA[https://www.ascvtt.com/2024/08/10/sejour-estival-2024-vallee-de-la-claree/]]></desc>
  </metadata>
  <trk>
    <name><![CDATA[2024-08-11 13:41:55]]></name>
    <trkseg>
      <trkpt lat="45.02034" lon="6.63038">
        <ele>1638.22</ele>
        <time>2024-08-11T06:47:13Z</time>
      </trkpt>
      <trkpt lat="45.02034" lon="6.63038">
        <ele>1630.53</ele>
        <time>2024-08-11T06:47:15Z</time>
      </trkpt>
      <trkpt lat="45.02034" lon="6.63038">
        <ele>1630.53</ele>
        <time>2024-08-11T06:47:16Z</time>
      </trkpt>
      <trkpt lat="45.02034" lon="6.63037">
        <ele>1630.05</ele>
        <time>2024-08-11T06:47:38Z</time>
      </trkpt>
      <trkpt lat="45.02035" lon="6.63036">
        <ele>1630.05</ele>
        <time>2024-08-11T06:48:07Z</time>
      </trkpt>
      <trkpt lat="45.02037" lon="6.63032">
        <ele>1630.05</ele>
        <time>2024-08-11T06:48:36Z</time>
      </trkpt>
      <trkpt lat="45.02036" lon="6.63038">
        <ele>1630.05</ele>
        <time>2024-08-11T06:48:54Z</time>
      </trkpt>
      <trkpt lat="45.02036" lon="6.63039">
        <ele>1630.05</ele>
        <time>2024-08-11T06:49:00Z</time>
      </trkpt>
      <trkpt lat="45.02033" lon="6.63039">
        <ele>1630.05</ele>
        <time>2024-08-11T06:49:02Z</time>
      </trkpt>
      <trkpt lat="45.02037" lon="6.63045">
        <ele>1630.05</ele>
        <time>2024-08-11T06:49:07Z</time>
      </trkpt>
      <trkpt lat="45.0204" lon="6.63043">
        <ele>1630.05</ele>
        <time>2024-08-11T06:49:09Z</time>
      </trkpt>
      <trkpt lat="45.02036" lon="6.63041">
        <ele>1630.05</ele>
        <time>2024-08-11T06:49:16Z</time>
      </trkpt>
      <trkpt lat="45.02035" lon="6.63041">
        <ele>1629.57</ele>
        <time>2024-08-11T06:49:30Z</time>
      </trkpt>
      <trkpt lat="45.02033" lon="6.6304">
        <ele>1629.57</ele>
        <time>2024-08-11T06:49:48Z</time>
      </trkpt>
      <trkpt lat="45.02034" lon="6.63042">
        <ele>1629.57</ele>
        <time>2024-08-11T06:50:11Z</time>
      </trkpt>
      <trkpt lat="45.02033" lon="6.63039">
        <ele>1629.09</ele>
        <time>2024-08-11T06:50:36Z</time>
      </trkpt>
      <trkpt lat="45.02032" lon="6.6304">
        <ele>1629.09</ele>
        <time>2024-08-11T06:50:57Z</time>
      </trkpt>
      <trkpt lat="45.02033" lon="6.63041">
        <ele>1629.09</ele>
        <time>2024-08-11T06:51:14Z</time>
      </trkpt>
      <trkpt lat="45.02032" lon="6.6304">
        <ele>1629.09</ele>
        <time>2024-08-11T06:51:42Z</time>
      </trkpt>
      <trkpt lat="45.02036" lon="6.63038">
        <ele>1629.09</ele>
        <time>2024-08-11T06:51:54Z</time>
      </trkpt>
      <trkpt lat="45.02038" lon="6.63036">
        <ele>1628.61</ele>
        <time>2024-08-11T06:52:15Z</time>
      </trkpt>
      <trkpt lat="45.0204" lon="6.63036">
        <ele>1628.61</ele>
        <time>2024-08-11T06:52:39Z</time>
      </trkpt>
      <trkpt lat="45.02041" lon="6.63036">
        <ele>1628.61</ele>
        <time>2024-08-11T06:53:05Z</time>
      </trkpt>
      <trkpt lat="45.02041" lon="6.63038">
        <ele>1628.61</ele>
        <time>2024-08-11T06:53:37Z</time>
      </trkpt>
      <trkpt lat="45.0204" lon="6.63037">
        <ele>1628.61</ele>
        <time>2024-08-11T06:54:10Z</time>
      </trkpt>
      <trkpt lat="45.02036" lon="6.6304">
        <ele>1629.57</ele>
        <time>2024-08-11T06:54:24Z</time>
      </trkpt>
      <trkpt lat="45.02035" lon="6.63038">
        <ele>1629.57</ele>
        <time>2024-08-11T06:54:46Z</time>
      </trkpt>
      <trkpt lat="45.02035" lon="6.63038">
        <ele>1629.57</ele>
        <time>2024-08-11T06:55:06Z</time>
      </trkpt>
      <trkpt lat="45.02034" lon="6.63039">
        <ele>1629.57</ele>
        <time>2024-08-11T06:55:28Z</time>
      </trkpt>
      <trkpt lat="45.02034" lon="6.6304">
        <ele>1629.57</ele>
        <time>2024-08-11T06:55:51Z</time>
      </trkpt>
      <trkpt lat="45.02035" lon="6.6304">
        <ele>1629.57</ele>
        <time>2024-08-11T06:56:10Z</time>
      </trkpt>
      <trkpt lat="45.02033" lon="6.63039">
        <ele>1629.57</ele>
        <time>2024-08-11T06:56:30Z</time>
      </trkpt>
      <trkpt lat="45.02013" lon="6.63035">
        <ele>1628.13</ele>
        <time>2024-08-11T06:56:42Z</time>
      </trkpt>
      <trkpt lat="45.02009" lon="6.63034">
        <ele>1628.13</ele>
        <time>2024-08-11T06:56:43Z</time>
      </trkpt>
      <trkpt lat="45.01999" lon="6.63053">
        <ele>1627.65</ele>
        <time>2024-08-11T06:56:48Z</time>
      </trkpt>
      <trkpt lat="45.02" lon="6.63092">
        <ele>1628.61</ele>
        <time>2024-08-11T06:56:58Z</time>
      </trkpt>
      <trkpt lat="45.02001" lon="6.63116">
        <ele>1630.05</ele>
        <time>2024-08-11T06:57:05Z</time>
      </trkpt>
      <trkpt lat="45.01972" lon="6.63116">
        <ele>1628.13</ele>
        <time>2024-08-11T06:57:12Z</time>
      </trkpt>
      <trkpt lat="45.01955" lon="6.63113">
        <ele>1625.73</ele>
        <time>2024-08-11T06:57:15Z</time>
      </trkpt>
      <trkpt lat="45.01946" lon="6.63117">
        <ele>1625.25</ele>
        <time>2024-08-11T06:57:17Z</time>
      </trkpt>
      <trkpt lat="45.01923" lon="6.63173">
        <ele>1623.32</ele>
        <time>2024-08-11T06:57:25Z</time>
      </trkpt>
      <trkpt lat="45.01907" lon="6.63269">
        <ele>1622.84</ele>
        <time>2024-08-11T06:57:40Z</time>
      </trkpt>
      <trkpt lat="45.01901" lon="6.63327">
        <ele>1622.84</ele>
        <time>2024-08-11T06:57:49Z</time>
      </trkpt>
      <trkpt lat="45.01883" lon="6.63341">
        <ele>1620.92</ele>
        <time>2024-08-11T06:57:55Z</time>
      </trkpt>
      <trkpt lat="45.01875" lon="6.63326">
        <ele>1619.96</ele>
        <time>2024-08-11T06:57:57Z</time>
      </trkpt>
      <trkpt lat="45.01826" lon="6.63287">
        <ele>1615.63</ele>
        <time>2024-08-11T06:58:04Z</time>
      </trkpt>
      <trkpt lat="45.01804" lon="6.63281">
        <ele>1612.27</ele>
        <time>2024-08-11T06:58:08Z</time>
      </trkpt>
      <trkpt lat="45.01786" lon="6.63256">
        <ele>1610.35</ele>
        <time>2024-08-11T06:58:13Z</time>
      </trkpt>
      <trkpt lat="45.01754" lon="6.63207">
        <ele>1606.02</ele>
        <time>2024-08-11T06:58:20Z</time>
      </trkpt>
      <trkpt lat="45.01752" lon="6.63202">
        <ele>1605.54</ele>
        <time>2024-08-11T06:58:21Z</time>
      </trkpt>
      <trkpt lat="45.0175" lon="6.63198">
        <ele>1605.54</ele>
        <time>2024-08-11T06:58:28Z</time>
      </trkpt>
      <trkpt lat="45.01749" lon="6.63196">
        <ele>1605.54</ele>
        <time>2024-08-11T06:58:40Z</time>
      </trkpt>
      <trkpt lat="45.01749" lon="6.63197">
        <ele>1605.06</ele>
        <time>2024-08-11T06:59:00Z</time>
      </trkpt>
      <trkpt lat="45.01749" lon="6.63196">
        <ele>1605.06</ele>
        <time>2024-08-11T06:59:23Z</time>
      </trkpt>
      <trkpt lat="45.01749" lon="6.63196">
        <ele>1605.06</ele>
        <time>2024-08-11T06:59:50Z</time>
      </trkpt>
      <trkpt lat="45.01749" lon="6.63196">
        <ele>1605.06</ele>
        <time>2024-08-11T07:00:12Z</time>
      </trkpt>
      <trkpt lat="45.01744" lon="6.632">
        <ele>1605.06</ele>
        <time>2024-08-11T07:00:16Z</time>
      </trkpt>
      <trkpt lat="45.01729" lon="6.63198">
        <ele>1603.62</ele>
        <time>2024-08-11T07:00:20Z</time>
      </trkpt>
      <trkpt lat="45.01703" lon="6.6319">
        <ele>1601.21</ele>
        <time>2024-08-11T07:00:29Z</time>
      </trkpt>
      <trkpt lat="45.01697" lon="6.63189">
        <ele>1601.21</ele>
        <time>2024-08-11T07:00:49Z</time>
      </trkpt>
      <trkpt lat="45.01691" lon="6.63188">
        <ele>1601.21</ele>
        <time>2024-08-11T07:00:51Z</time>
      </trkpt>
      <trkpt lat="45.0167" lon="6.63134">
        <ele>1599.29</ele>
        <time>2024-08-11T07:01:00Z</time>
      </trkpt>
      <trkpt lat="45.01689" lon="6.63028">
        <ele>1598.81</ele>
        <time>2024-08-11T07:01:17Z</time>
      </trkpt>
      <trkpt lat="45.01693" lon="6.62983">
        <ele>1598.81</ele>
        <time>2024-08-11T07:01:25Z</time>
      </trkpt>
      <trkpt lat="45.01681" lon="6.62893">
        <ele>1598.81</ele>
        <time>2024-08-11T07:01:41Z</time>
      </trkpt>
      <trkpt lat="45.01654" lon="6.62881">
        <ele>1598.81</ele>
        <time>2024-08-11T07:01:50Z</time>
      </trkpt>
      <trkpt lat="45.01652" lon="6.62881">
        <ele>1598.81</ele>
        <time>2024-08-11T07:01:51Z</time>
      </trkpt>
      <trkpt lat="45.01646" lon="6.62918">
        <ele>1598.81</ele>
        <time>2024-08-11T07:02:01Z</time>
      </trkpt>
      <trkpt lat="45.01646" lon="6.62931">
        <ele>1598.33</ele>
        <time>2024-08-11T07:02:12Z</time>
      </trkpt>
      <trkpt lat="45.01646" lon="6.62942">
        <ele>1598.33</ele>
        <time>2024-08-11T07:02:24Z</time>
      </trkpt>
      <trkpt lat="45.01645" lon="6.62993">
        <ele>1597.85</ele>
        <time>2024-08-11T07:02:37Z</time>
      </trkpt>
      <trkpt lat="45.01641" lon="6.63042">
        <ele>1597.85</ele>
        <time>2024-08-11T07:02:50Z</time>
      </trkpt>
      <trkpt lat="45.01634" lon="6.63073">
        <ele>1597.37</ele>
        <time>2024-08-11T07:02:57Z</time>
      </trkpt>
      <trkpt lat="45.01632" lon="6.63085">
        <ele>1597.37</ele>
        <time>2024-08-11T07:03:01Z</time>
      </trkpt>
      <trkpt lat="45.01621" lon="6.63121">
        <ele>1597.37</ele>
        <time>2024-08-11T07:03:09Z</time>
      </trkpt>
      <trkpt lat="45.0162" lon="6.63147">
        <ele>1597.37</ele>
        <time>2024-08-11T07:03:14Z</time>
      </trkpt>
      <trkpt lat="45.01626" lon="6.63182">
        <ele>1597.37</ele>
        <time>2024-08-11T07:03:19Z</time>
      </trkpt>
      <trkpt lat="45.01643" lon="6.63236">
        <ele>1596.41</ele>
        <time>2024-08-11T07:03:29Z</time>
      </trkpt>
      <trkpt lat="45.01647" lon="6.63261">
        <ele>1596.41</ele>
        <time>2024-08-11T07:03:37Z</time>
      </trkpt>
      <trkpt lat="45.01648" lon="6.63283">
        <ele>1596.41</ele>
        <time>2024-08-11T07:03:46Z</time>
      </trkpt>
      <trkpt lat="45.01648" lon="6.63288">
        <ele>1596.41</ele>
        <time>2024-08-11T07:03:48Z</time>
      </trkpt>
      <trkpt lat="45.01643" lon="6.63333">
        <ele>1596.41</ele>
        <time>2024-08-11T07:04:00Z</time>
      </trkpt>
      <trkpt lat="45.01648" lon="6.6336">
        <ele>1596.41</ele>
        <time>2024-08-11T07:04:12Z</time>
      </trkpt>
      <trkpt lat="45.01645" lon="6.63377">
        <ele>1596.41</ele>
        <time>2024-08-11T07:04:19Z</time>
      </trkpt>
      <trkpt lat="45.01642" lon="6.63418">
        <ele>1596.41</ele>
        <time>2024-08-11T07:04:31Z</time>
      </trkpt>
      <trkpt lat="45.01642" lon="6.63423">
        <ele>1596.41</ele>
        <time>2024-08-11T07:04:32Z</time>
      </trkpt>
      <trkpt lat="45.01632" lon="6.63461">
        <ele>1595.93</ele>
        <time>2024-08-11T07:04:42Z</time>
      </trkpt>
      <trkpt lat="45.01619" lon="6.63495">
        <ele>1597.37</ele>
        <time>2024-08-11T07:04:52Z</time>
      </trkpt>
      <trkpt lat="45.01609" lon="6.63524">
        <ele>1596.89</ele>
        <time>2024-08-11T07:04:59Z</time>
      </trkpt>
      <trkpt lat="45.01606" lon="6.63531">
        <ele>1595.93</ele>
        <time>2024-08-11T07:05:01Z</time>
      </trkpt>
      <trkpt lat="45.01603" lon="6.6355">
        <ele>1595.93</ele>
        <time>2024-08-11T07:05:09Z</time>
      </trkpt>
      <trkpt lat="45.01599" lon="6.6356">
        <ele>1597.37</ele>
        <time>2024-08-11T07:05:22Z</time>
      </trkpt>
      <trkpt lat="45.01601" lon="6.6357">
        <ele>1595.45</ele>
        <time>2024-08-11T07:05:35Z</time>
      </trkpt>
      <trkpt lat="45.01602" lon="6.63571">
        <ele>1594.96</ele>
        <time>2024-08-11T07:05:45Z</time>
      </trkpt>
      <trkpt lat="45.01602" lon="6.63569">
        <ele>1594.96</ele>
        <time>2024-08-11T07:06:00Z</time>
      </trkpt>
      <trkpt lat="45.01604" lon="6.63567">
        <ele>1594.48</ele>
        <time>2024-08-11T07:06:20Z</time>
      </trkpt>
      <trkpt lat="45.01604" lon="6.63567">
        <ele>1595.93</ele>
        <time>2024-08-11T07:06:22Z</time>
      </trkpt>
      <trkpt lat="45.01603" lon="6.63569">
        <ele>1595.93</ele>
        <time>2024-08-11T07:06:35Z</time>
      </trkpt>
      <trkpt lat="45.01602" lon="6.63564">
        <ele>1596.89</ele>
        <time>2024-08-11T07:06:49Z</time>
      </trkpt>
      <trkpt lat="45.01602" lon="6.63564">
        <ele>1596.89</ele>
        <time>2024-08-11T07:07:03Z</time>
      </trkpt>
      <trkpt lat="45.01603" lon="6.63563">
        <ele>1596.89</ele>
        <time>2024-08-11T07:07:14Z</time>
      </trkpt>
      <trkpt lat="45.01607" lon="6.63562">
        <ele>1594.96</ele>
        <time>2024-08-11T07:07:25Z</time>
      </trkpt>
      <trkpt lat="45.01608" lon="6.63558">
        <ele>1594.96</ele>
        <time>2024-08-11T07:07:29Z</time>
      </trkpt>
      <trkpt lat="45.0161" lon="6.63545">
        <ele>1594.96</ele>
        <time>2024-08-11T07:07:35Z</time>
      </trkpt>
      <trkpt lat="45.01623" lon="6.635">
        <ele>1594.96</ele>
        <time>2024-08-11T07:07:49Z</time>
      </trkpt>
      <trkpt lat="45.01629" lon="6.63489">
        <ele>1595.93</ele>
        <time>2024-08-11T07:07:58Z</time>
      </trkpt>
      <trkpt lat="45.01629" lon="6.63487">
        <ele>1595.93</ele>
        <time>2024-08-11T07:07:59Z</time>
      </trkpt>
      <trkpt lat="45.01632" lon="6.63475">
        <ele>1595.93</ele>
        <time>2024-08-11T07:08:05Z</time>
      </trkpt>
      <trkpt lat="45.01637" lon="6.63465">
        <ele>1594.96</ele>
        <time>2024-08-11T07:08:09Z</time>
      </trkpt>
      <trkpt lat="45.01641" lon="6.63426">
        <ele>1594.48</ele>
        <time>2024-08-11T07:08:19Z</time>
      </trkpt>
      <trkpt lat="45.01643" lon="6.63388">
        <ele>1594.48</ele>
        <time>2024-08-11T07:08:29Z</time>
      </trkpt>
      <trkpt lat="45.01647" lon="6.63351">
        <ele>1595.45</ele>
        <time>2024-08-11T07:08:42Z</time>
      </trkpt>
      <trkpt lat="45.01647" lon="6.63344">
        <ele>1595.45</ele>
        <time>2024-08-11T07:08:45Z</time>
      </trkpt>
      <trkpt lat="45.01644" lon="6.63343">
        <ele>1595.45</ele>
        <time>2024-08-11T07:08:50Z</time>
      </trkpt>
      <trkpt lat="45.01633" lon="6.63355">
        <ele>1598.81</ele>
        <time>2024-08-11T07:09:00Z</time>
      </trkpt>
      <trkpt lat="45.01625" lon="6.63361">
        <ele>1601.69</ele>
        <time>2024-08-11T07:09:07Z</time>
      </trkpt>
      <trkpt lat="45.01622" lon="6.63363">
        <ele>1602.17</ele>
        <time>2024-08-11T07:09:09Z</time>
      </trkpt>
      <trkpt lat="45.01616" lon="6.63375">
        <ele>1605.06</ele>
        <time>2024-08-11T07:09:18Z</time>
      </trkpt>
      <trkpt lat="45.01616" lon="6.6339">
        <ele>1608.9</ele>
        <time>2024-08-11T07:09:29Z</time>
      </trkpt>
      <trkpt lat="45.01616" lon="6.63391">
        <ele>1608.9</ele>
        <time>2024-08-11T07:09:30Z</time>
      </trkpt>
      <trkpt lat="45.01609" lon="6.63409">
        <ele>1610.35</ele>
        <time>2024-08-11T07:09:42Z</time>
      </trkpt>
      <trkpt lat="45.01608" lon="6.63418">
        <ele>1610.83</ele>
        <time>2024-08-11T07:09:47Z</time>
      </trkpt>
      <trkpt lat="45.01598" lon="6.63439">
        <ele>1613.71</ele>
        <time>2024-08-11T07:10:01Z</time>
      </trkpt>
      <trkpt lat="45.01583" lon="6.63451">
        <ele>1615.63</ele>
        <time>2024-08-11T07:10:13Z</time>
      </trkpt>
      <trkpt lat="45.01573" lon="6.63462">
        <ele>1619</ele>
        <time>2024-08-11T07:10:24Z</time>
      </trkpt>
      <trkpt lat="45.01559" lon="6.63481">
        <ele>1621.88</ele>
        <time>2024-08-11T07:10:40Z</time>
      </trkpt>
      <trkpt lat="45.01546" lon="6.63502">
        <ele>1624.28</ele>
        <time>2024-08-11T07:10:56Z</time>
      </trkpt>
      <trkpt lat="45.0154" lon="6.6352">
        <ele>1626.21</ele>
        <time>2024-08-11T07:11:07Z</time>
      </trkpt>
      <trkpt lat="45.01533" lon="6.63536">
        <ele>1628.61</ele>
        <time>2024-08-11T07:11:19Z</time>
      </trkpt>
      <trkpt lat="45.01529" lon="6.63546">
        <ele>1629.57</ele>
        <time>2024-08-11T07:11:25Z</time>
      </trkpt>
      <trkpt lat="45.01527" lon="6.63561">
        <ele>1631.01</ele>
        <time>2024-08-11T07:11:37Z</time>
      </trkpt>
      <trkpt lat="45.01528" lon="6.6357">
        <ele>1632.46</ele>
        <time>2024-08-11T07:11:50Z</time>
      </trkpt>
      <trkpt lat="45.01529" lon="6.63571">
        <ele>1632.94</ele>
        <time>2024-08-11T07:11:53Z</time>
      </trkpt>
      <trkpt lat="45.01528" lon="6.63582">
        <ele>1634.86</ele>
        <time>2024-08-11T07:12:08Z</time>
      </trkpt>
      <trkpt lat="45.01528" lon="6.63588">
        <ele>1636.78</ele>
        <time>2024-08-11T07:12:22Z</time>
      </trkpt>
      <trkpt lat="45.01526" lon="6.63598">
        <ele>1638.7</ele>
        <time>2024-08-11T07:12:41Z</time>
      </trkpt>
      <trkpt lat="45.01524" lon="6.63605">
        <ele>1641.11</ele>
        <time>2024-08-11T07:12:53Z</time>
      </trkpt>
      <trkpt lat="45.01522" lon="6.63609">
        <ele>1641.59</ele>
        <time>2024-08-11T07:13:01Z</time>
      </trkpt>
      <trkpt lat="45.01516" lon="6.63625">
        <ele>1644.47</ele>
        <time>2024-08-11T07:13:17Z</time>
      </trkpt>
      <trkpt lat="45.0151" lon="6.63639">
        <ele>1647.84</ele>
        <time>2024-08-11T07:13:32Z</time>
      </trkpt>
      <trkpt lat="45.01498" lon="6.63642">
        <ele>1650.72</ele>
        <time>2024-08-11T07:13:50Z</time>
      </trkpt>
      <trkpt lat="45.01488" lon="6.63645">
        <ele>1653.12</ele>
        <time>2024-08-11T07:14:06Z</time>
      </trkpt>
      <trkpt lat="45.0148" lon="6.63651">
        <ele>1656.49</ele>
        <time>2024-08-11T07:14:20Z</time>
      </trkpt>
      <trkpt lat="45.01477" lon="6.63654">
        <ele>1657.45</ele>
        <time>2024-08-11T07:14:25Z</time>
      </trkpt>
      <trkpt lat="45.0147" lon="6.63669">
        <ele>1660.33</ele>
        <time>2024-08-11T07:14:41Z</time>
      </trkpt>
      <trkpt lat="45.01466" lon="6.63681">
        <ele>1662.74</ele>
        <time>2024-08-11T07:14:54Z</time>
      </trkpt>
      <trkpt lat="45.01464" lon="6.63692">
        <ele>1664.18</ele>
        <time>2024-08-11T07:15:07Z</time>
      </trkpt>
      <trkpt lat="45.01463" lon="6.637">
        <ele>1664.18</ele>
        <time>2024-08-11T07:15:22Z</time>
      </trkpt>
      <trkpt lat="45.01463" lon="6.63729">
        <ele>1664.18</ele>
        <time>2024-08-11T07:15:37Z</time>
      </trkpt>
      <trkpt lat="45.01448" lon="6.63782">
        <ele>1661.78</ele>
        <time>2024-08-11T07:15:49Z</time>
      </trkpt>
      <trkpt lat="45.01442" lon="6.63851">
        <ele>1658.41</ele>
        <time>2024-08-11T07:15:57Z</time>
      </trkpt>
      <trkpt lat="45.0144" lon="6.63859">
        <ele>1658.41</ele>
        <time>2024-08-11T07:15:58Z</time>
      </trkpt>
      <trkpt lat="45.01423" lon="6.6391">
        <ele>1656.01</ele>
        <time>2024-08-11T07:16:03Z</time>
      </trkpt>
      <trkpt lat="45.01422" lon="6.63945">
        <ele>1653.6</ele>
        <time>2024-08-11T07:16:06Z</time>
      </trkpt>
      <trkpt lat="45.01423" lon="6.63978">
        <ele>1652.16</ele>
        <time>2024-08-11T07:16:09Z</time>
      </trkpt>
      <trkpt lat="45.01411" lon="6.64023">
        <ele>1650.72</ele>
        <time>2024-08-11T07:16:14Z</time>
      </trkpt>
      <trkpt lat="45.01406" lon="6.64058">
        <ele>1650.24</ele>
        <time>2024-08-11T07:16:18Z</time>
      </trkpt>
      <trkpt lat="45.01403" lon="6.64076">
        <ele>1649.76</ele>
        <time>2024-08-11T07:16:20Z</time>
      </trkpt>
      <trkpt lat="45.01386" lon="6.64128">
        <ele>1649.76</ele>
        <time>2024-08-11T07:16:30Z</time>
      </trkpt>
      <trkpt lat="45.01382" lon="6.64138">
        <ele>1650.72</ele>
        <time>2024-08-11T07:16:35Z</time>
      </trkpt>
      <trkpt lat="45.0138" lon="6.64143">
        <ele>1651.68</ele>
        <time>2024-08-11T07:16:37Z</time>
      </trkpt>
      <trkpt lat="45.01377" lon="6.64154">
        <ele>1652.16</ele>
        <time>2024-08-11T07:16:42Z</time>
      </trkpt>
      <trkpt lat="45.01369" lon="6.64181">
        <ele>1653.6</ele>
        <time>2024-08-11T07:16:54Z</time>
      </trkpt>
      <trkpt lat="45.01341" lon="6.64184">
        <ele>1654.57</ele>
        <time>2024-08-11T07:17:09Z</time>
      </trkpt>
      <trkpt lat="45.01319" lon="6.64162">
        <ele>1654.57</ele>
        <time>2024-08-11T07:17:20Z</time>
      </trkpt>
      <trkpt lat="45.01278" lon="6.6415">
        <ele>1655.05</ele>
        <time>2024-08-11T07:17:35Z</time>
      </trkpt>
      <trkpt lat="45.01264" lon="6.64183">
        <ele>1656.97</ele>
        <time>2024-08-11T07:17:46Z</time>
      </trkpt>
      <trkpt lat="45.01253" lon="6.64222">
        <ele>1660.33</ele>
        <time>2024-08-11T07:18:00Z</time>
      </trkpt>
      <trkpt lat="45.01252" lon="6.64258">
        <ele>1662.74</ele>
        <time>2024-08-11T07:18:13Z</time>
      </trkpt>
      <trkpt lat="45.01258" lon="6.6429">
        <ele>1665.14</ele>
        <time>2024-08-11T07:18:25Z</time>
      </trkpt>
      <trkpt lat="45.01255" lon="6.64324">
        <ele>1667.06</ele>
        <time>2024-08-11T07:18:37Z</time>
      </trkpt>
      <trkpt lat="45.01231" lon="6.64347">
        <ele>1669.95</ele>
        <time>2024-08-11T07:18:52Z</time>
      </trkpt>
      <trkpt lat="45.01208" lon="6.64365">
        <ele>1669.95</ele>
        <time>2024-08-11T07:19:03Z</time>
      </trkpt>
      <trkpt lat="45.0118" lon="6.64395">
        <ele>1669.95</ele>
        <time>2024-08-11T07:19:14Z</time>
      </trkpt>
      <trkpt lat="45.01142" lon="6.64421">
        <ele>1669.95</ele>
        <time>2024-08-11T07:19:26Z</time>
      </trkpt>
      <trkpt lat="45.01112" lon="6.64448">
        <ele>1669.95</ele>
        <time>2024-08-11T07:19:36Z</time>
      </trkpt>
      <trkpt lat="45.01088" lon="6.64494">
        <ele>1670.43</ele>
        <time>2024-08-11T07:19:48Z</time>
      </trkpt>
      <trkpt lat="45.01065" lon="6.64478">
        <ele>1670.43</ele>
        <time>2024-08-11T07:19:56Z</time>
      </trkpt>
      <trkpt lat="45.01052" lon="6.6446">
        <ele>1668.99</ele>
        <time>2024-08-11T07:20:01Z</time>
      </trkpt>
      <trkpt lat="45.01016" lon="6.64421">
        <ele>1668.99</ele>
        <time>2024-08-11T07:20:13Z</time>
      </trkpt>
      <trkpt lat="45.00994" lon="6.64419">
        <ele>1668.99</ele>
        <time>2024-08-11T07:20:19Z</time>
      </trkpt>
      <trkpt lat="45.00984" lon="6.6444">
        <ele>1668.99</ele>
        <time>2024-08-11T07:20:24Z</time>
      </trkpt>
      <trkpt lat="45.00983" lon="6.64449">
        <ele>1670.43</ele>
        <time>2024-08-11T07:20:26Z</time>
      </trkpt>
      <trkpt lat="45.0098" lon="6.64471">
        <ele>1670.43</ele>
        <time>2024-08-11T07:20:31Z</time>
      </trkpt>
      <trkpt lat="45.00978" lon="6.64482">
        <ele>1668.99</ele>
        <time>2024-08-11T07:20:33Z</time>
      </trkpt>
      <trkpt lat="45.00966" lon="6.64533">
        <ele>1666.58</ele>
        <time>2024-08-11T07:20:45Z</time>
      </trkpt>
      <trkpt lat="45.0097" lon="6.64545">
        <ele>1665.62</ele>
        <time>2024-08-11T07:20:56Z</time>
      </trkpt>
      <trkpt lat="45.00971" lon="6.64549">
        <ele>1665.14</ele>
        <time>2024-08-11T07:20:57Z</time>
      </trkpt>
      <trkpt lat="45.00985" lon="6.64583">
        <ele>1661.78</ele>
        <time>2024-08-11T07:21:02Z</time>
      </trkpt>
      <trkpt lat="45.00988" lon="6.6459">
        <ele>1660.81</ele>
        <time>2024-08-11T07:21:03Z</time>
      </trkpt>
      <trkpt lat="45.01001" lon="6.64634">
        <ele>1656.97</ele>
        <time>2024-08-11T07:21:08Z</time>
      </trkpt>
      <trkpt lat="45.01005" lon="6.64641">
        <ele>1655.05</ele>
        <time>2024-08-11T07:21:09Z</time>
      </trkpt>
      <trkpt lat="45.01011" lon="6.6465">
        <ele>1653.12</ele>
        <time>2024-08-11T07:21:12Z</time>
      </trkpt>
      <trkpt lat="45.01011" lon="6.64658">
        <ele>1652.64</ele>
        <time>2024-08-11T07:21:15Z</time>
      </trkpt>
      <trkpt lat="45.01009" lon="6.64677">
        <ele>1649.28</ele>
        <time>2024-08-11T07:21:20Z</time>
      </trkpt>
      <trkpt lat="45.01008" lon="6.64701">
        <ele>1645.91</ele>
        <time>2024-08-11T07:21:25Z</time>
      </trkpt>
      <trkpt lat="45.01007" lon="6.64706">
        <ele>1645.43</ele>
        <time>2024-08-11T07:21:26Z</time>
      </trkpt>
      <trkpt lat="45.01003" lon="6.64725">
        <ele>1643.99</ele>
        <time>2024-08-11T07:21:29Z</time>
      </trkpt>
      <trkpt lat="45.01" lon="6.64736">
        <ele>1642.07</ele>
        <time>2024-08-11T07:21:31Z</time>
      </trkpt>
      <trkpt lat="45.00992" lon="6.64751">
        <ele>1639.67</ele>
        <time>2024-08-11T07:21:34Z</time>
      </trkpt>
      <trkpt lat="45.00986" lon="6.6476">
        <ele>1638.7</ele>
        <time>2024-08-11T07:21:36Z</time>
      </trkpt>
      <trkpt lat="45.00978" lon="6.64778">
        <ele>1635.34</ele>
        <time>2024-08-11T07:21:42Z</time>
      </trkpt>
      <trkpt lat="45.0097" lon="6.64794">
        <ele>1633.42</ele>
        <time>2024-08-11T07:21:48Z</time>
      </trkpt>
      <trkpt lat="45.00963" lon="6.64813">
        <ele>1630.05</ele>
        <time>2024-08-11T07:21:52Z</time>
      </trkpt>
      <trkpt lat="45.00957" lon="6.64823">
        <ele>1629.09</ele>
        <time>2024-08-11T07:21:54Z</time>
      </trkpt>
      <trkpt lat="45.00946" lon="6.64841">
        <ele>1626.21</ele>
        <time>2024-08-11T07:21:58Z</time>
      </trkpt>
      <trkpt lat="45.00937" lon="6.64858">
        <ele>1623.8</ele>
        <time>2024-08-11T07:22:02Z</time>
      </trkpt>
      <trkpt lat="45.00929" lon="6.64877">
        <ele>1620.92</ele>
        <time>2024-08-11T07:22:05Z</time>
      </trkpt>
      <trkpt lat="45.0091" lon="6.64906">
        <ele>1617.56</ele>
        <time>2024-08-11T07:22:13Z</time>
      </trkpt>
      <trkpt lat="45.00904" lon="6.64937">
        <ele>1614.67</ele>
        <time>2024-08-11T07:22:19Z</time>
      </trkpt>
      <trkpt lat="45.009" lon="6.64963">
        <ele>1611.79</ele>
        <time>2024-08-11T07:22:23Z</time>
      </trkpt>
      <trkpt lat="45.00889" lon="6.64993">
        <ele>1607.46</ele>
        <time>2024-08-11T07:22:32Z</time>
      </trkpt>
      <trkpt lat="45.00876" lon="6.65019">
        <ele>1605.06</ele>
        <time>2024-08-11T07:22:38Z</time>
      </trkpt>
      <trkpt lat="45.00873" lon="6.65023">
        <ele>1604.1</ele>
        <time>2024-08-11T07:22:39Z</time>
      </trkpt>
      <trkpt lat="45.00862" lon="6.65034">
        <ele>1602.66</ele>
        <time>2024-08-11T07:22:42Z</time>
      </trkpt>
      <trkpt lat="45.00851" lon="6.65062">
        <ele>1599.77</ele>
        <time>2024-08-11T07:22:47Z</time>
      </trkpt>
      <trkpt lat="45.00841" lon="6.65087">
        <ele>1597.37</ele>
        <time>2024-08-11T07:22:51Z</time>
      </trkpt>
      <trkpt lat="45.00834" lon="6.65102">
        <ele>1595.45</ele>
        <time>2024-08-11T07:22:54Z</time>
      </trkpt>
      <trkpt lat="45.00828" lon="6.65111">
        <ele>1594</ele>
        <time>2024-08-11T07:22:56Z</time>
      </trkpt>
      <trkpt lat="45.00821" lon="6.65119">
        <ele>1592.56</ele>
        <time>2024-08-11T07:22:58Z</time>
      </trkpt>
      <trkpt lat="45.00808" lon="6.65139">
        <ele>1589.68</ele>
        <time>2024-08-11T07:23:02Z</time>
      </trkpt>
      <trkpt lat="45.00802" lon="6.65155">
        <ele>1587.75</ele>
        <time>2024-08-11T07:23:05Z</time>
      </trkpt>
      <trkpt lat="45.00771" lon="6.65185">
        <ele>1584.39</ele>
        <time>2024-08-11T07:23:12Z</time>
      </trkpt>
      <trkpt lat="45.00766" lon="6.65191">
        <ele>1582.95</ele>
        <time>2024-08-11T07:23:13Z</time>
      </trkpt>
      <trkpt lat="45.00754" lon="6.65203">
        <ele>1582.47</ele>
        <time>2024-08-11T07:23:15Z</time>
      </trkpt>
      <trkpt lat="45.00749" lon="6.65209">
        <ele>1581.51</ele>
        <time>2024-08-11T07:23:16Z</time>
      </trkpt>
      <trkpt lat="45.00727" lon="6.65229">
        <ele>1580.54</ele>
        <time>2024-08-11T07:23:21Z</time>
      </trkpt>
      <trkpt lat="45.00707" lon="6.65248">
        <ele>1580.54</ele>
        <time>2024-08-11T07:23:26Z</time>
      </trkpt>
      <trkpt lat="45.00697" lon="6.65252">
        <ele>1580.54</ele>
        <time>2024-08-11T07:23:28Z</time>
      </trkpt>
      <trkpt lat="45.00684" lon="6.65262">
        <ele>1580.06</ele>
        <time>2024-08-11T07:23:31Z</time>
      </trkpt>
      <trkpt lat="45.00673" lon="6.65274">
        <ele>1579.58</ele>
        <time>2024-08-11T07:23:34Z</time>
      </trkpt>
      <trkpt lat="45.00656" lon="6.65287">
        <ele>1579.1</ele>
        <time>2024-08-11T07:23:38Z</time>
      </trkpt>
      <trkpt lat="45.00622" lon="6.65329">
        <ele>1578.62</ele>
        <time>2024-08-11T07:23:50Z</time>
      </trkpt>
      <trkpt lat="45.00591" lon="6.65361">
        <ele>1578.14</ele>
        <time>2024-08-11T07:24:02Z</time>
      </trkpt>
      <trkpt lat="45.00571" lon="6.65369">
        <ele>1577.66</ele>
        <time>2024-08-11T07:24:08Z</time>
      </trkpt>
      <trkpt lat="45.00552" lon="6.65378">
        <ele>1577.66</ele>
        <time>2024-08-11T07:24:13Z</time>
      </trkpt>
      <trkpt lat="45.00546" lon="6.6538">
        <ele>1579.1</ele>
        <time>2024-08-11T07:24:15Z</time>
      </trkpt>
      <trkpt lat="45.00515" lon="6.65403">
        <ele>1577.66</ele>
        <time>2024-08-11T07:24:22Z</time>
      </trkpt>
      <trkpt lat="45.0049" lon="6.65416">
        <ele>1577.66</ele>
        <time>2024-08-11T07:24:28Z</time>
      </trkpt>
      <trkpt lat="45.00452" lon="6.6544">
        <ele>1576.22</ele>
        <time>2024-08-11T07:24:36Z</time>
      </trkpt>
      <trkpt lat="45.00432" lon="6.65457">
        <ele>1576.22</ele>
        <time>2024-08-11T07:24:44Z</time>
      </trkpt>
      <trkpt lat="45.00394" lon="6.65473">
        <ele>1572.85</ele>
        <time>2024-08-11T07:24:56Z</time>
      </trkpt>
      <trkpt lat="45.00389" lon="6.65475">
        <ele>1572.85</ele>
        <time>2024-08-11T07:24:57Z</time>
      </trkpt>
      <trkpt lat="45.00383" lon="6.65477">
        <ele>1572.37</ele>
        <time>2024-08-11T07:24:58Z</time>
      </trkpt>
      <trkpt lat="45.0036" lon="6.65491">
        <ele>1570.93</ele>
        <time>2024-08-11T07:25:02Z</time>
      </trkpt>
      <trkpt lat="45.00337" lon="6.65514">
        <ele>1569.01</ele>
        <time>2024-08-11T07:25:06Z</time>
      </trkpt>
      <trkpt lat="45.00316" lon="6.65535">
        <ele>1567.57</ele>
        <time>2024-08-11T07:25:09Z</time>
      </trkpt>
      <trkpt lat="45.00309" lon="6.65541">
        <ele>1566.12</ele>
        <time>2024-08-11T07:25:10Z</time>
      </trkpt>
      <trkpt lat="45.0029" lon="6.65567">
        <ele>1562.28</ele>
        <time>2024-08-11T07:25:14Z</time>
      </trkpt>
      <trkpt lat="45.00282" lon="6.65598">
        <ele>1557.95</ele>
        <time>2024-08-11T07:25:19Z</time>
      </trkpt>
      <trkpt lat="45.00284" lon="6.65614">
        <ele>1554.59</ele>
        <time>2024-08-11T07:25:21Z</time>
      </trkpt>
      <trkpt lat="45.00284" lon="6.65659">
        <ele>1547.86</ele>
        <time>2024-08-11T07:25:26Z</time>
      </trkpt>
      <trkpt lat="45.00283" lon="6.65677">
        <ele>1544.01</ele>
        <time>2024-08-11T07:25:28Z</time>
      </trkpt>
      <trkpt lat="45.00286" lon="6.65699">
        <ele>1538.25</ele>
        <time>2024-08-11T07:25:31Z</time>
      </trkpt>
      <trkpt lat="45.00301" lon="6.65714">
        <ele>1534.4</ele>
        <time>2024-08-11T07:25:34Z</time>
      </trkpt>
      <trkpt lat="45.0031" lon="6.65728">
        <ele>1530.56</ele>
        <time>2024-08-11T07:25:36Z</time>
      </trkpt>
      <trkpt lat="45.00326" lon="6.65753">
        <ele>1525.27</ele>
        <time>2024-08-11T07:25:39Z</time>
      </trkpt>
      <trkpt lat="45.00334" lon="6.65767">
        <ele>1520.94</ele>
        <time>2024-08-11T07:25:41Z</time>
      </trkpt>
      <trkpt lat="45.00342" lon="6.65784">
        <ele>1518.54</ele>
        <time>2024-08-11T07:25:43Z</time>
      </trkpt>
      <trkpt lat="45.00356" lon="6.65822">
        <ele>1514.21</ele>
        <time>2024-08-11T07:25:47Z</time>
      </trkpt>
      <trkpt lat="45.00358" lon="6.6583">
        <ele>1513.25</ele>
        <time>2024-08-11T07:25:48Z</time>
      </trkpt>
      <trkpt lat="45.00382" lon="6.6588">
        <ele>1510.85</ele>
        <time>2024-08-11T07:25:54Z</time>
      </trkpt>
      <trkpt lat="45.0039" lon="6.65895">
        <ele>1508.93</ele>
        <time>2024-08-11T07:25:58Z</time>
      </trkpt>
      <trkpt lat="45.0039" lon="6.65895">
        <ele>1509.41</ele>
        <time>2024-08-11T07:26:12Z</time>
      </trkpt>
      <trkpt lat="45.00392" lon="6.65895">
        <ele>1508.93</ele>
        <time>2024-08-11T07:26:45Z</time>
      </trkpt>
      <trkpt lat="45.00392" lon="6.65896">
        <ele>1508.93</ele>
        <time>2024-08-11T07:27:17Z</time>
      </trkpt>
      <trkpt lat="45.00394" lon="6.65895">
        <ele>1508.93</ele>
        <time>2024-08-11T07:27:45Z</time>
      </trkpt>
      <trkpt lat="45.00395" lon="6.65895">
        <ele>1508.93</ele>
        <time>2024-08-11T07:28:06Z</time>
      </trkpt>
      <trkpt lat="45.00394" lon="6.65896">
        <ele>1508.93</ele>
        <time>2024-08-11T07:28:32Z</time>
      </trkpt>
      <trkpt lat="45.00395" lon="6.65896">
        <ele>1508.93</ele>
        <time>2024-08-11T07:29:03Z</time>
      </trkpt>
      <trkpt lat="45.00395" lon="6.65895">
        <ele>1508.45</ele>
        <time>2024-08-11T07:29:31Z</time>
      </trkpt>
      <trkpt lat="45.00395" lon="6.65897">
        <ele>1508.45</ele>
        <time>2024-08-11T07:29:35Z</time>
      </trkpt>
      <trkpt lat="45.00393" lon="6.65903">
        <ele>1507.48</ele>
        <time>2024-08-11T07:29:45Z</time>
      </trkpt>
      <trkpt lat="45.00385" lon="6.65909">
        <ele>1507.48</ele>
        <time>2024-08-11T07:30:05Z</time>
      </trkpt>
      <trkpt lat="45.00353" lon="6.65925">
        <ele>1505.08</ele>
        <time>2024-08-11T07:30:16Z</time>
      </trkpt>
      <trkpt lat="45.0033" lon="6.65929">
        <ele>1504.12</ele>
        <time>2024-08-11T07:30:22Z</time>
      </trkpt>
      <trkpt lat="45.00321" lon="6.65932">
        <ele>1504.12</ele>
        <time>2024-08-11T07:30:24Z</time>
      </trkpt>
      <trkpt lat="45.00296" lon="6.65957">
        <ele>1503.16</ele>
        <time>2024-08-11T07:30:30Z</time>
      </trkpt>
      <trkpt lat="45.00291" lon="6.65972">
        <ele>1503.16</ele>
        <time>2024-08-11T07:30:32Z</time>
      </trkpt>
      <trkpt lat="45.00286" lon="6.65986">
        <ele>1501.72</ele>
        <time>2024-08-11T07:30:34Z</time>
      </trkpt>
      <trkpt lat="45.00276" lon="6.66032">
        <ele>1500.76</ele>
        <time>2024-08-11T07:30:40Z</time>
      </trkpt>
      <trkpt lat="45.00276" lon="6.66081">
        <ele>1499.79</ele>
        <time>2024-08-11T07:30:46Z</time>
      </trkpt>
      <trkpt lat="45.00281" lon="6.66114">
        <ele>1498.83</ele>
        <time>2024-08-11T07:30:51Z</time>
      </trkpt>
      <trkpt lat="45.00301" lon="6.66113">
        <ele>1498.35</ele>
        <time>2024-08-11T07:30:57Z</time>
      </trkpt>
      <trkpt lat="45.00325" lon="6.66095">
        <ele>1497.87</ele>
        <time>2024-08-11T07:31:09Z</time>
      </trkpt>
      <trkpt lat="45.00335" lon="6.66089">
        <ele>1499.31</ele>
        <time>2024-08-11T07:31:20Z</time>
      </trkpt>
      <trkpt lat="45.00354" lon="6.66086">
        <ele>1499.31</ele>
        <time>2024-08-11T07:31:30Z</time>
      </trkpt>
      <trkpt lat="45.00368" lon="6.66095">
        <ele>1499.31</ele>
        <time>2024-08-11T07:31:38Z</time>
      </trkpt>
      <trkpt lat="45.00365" lon="6.66135">
        <ele>1501.72</ele>
        <time>2024-08-11T07:31:54Z</time>
      </trkpt>
      <trkpt lat="45.00362" lon="6.66165">
        <ele>1505.08</ele>
        <time>2024-08-11T07:32:08Z</time>
      </trkpt>
      <trkpt lat="45.00351" lon="6.662">
        <ele>1507.97</ele>
        <time>2024-08-11T07:32:25Z</time>
      </trkpt>
      <trkpt lat="45.00349" lon="6.66207">
        <ele>1508.45</ele>
        <time>2024-08-11T07:32:28Z</time>
      </trkpt>
      <trkpt lat="45.00351" lon="6.66237">
        <ele>1511.81</ele>
        <time>2024-08-11T07:32:43Z</time>
      </trkpt>
      <trkpt lat="45.00346" lon="6.66282">
        <ele>1514.69</ele>
        <time>2024-08-11T07:33:01Z</time>
      </trkpt>
      <trkpt lat="45.0033" lon="6.66323">
        <ele>1515.18</ele>
        <time>2024-08-11T07:33:18Z</time>
      </trkpt>
      <trkpt lat="45.00318" lon="6.66358">
        <ele>1518.54</ele>
        <time>2024-08-11T07:33:34Z</time>
      </trkpt>
      <trkpt lat="45.00308" lon="6.66387">
        <ele>1520.94</ele>
        <time>2024-08-11T07:33:49Z</time>
      </trkpt>
      <trkpt lat="45.00308" lon="6.66389">
        <ele>1520.94</ele>
        <time>2024-08-11T07:33:50Z</time>
      </trkpt>
      <trkpt lat="45.00305" lon="6.664">
        <ele>1522.87</ele>
        <time>2024-08-11T07:33:56Z</time>
      </trkpt>
      <trkpt lat="45.00304" lon="6.66428">
        <ele>1526.23</ele>
        <time>2024-08-11T07:34:11Z</time>
      </trkpt>
      <trkpt lat="45.00304" lon="6.66436">
        <ele>1526.71</ele>
        <time>2024-08-11T07:34:16Z</time>
      </trkpt>
      <trkpt lat="45.00295" lon="6.66462">
        <ele>1530.08</ele>
        <time>2024-08-11T07:34:33Z</time>
      </trkpt>
      <trkpt lat="45.00282" lon="6.66479">
        <ele>1533.44</ele>
        <time>2024-08-11T07:34:48Z</time>
      </trkpt>
      <trkpt lat="45.00267" lon="6.66494">
        <ele>1534.88</ele>
        <time>2024-08-11T07:35:02Z</time>
      </trkpt>
      <trkpt lat="45.00253" lon="6.6651">
        <ele>1536.8</ele>
        <time>2024-08-11T07:35:17Z</time>
      </trkpt>
      <trkpt lat="45.00236" lon="6.66533">
        <ele>1540.17</ele>
        <time>2024-08-11T07:35:35Z</time>
      </trkpt>
      <trkpt lat="45.00229" lon="6.66542">
        <ele>1541.13</ele>
        <time>2024-08-11T07:35:42Z</time>
      </trkpt>
      <trkpt lat="45.00218" lon="6.66556">
        <ele>1543.05</ele>
        <time>2024-08-11T07:35:54Z</time>
      </trkpt>
      <trkpt lat="45.00212" lon="6.66562">
        <ele>1544.01</ele>
        <time>2024-08-11T07:35:59Z</time>
      </trkpt>
      <trkpt lat="45.00203" lon="6.6659">
        <ele>1547.38</ele>
        <time>2024-08-11T07:36:16Z</time>
      </trkpt>
      <trkpt lat="45.00202" lon="6.66599">
        <ele>1547.86</ele>
        <time>2024-08-11T07:36:21Z</time>
      </trkpt>
      <trkpt lat="45.00198" lon="6.66605">
        <ele>1548.82</ele>
        <time>2024-08-11T07:36:25Z</time>
      </trkpt>
      <trkpt lat="45.00187" lon="6.66622">
        <ele>1550.74</ele>
        <time>2024-08-11T07:36:38Z</time>
      </trkpt>
      <trkpt lat="45.00169" lon="6.66647">
        <ele>1553.63</ele>
        <time>2024-08-11T07:36:54Z</time>
      </trkpt>
      <trkpt lat="45.00159" lon="6.66656">
        <ele>1555.07</ele>
        <time>2024-08-11T07:37:03Z</time>
      </trkpt>
      <trkpt lat="45.00149" lon="6.66667">
        <ele>1557.47</ele>
        <time>2024-08-11T07:37:13Z</time>
      </trkpt>
      <trkpt lat="45.0014" lon="6.66676">
        <ele>1558.92</ele>
        <time>2024-08-11T07:37:22Z</time>
      </trkpt>
      <trkpt lat="45.00146" lon="6.66689">
        <ele>1560.84</ele>
        <time>2024-08-11T07:37:33Z</time>
      </trkpt>
      <trkpt lat="45.00155" lon="6.66682">
        <ele>1562.28</ele>
        <time>2024-08-11T07:37:41Z</time>
      </trkpt>
      <trkpt lat="45.00175" lon="6.66678">
        <ele>1564.2</ele>
        <time>2024-08-11T07:37:55Z</time>
      </trkpt>
      <trkpt lat="45.00191" lon="6.66679">
        <ele>1566.61</ele>
        <time>2024-08-11T07:38:08Z</time>
      </trkpt>
      <trkpt lat="45.00183" lon="6.66688">
        <ele>1568.53</ele>
        <time>2024-08-11T07:38:20Z</time>
      </trkpt>
      <trkpt lat="45.0018" lon="6.66689">
        <ele>1569.01</ele>
        <time>2024-08-11T07:38:22Z</time>
      </trkpt>
      <trkpt lat="45.00177" lon="6.66694">
        <ele>1569.49</ele>
        <time>2024-08-11T07:38:26Z</time>
      </trkpt>
      <trkpt lat="45.00166" lon="6.66704">
        <ele>1571.89</ele>
        <time>2024-08-11T07:38:36Z</time>
      </trkpt>
      <trkpt lat="45.00161" lon="6.66712">
        <ele>1572.37</ele>
        <time>2024-08-11T07:38:41Z</time>
      </trkpt>
      <trkpt lat="45.00149" lon="6.66728">
        <ele>1574.78</ele>
        <time>2024-08-11T07:38:53Z</time>
      </trkpt>
      <trkpt lat="45.00155" lon="6.66742">
        <ele>1575.74</ele>
        <time>2024-08-11T07:39:02Z</time>
      </trkpt>
      <trkpt lat="45.00164" lon="6.66733">
        <ele>1577.66</ele>
        <time>2024-08-11T07:39:11Z</time>
      </trkpt>
      <trkpt lat="45.00186" lon="6.66722">
        <ele>1580.54</ele>
        <time>2024-08-11T07:39:29Z</time>
      </trkpt>
      <trkpt lat="45.00208" lon="6.66717">
        <ele>1583.91</ele>
        <time>2024-08-11T07:39:44Z</time>
      </trkpt>
      <trkpt lat="45.00232" lon="6.66708">
        <ele>1586.31</ele>
        <time>2024-08-11T07:40:00Z</time>
      </trkpt>
      <trkpt lat="45.00233" lon="6.66708">
        <ele>1586.79</ele>
        <time>2024-08-11T07:40:01Z</time>
      </trkpt>
      <trkpt lat="45.00236" lon="6.66715">
        <ele>1587.27</ele>
        <time>2024-08-11T07:40:06Z</time>
      </trkpt>
      <trkpt lat="45.00233" lon="6.66719">
        <ele>1588.72</ele>
        <time>2024-08-11T07:40:10Z</time>
      </trkpt>
      <trkpt lat="45.00226" lon="6.66723">
        <ele>1590.64</ele>
        <time>2024-08-11T07:40:16Z</time>
      </trkpt>
      <trkpt lat="45.00204" lon="6.66749">
        <ele>1593.04</ele>
        <time>2024-08-11T07:40:37Z</time>
      </trkpt>
      <trkpt lat="45.00185" lon="6.66769">
        <ele>1595.45</ele>
        <time>2024-08-11T07:40:52Z</time>
      </trkpt>
      <trkpt lat="45.00183" lon="6.66773">
        <ele>1595.93</ele>
        <time>2024-08-11T07:40:54Z</time>
      </trkpt>
      <trkpt lat="45.00178" lon="6.66783">
        <ele>1597.37</ele>
        <time>2024-08-11T07:41:00Z</time>
      </trkpt>
      <trkpt lat="45.00176" lon="6.66786">
        <ele>1597.37</ele>
        <time>2024-08-11T07:41:02Z</time>
      </trkpt>
      <trkpt lat="45.00171" lon="6.66793">
        <ele>1598.33</ele>
        <time>2024-08-11T07:41:07Z</time>
      </trkpt>
      <trkpt lat="45.00168" lon="6.66801">
        <ele>1599.29</ele>
        <time>2024-08-11T07:41:11Z</time>
      </trkpt>
      <trkpt lat="45.00166" lon="6.66805">
        <ele>1599.29</ele>
        <time>2024-08-11T07:41:13Z</time>
      </trkpt>
      <trkpt lat="45.00157" lon="6.66826">
        <ele>1601.69</ele>
        <time>2024-08-11T07:41:25Z</time>
      </trkpt>
      <trkpt lat="45.00143" lon="6.66843">
        <ele>1604.1</ele>
        <time>2024-08-11T07:41:38Z</time>
      </trkpt>
      <trkpt lat="45.00127" lon="6.6686">
        <ele>1606.98</ele>
        <time>2024-08-11T07:41:51Z</time>
      </trkpt>
      <trkpt lat="45.00116" lon="6.66866">
        <ele>1608.42</ele>
        <time>2024-08-11T07:41:59Z</time>
      </trkpt>
      <trkpt lat="45.00118" lon="6.66879">
        <ele>1610.83</ele>
        <time>2024-08-11T07:42:11Z</time>
      </trkpt>
      <trkpt lat="45.00122" lon="6.66876">
        <ele>1611.31</ele>
        <time>2024-08-11T07:42:15Z</time>
      </trkpt>
      <trkpt lat="45.00144" lon="6.66871">
        <ele>1614.67</ele>
        <time>2024-08-11T07:42:31Z</time>
      </trkpt>
      <trkpt lat="45.00162" lon="6.66866">
        <ele>1616.59</ele>
        <time>2024-08-11T07:42:44Z</time>
      </trkpt>
      <trkpt lat="45.00177" lon="6.66862">
        <ele>1618.52</ele>
        <time>2024-08-11T07:42:54Z</time>
      </trkpt>
      <trkpt lat="45.00181" lon="6.6686">
        <ele>1619.96</ele>
        <time>2024-08-11T07:42:58Z</time>
      </trkpt>
      <trkpt lat="45.00202" lon="6.66843">
        <ele>1622.84</ele>
        <time>2024-08-11T07:43:15Z</time>
      </trkpt>
      <trkpt lat="45.0021" lon="6.66838">
        <ele>1624.28</ele>
        <time>2024-08-11T07:43:21Z</time>
      </trkpt>
      <trkpt lat="45.0023" lon="6.66822">
        <ele>1627.17</ele>
        <time>2024-08-11T07:43:38Z</time>
      </trkpt>
      <trkpt lat="45.00247" lon="6.66813">
        <ele>1630.05</ele>
        <time>2024-08-11T07:43:51Z</time>
      </trkpt>
      <trkpt lat="45.00268" lon="6.66801">
        <ele>1632.46</ele>
        <time>2024-08-11T07:44:07Z</time>
      </trkpt>
      <trkpt lat="45.00288" lon="6.66788">
        <ele>1635.82</ele>
        <time>2024-08-11T07:44:22Z</time>
      </trkpt>
      <trkpt lat="45.00291" lon="6.66786">
        <ele>1636.3</ele>
        <time>2024-08-11T07:44:25Z</time>
      </trkpt>
      <trkpt lat="45.00294" lon="6.66792">
        <ele>1636.78</ele>
        <time>2024-08-11T07:44:31Z</time>
      </trkpt>
      <trkpt lat="45.00283" lon="6.66804">
        <ele>1639.19</ele>
        <time>2024-08-11T07:44:42Z</time>
      </trkpt>
      <trkpt lat="45.00277" lon="6.66814">
        <ele>1640.15</ele>
        <time>2024-08-11T07:44:49Z</time>
      </trkpt>
      <trkpt lat="45.00269" lon="6.66824">
        <ele>1642.55</ele>
        <time>2024-08-11T07:44:58Z</time>
      </trkpt>
      <trkpt lat="45.00251" lon="6.66852">
        <ele>1645.43</ele>
        <time>2024-08-11T07:45:17Z</time>
      </trkpt>
      <trkpt lat="45.00246" lon="6.66864">
        <ele>1646.88</ele>
        <time>2024-08-11T07:45:25Z</time>
      </trkpt>
      <trkpt lat="45.00242" lon="6.66871">
        <ele>1647.84</ele>
        <time>2024-08-11T07:45:30Z</time>
      </trkpt>
      <trkpt lat="45.00229" lon="6.66899">
        <ele>1650.24</ele>
        <time>2024-08-11T07:45:48Z</time>
      </trkpt>
      <trkpt lat="45.00216" lon="6.66919">
        <ele>1653.12</ele>
        <time>2024-08-11T07:46:03Z</time>
      </trkpt>
      <trkpt lat="45.00201" lon="6.66935">
        <ele>1656.49</ele>
        <time>2024-08-11T07:46:17Z</time>
      </trkpt>
      <trkpt lat="45.00201" lon="6.66937">
        <ele>1656.49</ele>
        <time>2024-08-11T07:46:18Z</time>
      </trkpt>
      <trkpt lat="45.00192" lon="6.66949">
        <ele>1657.45</ele>
        <time>2024-08-11T07:46:27Z</time>
      </trkpt>
      <trkpt lat="45.00186" lon="6.66954">
        <ele>1658.41</ele>
        <time>2024-08-11T07:46:32Z</time>
      </trkpt>
      <trkpt lat="45.00171" lon="6.66979">
        <ele>1662.26</ele>
        <time>2024-08-11T07:46:49Z</time>
      </trkpt>
      <trkpt lat="45.00158" lon="6.66999">
        <ele>1665.14</ele>
        <time>2024-08-11T07:47:05Z</time>
      </trkpt>
      <trkpt lat="45.00146" lon="6.67019">
        <ele>1668.51</ele>
        <time>2024-08-11T07:47:19Z</time>
      </trkpt>
      <trkpt lat="45.00147" lon="6.67028">
        <ele>1668.51</ele>
        <time>2024-08-11T07:47:23Z</time>
      </trkpt>
      <trkpt lat="45.0016" lon="6.6702">
        <ele>1670.43</ele>
        <time>2024-08-11T07:47:35Z</time>
      </trkpt>
      <trkpt lat="45.00165" lon="6.67013">
        <ele>1671.87</ele>
        <time>2024-08-11T07:47:40Z</time>
      </trkpt>
      <trkpt lat="45.00183" lon="6.66998">
        <ele>1674.27</ele>
        <time>2024-08-11T07:47:56Z</time>
      </trkpt>
      <trkpt lat="45.00193" lon="6.6699">
        <ele>1675.23</ele>
        <time>2024-08-11T07:48:04Z</time>
      </trkpt>
      <trkpt lat="45.00194" lon="6.67003">
        <ele>1677.16</ele>
        <time>2024-08-11T07:48:14Z</time>
      </trkpt>
      <trkpt lat="45.00176" lon="6.67022">
        <ele>1680.04</ele>
        <time>2024-08-11T07:48:30Z</time>
      </trkpt>
      <trkpt lat="45.00164" lon="6.6705">
        <ele>1682.44</ele>
        <time>2024-08-11T07:48:46Z</time>
      </trkpt>
      <trkpt lat="45.00163" lon="6.67053">
        <ele>1682.93</ele>
        <time>2024-08-11T07:48:48Z</time>
      </trkpt>
      <trkpt lat="45.00166" lon="6.67064">
        <ele>1683.89</ele>
        <time>2024-08-11T07:48:54Z</time>
      </trkpt>
      <trkpt lat="45.00176" lon="6.6705">
        <ele>1686.29</ele>
        <time>2024-08-11T07:49:06Z</time>
      </trkpt>
      <trkpt lat="45.00191" lon="6.67032">
        <ele>1689.17</ele>
        <time>2024-08-11T07:49:20Z</time>
      </trkpt>
      <trkpt lat="45.00212" lon="6.67017">
        <ele>1692.54</ele>
        <time>2024-08-11T07:49:38Z</time>
      </trkpt>
      <trkpt lat="45.00233" lon="6.67001">
        <ele>1695.42</ele>
        <time>2024-08-11T07:49:55Z</time>
      </trkpt>
      <trkpt lat="45.00249" lon="6.66986">
        <ele>1698.31</ele>
        <time>2024-08-11T07:50:11Z</time>
      </trkpt>
      <trkpt lat="45.00266" lon="6.66976">
        <ele>1700.71</ele>
        <time>2024-08-11T07:50:25Z</time>
      </trkpt>
      <trkpt lat="45.00271" lon="6.66972">
        <ele>1702.15</ele>
        <time>2024-08-11T07:50:29Z</time>
      </trkpt>
      <trkpt lat="45.00277" lon="6.6697">
        <ele>1702.63</ele>
        <time>2024-08-11T07:50:34Z</time>
      </trkpt>
      <trkpt lat="45.00283" lon="6.66967">
        <ele>1703.59</ele>
        <time>2024-08-11T07:50:38Z</time>
      </trkpt>
      <trkpt lat="45.00305" lon="6.66955">
        <ele>1706.48</ele>
        <time>2024-08-11T07:50:56Z</time>
      </trkpt>
      <trkpt lat="45.00313" lon="6.66949">
        <ele>1707.92</ele>
        <time>2024-08-11T07:51:03Z</time>
      </trkpt>
      <trkpt lat="45.00331" lon="6.6693">
        <ele>1710.8</ele>
        <time>2024-08-11T07:51:20Z</time>
      </trkpt>
      <trkpt lat="45.00348" lon="6.66915">
        <ele>1714.17</ele>
        <time>2024-08-11T07:51:35Z</time>
      </trkpt>
      <trkpt lat="45.00364" lon="6.669">
        <ele>1717.53</ele>
        <time>2024-08-11T07:51:53Z</time>
      </trkpt>
      <trkpt lat="45.00366" lon="6.669">
        <ele>1717.53</ele>
        <time>2024-08-11T07:51:54Z</time>
      </trkpt>
      <trkpt lat="45.00364" lon="6.66914">
        <ele>1719.46</ele>
        <time>2024-08-11T07:52:06Z</time>
      </trkpt>
      <trkpt lat="45.00361" lon="6.66919">
        <ele>1720.42</ele>
        <time>2024-08-11T07:52:10Z</time>
      </trkpt>
      <trkpt lat="45.0035" lon="6.66946">
        <ele>1723.78</ele>
        <time>2024-08-11T07:52:27Z</time>
      </trkpt>
      <trkpt lat="45.00337" lon="6.66965">
        <ele>1725.7</ele>
        <time>2024-08-11T07:52:41Z</time>
      </trkpt>
      <trkpt lat="45.00328" lon="6.66968">
        <ele>1727.15</ele>
        <time>2024-08-11T07:52:47Z</time>
      </trkpt>
      <trkpt lat="45.0031" lon="6.66988">
        <ele>1730.03</ele>
        <time>2024-08-11T07:53:04Z</time>
      </trkpt>
      <trkpt lat="45.00299" lon="6.67008">
        <ele>1731.95</ele>
        <time>2024-08-11T07:53:19Z</time>
      </trkpt>
      <trkpt lat="45.00281" lon="6.67027">
        <ele>1734.84</ele>
        <time>2024-08-11T07:53:35Z</time>
      </trkpt>
      <trkpt lat="45.00278" lon="6.67033">
        <ele>1735.32</ele>
        <time>2024-08-11T07:53:39Z</time>
      </trkpt>
      <trkpt lat="45.00271" lon="6.67046">
        <ele>1736.76</ele>
        <time>2024-08-11T07:53:48Z</time>
      </trkpt>
      <trkpt lat="45.00259" lon="6.67075">
        <ele>1740.6</ele>
        <time>2024-08-11T07:54:06Z</time>
      </trkpt>
      <trkpt lat="45.00251" lon="6.67103">
        <ele>1743.01</ele>
        <time>2024-08-11T07:54:23Z</time>
      </trkpt>
      <trkpt lat="45.00247" lon="6.67124">
        <ele>1745.41</ele>
        <time>2024-08-11T07:54:35Z</time>
      </trkpt>
      <trkpt lat="45.00242" lon="6.67141">
        <ele>1746.85</ele>
        <time>2024-08-11T07:54:45Z</time>
      </trkpt>
      <trkpt lat="45.00239" lon="6.67156">
        <ele>1748.29</ele>
        <time>2024-08-11T07:54:54Z</time>
      </trkpt>
      <trkpt lat="45.00239" lon="6.67165">
        <ele>1748.78</ele>
        <time>2024-08-11T07:54:59Z</time>
      </trkpt>
      <trkpt lat="45.00238" lon="6.67168">
        <ele>1749.26</ele>
        <time>2024-08-11T07:55:01Z</time>
      </trkpt>
      <trkpt lat="45.00236" lon="6.67188">
        <ele>1751.66</ele>
        <time>2024-08-11T07:55:12Z</time>
      </trkpt>
      <trkpt lat="45.00235" lon="6.67201">
        <ele>1752.62</ele>
        <time>2024-08-11T07:55:19Z</time>
      </trkpt>
      <trkpt lat="45.00231" lon="6.67234">
        <ele>1755.99</ele>
        <time>2024-08-11T07:55:37Z</time>
      </trkpt>
      <trkpt lat="45.00227" lon="6.6725">
        <ele>1757.43</ele>
        <time>2024-08-11T07:55:46Z</time>
      </trkpt>
      <trkpt lat="45.00223" lon="6.67269">
        <ele>1758.87</ele>
        <time>2024-08-11T07:55:57Z</time>
      </trkpt>
      <trkpt lat="45.00226" lon="6.67302">
        <ele>1762.23</ele>
        <time>2024-08-11T07:56:15Z</time>
      </trkpt>
      <trkpt lat="45.00226" lon="6.67304">
        <ele>1762.23</ele>
        <time>2024-08-11T07:56:16Z</time>
      </trkpt>
      <trkpt lat="45.0023" lon="6.67322">
        <ele>1764.64</ele>
        <time>2024-08-11T07:56:26Z</time>
      </trkpt>
      <trkpt lat="45.00233" lon="6.67349">
        <ele>1767.04</ele>
        <time>2024-08-11T07:56:41Z</time>
      </trkpt>
      <trkpt lat="45.00227" lon="6.67363">
        <ele>1768</ele>
        <time>2024-08-11T07:56:50Z</time>
      </trkpt>
      <trkpt lat="45.00226" lon="6.6737">
        <ele>1768.48</ele>
        <time>2024-08-11T07:56:54Z</time>
      </trkpt>
      <trkpt lat="45.00225" lon="6.67396">
        <ele>1771.37</ele>
        <time>2024-08-11T07:57:09Z</time>
      </trkpt>
      <trkpt lat="45.00226" lon="6.6741">
        <ele>1772.81</ele>
        <time>2024-08-11T07:57:17Z</time>
      </trkpt>
      <trkpt lat="45.0023" lon="6.6743">
        <ele>1774.73</ele>
        <time>2024-08-11T07:57:29Z</time>
      </trkpt>
      <trkpt lat="45.00232" lon="6.67441">
        <ele>1775.69</ele>
        <time>2024-08-11T07:57:35Z</time>
      </trkpt>
      <trkpt lat="45.00235" lon="6.67451">
        <ele>1777.13</ele>
        <time>2024-08-11T07:57:41Z</time>
      </trkpt>
      <trkpt lat="45.00233" lon="6.67459">
        <ele>1778.58</ele>
        <time>2024-08-11T07:57:54Z</time>
      </trkpt>
      <trkpt lat="45.00233" lon="6.67461">
        <ele>1778.58</ele>
        <time>2024-08-11T07:58:11Z</time>
      </trkpt>
      <trkpt lat="45.00233" lon="6.67462">
        <ele>1778.58</ele>
        <time>2024-08-11T07:58:37Z</time>
      </trkpt>
      <trkpt lat="45.00235" lon="6.67462">
        <ele>1778.58</ele>
        <time>2024-08-11T07:58:54Z</time>
      </trkpt>
      <trkpt lat="45.00231" lon="6.67461">
        <ele>1779.06</ele>
        <time>2024-08-11T07:59:23Z</time>
      </trkpt>
      <trkpt lat="45.00231" lon="6.67461">
        <ele>1779.06</ele>
        <time>2024-08-11T07:59:46Z</time>
      </trkpt>
      <trkpt lat="45.00231" lon="6.67459">
        <ele>1779.06</ele>
        <time>2024-08-11T08:00:10Z</time>
      </trkpt>
      <trkpt lat="45.00232" lon="6.67459">
        <ele>1779.06</ele>
        <time>2024-08-11T08:00:35Z</time>
      </trkpt>
      <trkpt lat="45.00232" lon="6.6746">
        <ele>1779.54</ele>
        <time>2024-08-11T08:01:01Z</time>
      </trkpt>
      <trkpt lat="45.00231" lon="6.6746">
        <ele>1779.54</ele>
        <time>2024-08-11T08:01:25Z</time>
      </trkpt>
      <trkpt lat="45.00233" lon="6.67457">
        <ele>1779.54</ele>
        <time>2024-08-11T08:01:50Z</time>
      </trkpt>
      <trkpt lat="45.00233" lon="6.67459">
        <ele>1779.54</ele>
        <time>2024-08-11T08:02:23Z</time>
      </trkpt>
      <trkpt lat="45.00228" lon="6.67459">
        <ele>1780.02</ele>
        <time>2024-08-11T08:02:55Z</time>
      </trkpt>
      <trkpt lat="45.00228" lon="6.6746">
        <ele>1780.02</ele>
        <time>2024-08-11T08:03:15Z</time>
      </trkpt>
      <trkpt lat="45.00231" lon="6.6746">
        <ele>1780.5</ele>
        <time>2024-08-11T08:03:39Z</time>
      </trkpt>
      <trkpt lat="45.0023" lon="6.67459">
        <ele>1780.98</ele>
        <time>2024-08-11T08:03:56Z</time>
      </trkpt>
      <trkpt lat="45.00231" lon="6.67457">
        <ele>1780.98</ele>
        <time>2024-08-11T08:04:30Z</time>
      </trkpt>
      <trkpt lat="45.0023" lon="6.67459">
        <ele>1780.98</ele>
        <time>2024-08-11T08:05:02Z</time>
      </trkpt>
      <trkpt lat="45.00229" lon="6.67461">
        <ele>1781.46</ele>
        <time>2024-08-11T08:05:17Z</time>
      </trkpt>
      <trkpt lat="45.00231" lon="6.67461">
        <ele>1781.46</ele>
        <time>2024-08-11T08:05:31Z</time>
      </trkpt>
      <trkpt lat="45.00231" lon="6.67456">
        <ele>1781.46</ele>
        <time>2024-08-11T08:05:47Z</time>
      </trkpt>
      <trkpt lat="45.00234" lon="6.6746">
        <ele>1781.46</ele>
        <time>2024-08-11T08:06:16Z</time>
      </trkpt>
      <trkpt lat="45.00234" lon="6.67461">
        <ele>1781.94</ele>
        <time>2024-08-11T08:06:41Z</time>
      </trkpt>
      <trkpt lat="45.00235" lon="6.6746">
        <ele>1781.94</ele>
        <time>2024-08-11T08:07:08Z</time>
      </trkpt>
      <trkpt lat="45.00231" lon="6.67461">
        <ele>1781.94</ele>
        <time>2024-08-11T08:07:28Z</time>
      </trkpt>
      <trkpt lat="45.00235" lon="6.6746">
        <ele>1781.94</ele>
        <time>2024-08-11T08:07:50Z</time>
      </trkpt>
      <trkpt lat="45.00244" lon="6.67477">
        <ele>1783.86</ele>
        <time>2024-08-11T08:08:01Z</time>
      </trkpt>
      <trkpt lat="45.00249" lon="6.67485">
        <ele>1784.82</ele>
        <time>2024-08-11T08:08:07Z</time>
      </trkpt>
      <trkpt lat="45.00264" lon="6.67505">
        <ele>1786.75</ele>
        <time>2024-08-11T08:08:23Z</time>
      </trkpt>
      <trkpt lat="45.00284" lon="6.67527">
        <ele>1789.63</ele>
        <time>2024-08-11T08:08:40Z</time>
      </trkpt>
      <trkpt lat="45.00293" lon="6.67537">
        <ele>1791.55</ele>
        <time>2024-08-11T08:08:50Z</time>
      </trkpt>
      <trkpt lat="45.00304" lon="6.67547">
        <ele>1793.48</ele>
        <time>2024-08-11T08:09:00Z</time>
      </trkpt>
      <trkpt lat="45.00319" lon="6.67571">
        <ele>1795.88</ele>
        <time>2024-08-11T08:09:16Z</time>
      </trkpt>
      <trkpt lat="45.00321" lon="6.67577">
        <ele>1796.36</ele>
        <time>2024-08-11T08:09:20Z</time>
      </trkpt>
      <trkpt lat="45.0033" lon="6.67587">
        <ele>1797.8</ele>
        <time>2024-08-11T08:09:29Z</time>
      </trkpt>
      <trkpt lat="45.00344" lon="6.67594">
        <ele>1801.17</ele>
        <time>2024-08-11T08:09:41Z</time>
      </trkpt>
      <trkpt lat="45.00346" lon="6.67596">
        <ele>1801.17</ele>
        <time>2024-08-11T08:09:43Z</time>
      </trkpt>
      <trkpt lat="45.00361" lon="6.67626">
        <ele>1803.57</ele>
        <time>2024-08-11T08:09:59Z</time>
      </trkpt>
      <trkpt lat="45.0038" lon="6.67647">
        <ele>1806.45</ele>
        <time>2024-08-11T08:10:15Z</time>
      </trkpt>
      <trkpt lat="45.00381" lon="6.67662">
        <ele>1807.9</ele>
        <time>2024-08-11T08:10:23Z</time>
      </trkpt>
      <trkpt lat="45.00383" lon="6.67675">
        <ele>1809.34</ele>
        <time>2024-08-11T08:10:30Z</time>
      </trkpt>
      <trkpt lat="45.00396" lon="6.67698">
        <ele>1811.74</ele>
        <time>2024-08-11T08:10:46Z</time>
      </trkpt>
      <trkpt lat="45.00396" lon="6.67701">
        <ele>1811.74</ele>
        <time>2024-08-11T08:10:49Z</time>
      </trkpt>
      <trkpt lat="45.00399" lon="6.67714">
        <ele>1813.18</ele>
        <time>2024-08-11T08:10:59Z</time>
      </trkpt>
      <trkpt lat="45.00413" lon="6.67732">
        <ele>1815.11</ele>
        <time>2024-08-11T08:11:15Z</time>
      </trkpt>
      <trkpt lat="45.00429" lon="6.67745">
        <ele>1817.51</ele>
        <time>2024-08-11T08:11:30Z</time>
      </trkpt>
      <trkpt lat="45.00446" lon="6.67761">
        <ele>1819.43</ele>
        <time>2024-08-11T08:11:45Z</time>
      </trkpt>
      <trkpt lat="45.00464" lon="6.67782">
        <ele>1822.32</ele>
        <time>2024-08-11T08:12:01Z</time>
      </trkpt>
      <trkpt lat="45.00471" lon="6.67792">
        <ele>1824.24</ele>
        <time>2024-08-11T08:12:11Z</time>
      </trkpt>
      <trkpt lat="45.00488" lon="6.67805">
        <ele>1827.12</ele>
        <time>2024-08-11T08:12:25Z</time>
      </trkpt>
      <trkpt lat="45.00495" lon="6.67809">
        <ele>1828.08</ele>
        <time>2024-08-11T08:12:30Z</time>
      </trkpt>
      <trkpt lat="45.00507" lon="6.67818">
        <ele>1830.97</ele>
        <time>2024-08-11T08:12:40Z</time>
      </trkpt>
      <trkpt lat="45.00512" lon="6.67822">
        <ele>1831.45</ele>
        <time>2024-08-11T08:12:44Z</time>
      </trkpt>
      <trkpt lat="45.0053" lon="6.67841">
        <ele>1833.85</ele>
        <time>2024-08-11T08:13:00Z</time>
      </trkpt>
      <trkpt lat="45.00544" lon="6.67853">
        <ele>1836.74</ele>
        <time>2024-08-11T08:13:12Z</time>
      </trkpt>
      <trkpt lat="45.00547" lon="6.67858">
        <ele>1837.22</ele>
        <time>2024-08-11T08:13:16Z</time>
      </trkpt>
      <trkpt lat="45.00567" lon="6.6788">
        <ele>1840.1</ele>
        <time>2024-08-11T08:13:33Z</time>
      </trkpt>
      <trkpt lat="45.00592" lon="6.67884">
        <ele>1842.5</ele>
        <time>2024-08-11T08:13:46Z</time>
      </trkpt>
      <trkpt lat="45.00611" lon="6.67922">
        <ele>1843.47</ele>
        <time>2024-08-11T08:14:00Z</time>
      </trkpt>
      <trkpt lat="45.00638" lon="6.67969">
        <ele>1844.43</ele>
        <time>2024-08-11T08:14:16Z</time>
      </trkpt>
      <trkpt lat="45.00663" lon="6.68027">
        <ele>1845.87</ele>
        <time>2024-08-11T08:14:31Z</time>
      </trkpt>
      <trkpt lat="45.00664" lon="6.68078">
        <ele>1846.83</ele>
        <time>2024-08-11T08:14:42Z</time>
      </trkpt>
      <trkpt lat="45.00664" lon="6.68081">
        <ele>1846.83</ele>
        <time>2024-08-11T08:14:43Z</time>
      </trkpt>
      <trkpt lat="45.0067" lon="6.68097">
        <ele>1846.83</ele>
        <time>2024-08-11T08:14:47Z</time>
      </trkpt>
      <trkpt lat="45.00678" lon="6.68111">
        <ele>1847.31</ele>
        <time>2024-08-11T08:14:50Z</time>
      </trkpt>
      <trkpt lat="45.00696" lon="6.68167">
        <ele>1847.31</ele>
        <time>2024-08-11T08:15:01Z</time>
      </trkpt>
      <trkpt lat="45.00725" lon="6.68206">
        <ele>1847.79</ele>
        <time>2024-08-11T08:15:10Z</time>
      </trkpt>
      <trkpt lat="45.00733" lon="6.68214">
        <ele>1847.79</ele>
        <time>2024-08-11T08:15:12Z</time>
      </trkpt>
      <trkpt lat="45.0077" lon="6.68258">
        <ele>1846.35</ele>
        <time>2024-08-11T08:15:22Z</time>
      </trkpt>
      <trkpt lat="45.00785" lon="6.68275">
        <ele>1846.35</ele>
        <time>2024-08-11T08:15:26Z</time>
      </trkpt>
      <trkpt lat="45.00797" lon="6.68303">
        <ele>1845.87</ele>
        <time>2024-08-11T08:15:31Z</time>
      </trkpt>
      <trkpt lat="45.00804" lon="6.68324">
        <ele>1845.39</ele>
        <time>2024-08-11T08:15:39Z</time>
      </trkpt>
      <trkpt lat="45.008" lon="6.68313">
        <ele>1845.39</ele>
        <time>2024-08-11T08:15:44Z</time>
      </trkpt>
      <trkpt lat="45.00799" lon="6.68305">
        <ele>1845.39</ele>
        <time>2024-08-11T08:15:47Z</time>
      </trkpt>
      <trkpt lat="45.00799" lon="6.68305">
        <ele>1845.39</ele>
        <time>2024-08-11T08:16:05Z</time>
      </trkpt>
      <trkpt lat="45.008" lon="6.683">
        <ele>1845.39</ele>
        <time>2024-08-11T08:16:30Z</time>
      </trkpt>
      <trkpt lat="45.00804" lon="6.68298">
        <ele>1846.83</ele>
        <time>2024-08-11T08:16:39Z</time>
      </trkpt>
      <trkpt lat="45.00813" lon="6.68307">
        <ele>1849.71</ele>
        <time>2024-08-11T08:16:55Z</time>
      </trkpt>
      <trkpt lat="45.00813" lon="6.68307">
        <ele>1849.71</ele>
        <time>2024-08-11T08:16:56Z</time>
      </trkpt>
      <trkpt lat="45.00817" lon="6.68311">
        <ele>1849.71</ele>
        <time>2024-08-11T08:17:00Z</time>
      </trkpt>
      <trkpt lat="45.00821" lon="6.68333">
        <ele>1852.6</ele>
        <time>2024-08-11T08:17:16Z</time>
      </trkpt>
      <trkpt lat="45.00826" lon="6.68341">
        <ele>1854.04</ele>
        <time>2024-08-11T08:17:30Z</time>
      </trkpt>
      <trkpt lat="45.0083" lon="6.68352">
        <ele>1855.96</ele>
        <time>2024-08-11T08:17:46Z</time>
      </trkpt>
      <trkpt lat="45.00839" lon="6.68365">
        <ele>1858.85</ele>
        <time>2024-08-11T08:18:04Z</time>
      </trkpt>
      <trkpt lat="45.00846" lon="6.68371">
        <ele>1860.77</ele>
        <time>2024-08-11T08:18:17Z</time>
      </trkpt>
      <trkpt lat="45.00858" lon="6.68381">
        <ele>1863.65</ele>
        <time>2024-08-11T08:18:34Z</time>
      </trkpt>
      <trkpt lat="45.00867" lon="6.6839">
        <ele>1866.54</ele>
        <time>2024-08-11T08:18:51Z</time>
      </trkpt>
      <trkpt lat="45.00874" lon="6.68399">
        <ele>1868.46</ele>
        <time>2024-08-11T08:19:08Z</time>
      </trkpt>
      <trkpt lat="45.00875" lon="6.68401">
        <ele>1868.94</ele>
        <time>2024-08-11T08:19:10Z</time>
      </trkpt>
      <trkpt lat="45.00887" lon="6.68415">
        <ele>1871.82</ele>
        <time>2024-08-11T08:19:23Z</time>
      </trkpt>
      <trkpt lat="45.00888" lon="6.68418">
        <ele>1872.3</ele>
        <time>2024-08-11T08:19:25Z</time>
      </trkpt>
      <trkpt lat="45.00906" lon="6.68439">
        <ele>1875.19</ele>
        <time>2024-08-11T08:19:44Z</time>
      </trkpt>
      <trkpt lat="45.00914" lon="6.68439">
        <ele>1877.11</ele>
        <time>2024-08-11T08:19:51Z</time>
      </trkpt>
      <trkpt lat="45.00921" lon="6.68437">
        <ele>1878.07</ele>
        <time>2024-08-11T08:19:57Z</time>
      </trkpt>
      <trkpt lat="45.00931" lon="6.68438">
        <ele>1880</ele>
        <time>2024-08-11T08:20:06Z</time>
      </trkpt>
      <trkpt lat="45.00934" lon="6.68437">
        <ele>1880.96</ele>
        <time>2024-08-11T08:20:09Z</time>
      </trkpt>
      <trkpt lat="45.00938" lon="6.68437">
        <ele>1881.44</ele>
        <time>2024-08-11T08:20:13Z</time>
      </trkpt>
      <trkpt lat="45.00958" lon="6.68444">
        <ele>1884.8</ele>
        <time>2024-08-11T08:20:31Z</time>
      </trkpt>
      <trkpt lat="45.00966" lon="6.68444">
        <ele>1887.21</ele>
        <time>2024-08-11T08:20:40Z</time>
      </trkpt>
      <trkpt lat="45.0098" lon="6.68451">
        <ele>1890.57</ele>
        <time>2024-08-11T08:20:55Z</time>
      </trkpt>
      <trkpt lat="45.00985" lon="6.68455">
        <ele>1892.49</ele>
        <time>2024-08-11T08:21:02Z</time>
      </trkpt>
      <trkpt lat="45.0099" lon="6.68462">
        <ele>1894.42</ele>
        <time>2024-08-11T08:21:17Z</time>
      </trkpt>
      <trkpt lat="45.00994" lon="6.68469">
        <ele>1896.34</ele>
        <time>2024-08-11T08:21:33Z</time>
      </trkpt>
      <trkpt lat="45.01001" lon="6.68477">
        <ele>1898.74</ele>
        <time>2024-08-11T08:21:45Z</time>
      </trkpt>
      <trkpt lat="45.01007" lon="6.68487">
        <ele>1900.66</ele>
        <time>2024-08-11T08:22:00Z</time>
      </trkpt>
      <trkpt lat="45.01017" lon="6.68507">
        <ele>1903.55</ele>
        <time>2024-08-11T08:22:16Z</time>
      </trkpt>
      <trkpt lat="45.01029" lon="6.68528">
        <ele>1906.43</ele>
        <time>2024-08-11T08:22:32Z</time>
      </trkpt>
      <trkpt lat="45.01043" lon="6.68549">
        <ele>1909.32</ele>
        <time>2024-08-11T08:22:49Z</time>
      </trkpt>
      <trkpt lat="45.01054" lon="6.6856">
        <ele>1912.68</ele>
        <time>2024-08-11T08:23:01Z</time>
      </trkpt>
      <trkpt lat="45.01067" lon="6.68574">
        <ele>1915.56</ele>
        <time>2024-08-11T08:23:17Z</time>
      </trkpt>
      <trkpt lat="45.01078" lon="6.68588">
        <ele>1917.49</ele>
        <time>2024-08-11T08:23:31Z</time>
      </trkpt>
      <trkpt lat="45.01086" lon="6.68601">
        <ele>1920.37</ele>
        <time>2024-08-11T08:23:48Z</time>
      </trkpt>
      <trkpt lat="45.01092" lon="6.68611">
        <ele>1923.25</ele>
        <time>2024-08-11T08:24:04Z</time>
      </trkpt>
      <trkpt lat="45.01096" lon="6.6862">
        <ele>1924.7</ele>
        <time>2024-08-11T08:24:15Z</time>
      </trkpt>
      <trkpt lat="45.01102" lon="6.68632">
        <ele>1926.14</ele>
        <time>2024-08-11T08:24:28Z</time>
      </trkpt>
      <trkpt lat="45.01111" lon="6.68653">
        <ele>1929.5</ele>
        <time>2024-08-11T08:24:43Z</time>
      </trkpt>
      <trkpt lat="45.01122" lon="6.68672">
        <ele>1932.87</ele>
        <time>2024-08-11T08:24:56Z</time>
      </trkpt>
      <trkpt lat="45.01137" lon="6.68692">
        <ele>1933.83</ele>
        <time>2024-08-11T08:25:10Z</time>
      </trkpt>
      <trkpt lat="45.01145" lon="6.68704">
        <ele>1934.79</ele>
        <time>2024-08-11T08:25:17Z</time>
      </trkpt>
      <trkpt lat="45.0115" lon="6.68709">
        <ele>1935.75</ele>
        <time>2024-08-11T08:25:21Z</time>
      </trkpt>
      <trkpt lat="45.01153" lon="6.68712">
        <ele>1936.23</ele>
        <time>2024-08-11T08:25:23Z</time>
      </trkpt>
      <trkpt lat="45.01157" lon="6.68718">
        <ele>1937.19</ele>
        <time>2024-08-11T08:25:27Z</time>
      </trkpt>
      <trkpt lat="45.01181" lon="6.68735">
        <ele>1938.16</ele>
        <time>2024-08-11T08:25:44Z</time>
      </trkpt>
      <trkpt lat="45.01199" lon="6.68748">
        <ele>1940.08</ele>
        <time>2024-08-11T08:25:58Z</time>
      </trkpt>
      <trkpt lat="45.0121" lon="6.68764">
        <ele>1943.44</ele>
        <time>2024-08-11T08:26:12Z</time>
      </trkpt>
      <trkpt lat="45.01217" lon="6.68782">
        <ele>1946.81</ele>
        <time>2024-08-11T08:26:27Z</time>
      </trkpt>
      <trkpt lat="45.01217" lon="6.68784">
        <ele>1946.81</ele>
        <time>2024-08-11T08:26:28Z</time>
      </trkpt>
      <trkpt lat="45.01232" lon="6.68806">
        <ele>1949.21</ele>
        <time>2024-08-11T08:26:49Z</time>
      </trkpt>
      <trkpt lat="45.01232" lon="6.68818">
        <ele>1951.61</ele>
        <time>2024-08-11T08:27:03Z</time>
      </trkpt>
      <trkpt lat="45.01231" lon="6.68827">
        <ele>1953.06</ele>
        <time>2024-08-11T08:27:17Z</time>
      </trkpt>
      <trkpt lat="45.01228" lon="6.68841">
        <ele>1955.46</ele>
        <time>2024-08-11T08:27:32Z</time>
      </trkpt>
      <trkpt lat="45.01226" lon="6.68857">
        <ele>1957.86</ele>
        <time>2024-08-11T08:27:49Z</time>
      </trkpt>
      <trkpt lat="45.01228" lon="6.68871">
        <ele>1960.75</ele>
        <time>2024-08-11T08:28:02Z</time>
      </trkpt>
      <trkpt lat="45.01231" lon="6.68885">
        <ele>1963.15</ele>
        <time>2024-08-11T08:28:14Z</time>
      </trkpt>
      <trkpt lat="45.01233" lon="6.68904">
        <ele>1965.55</ele>
        <time>2024-08-11T08:28:29Z</time>
      </trkpt>
      <trkpt lat="45.01235" lon="6.6892">
        <ele>1968.44</ele>
        <time>2024-08-11T08:28:45Z</time>
      </trkpt>
      <trkpt lat="45.01239" lon="6.68932">
        <ele>1970.36</ele>
        <time>2024-08-11T08:29:01Z</time>
      </trkpt>
      <trkpt lat="45.01242" lon="6.68934">
        <ele>1970.36</ele>
        <time>2024-08-11T08:29:05Z</time>
      </trkpt>
      <trkpt lat="45.01245" lon="6.68938">
        <ele>1971.8</ele>
        <time>2024-08-11T08:29:09Z</time>
      </trkpt>
      <trkpt lat="45.01251" lon="6.68948">
        <ele>1973.72</ele>
        <time>2024-08-11T08:29:19Z</time>
      </trkpt>
      <trkpt lat="45.01259" lon="6.6897">
        <ele>1977.09</ele>
        <time>2024-08-11T08:29:35Z</time>
      </trkpt>
      <trkpt lat="45.01268" lon="6.68991">
        <ele>1979.49</ele>
        <time>2024-08-11T08:29:50Z</time>
      </trkpt>
      <trkpt lat="45.0127" lon="6.68996">
        <ele>1980.45</ele>
        <time>2024-08-11T08:29:54Z</time>
      </trkpt>
      <trkpt lat="45.0128" lon="6.69015">
        <ele>1983.34</ele>
        <time>2024-08-11T08:30:09Z</time>
      </trkpt>
      <trkpt lat="45.01288" lon="6.69036">
        <ele>1986.7</ele>
        <time>2024-08-11T08:30:24Z</time>
      </trkpt>
      <trkpt lat="45.01298" lon="6.69056">
        <ele>1989.59</ele>
        <time>2024-08-11T08:30:40Z</time>
      </trkpt>
      <trkpt lat="45.0131" lon="6.69068">
        <ele>1991.99</ele>
        <time>2024-08-11T08:30:56Z</time>
      </trkpt>
      <trkpt lat="45.01312" lon="6.6907">
        <ele>1992.47</ele>
        <time>2024-08-11T08:30:58Z</time>
      </trkpt>
      <trkpt lat="45.01315" lon="6.69071">
        <ele>1993.43</ele>
        <time>2024-08-11T08:31:01Z</time>
      </trkpt>
      <trkpt lat="45.01322" lon="6.69057">
        <ele>1996.8</ele>
        <time>2024-08-11T08:31:14Z</time>
      </trkpt>
      <trkpt lat="45.01327" lon="6.6904">
        <ele>1999.68</ele>
        <time>2024-08-11T08:31:28Z</time>
      </trkpt>
      <trkpt lat="45.01334" lon="6.69023">
        <ele>2002.08</ele>
        <time>2024-08-11T08:31:42Z</time>
      </trkpt>
      <trkpt lat="45.01336" lon="6.69019">
        <ele>2003.04</ele>
        <time>2024-08-11T08:31:58Z</time>
      </trkpt>
      <trkpt lat="45.01338" lon="6.69021">
        <ele>2003.04</ele>
        <time>2024-08-11T08:32:12Z</time>
      </trkpt>
      <trkpt lat="45.01338" lon="6.69019">
        <ele>2003.52</ele>
        <time>2024-08-11T08:32:49Z</time>
      </trkpt>
      <trkpt lat="45.01343" lon="6.69024">
        <ele>2004.01</ele>
        <time>2024-08-11T08:33:31Z</time>
      </trkpt>
      <trkpt lat="45.01343" lon="6.69025">
        <ele>2004.49</ele>
        <time>2024-08-11T08:34:14Z</time>
      </trkpt>
      <trkpt lat="45.01336" lon="6.69014">
        <ele>2004.01</ele>
        <time>2024-08-11T08:35:03Z</time>
      </trkpt>
      <trkpt lat="45.01339" lon="6.69021">
        <ele>2004.49</ele>
        <time>2024-08-11T08:35:39Z</time>
      </trkpt>
      <trkpt lat="45.0134" lon="6.69024">
        <ele>2005.93</ele>
        <time>2024-08-11T08:36:13Z</time>
      </trkpt>
      <trkpt lat="45.01346" lon="6.69024">
        <ele>2006.41</ele>
        <time>2024-08-11T08:36:45Z</time>
      </trkpt>
      <trkpt lat="45.01344" lon="6.69023">
        <ele>2006.89</ele>
        <time>2024-08-11T08:37:10Z</time>
      </trkpt>
      <trkpt lat="45.01341" lon="6.69025">
        <ele>2007.85</ele>
        <time>2024-08-11T08:37:48Z</time>
      </trkpt>
      <trkpt lat="45.01345" lon="6.69025">
        <ele>2007.85</ele>
        <time>2024-08-11T08:38:07Z</time>
      </trkpt>
      <trkpt lat="45.01344" lon="6.69026">
        <ele>2008.81</ele>
        <time>2024-08-11T08:38:33Z</time>
      </trkpt>
      <trkpt lat="45.01345" lon="6.69025">
        <ele>2009.29</ele>
        <time>2024-08-11T08:39:10Z</time>
      </trkpt>
      <trkpt lat="45.01344" lon="6.69026">
        <ele>2009.77</ele>
        <time>2024-08-11T08:39:42Z</time>
      </trkpt>
      <trkpt lat="45.01342" lon="6.69022">
        <ele>2010.25</ele>
        <time>2024-08-11T08:40:18Z</time>
      </trkpt>
      <trkpt lat="45.0134" lon="6.69019">
        <ele>2010.25</ele>
        <time>2024-08-11T08:40:37Z</time>
      </trkpt>
      <trkpt lat="45.01341" lon="6.69023">
        <ele>2010.25</ele>
        <time>2024-08-11T08:40:51Z</time>
      </trkpt>
      <trkpt lat="45.01339" lon="6.69021">
        <ele>2010.73</ele>
        <time>2024-08-11T08:41:21Z</time>
      </trkpt>
      <trkpt lat="45.01339" lon="6.69025">
        <ele>2011.22</ele>
        <time>2024-08-11T08:42:00Z</time>
      </trkpt>
      <trkpt lat="45.01333" lon="6.69029">
        <ele>2010.73</ele>
        <time>2024-08-11T08:42:31Z</time>
      </trkpt>
      <trkpt lat="45.01336" lon="6.69028">
        <ele>2011.22</ele>
        <time>2024-08-11T08:43:00Z</time>
      </trkpt>
      <trkpt lat="45.01337" lon="6.69023">
        <ele>2011.7</ele>
        <time>2024-08-11T08:43:25Z</time>
      </trkpt>
      <trkpt lat="45.01335" lon="6.69022">
        <ele>2011.7</ele>
        <time>2024-08-11T08:43:53Z</time>
      </trkpt>
      <trkpt lat="45.01333" lon="6.69022">
        <ele>2012.18</ele>
        <time>2024-08-11T08:44:16Z</time>
      </trkpt>
      <trkpt lat="45.01336" lon="6.6902">
        <ele>2012.18</ele>
        <time>2024-08-11T08:44:40Z</time>
      </trkpt>
      <trkpt lat="45.01337" lon="6.69018">
        <ele>2012.18</ele>
        <time>2024-08-11T08:45:06Z</time>
      </trkpt>
      <trkpt lat="45.01335" lon="6.69017">
        <ele>2012.66</ele>
        <time>2024-08-11T08:45:28Z</time>
      </trkpt>
      <trkpt lat="45.01336" lon="6.69018">
        <ele>2012.66</ele>
        <time>2024-08-11T08:45:54Z</time>
      </trkpt>
      <trkpt lat="45.01337" lon="6.69018">
        <ele>2013.14</ele>
        <time>2024-08-11T08:46:23Z</time>
      </trkpt>
      <trkpt lat="45.01336" lon="6.69016">
        <ele>2013.14</ele>
        <time>2024-08-11T08:46:45Z</time>
      </trkpt>
      <trkpt lat="45.01336" lon="6.69013">
        <ele>2013.14</ele>
        <time>2024-08-11T08:46:47Z</time>
      </trkpt>
      <trkpt lat="45.01335" lon="6.69009">
        <ele>2014.58</ele>
        <time>2024-08-11T08:46:50Z</time>
      </trkpt>
      <trkpt lat="45.01334" lon="6.69002">
        <ele>2014.58</ele>
        <time>2024-08-11T08:46:56Z</time>
      </trkpt>
      <trkpt lat="45.01333" lon="6.68993">
        <ele>2015.54</ele>
        <time>2024-08-11T08:47:02Z</time>
      </trkpt>
      <trkpt lat="45.01338" lon="6.68973">
        <ele>2019.39</ele>
        <time>2024-08-11T08:47:16Z</time>
      </trkpt>
      <trkpt lat="45.01339" lon="6.68973">
        <ele>2019.39</ele>
        <time>2024-08-11T08:47:17Z</time>
      </trkpt>
      <trkpt lat="45.01349" lon="6.68971">
        <ele>2022.27</ele>
        <time>2024-08-11T08:47:27Z</time>
      </trkpt>
      <trkpt lat="45.01352" lon="6.68969">
        <ele>2023.71</ele>
        <time>2024-08-11T08:47:36Z</time>
      </trkpt>
      <trkpt lat="45.01355" lon="6.68964">
        <ele>2025.64</ele>
        <time>2024-08-11T08:47:49Z</time>
      </trkpt>
      <trkpt lat="45.01356" lon="6.68959">
        <ele>2025.64</ele>
        <time>2024-08-11T08:48:03Z</time>
      </trkpt>
      <trkpt lat="45.0136" lon="6.68962">
        <ele>2026.6</ele>
        <time>2024-08-11T08:48:18Z</time>
      </trkpt>
      <trkpt lat="45.01366" lon="6.68967">
        <ele>2028.04</ele>
        <time>2024-08-11T08:48:31Z</time>
      </trkpt>
      <trkpt lat="45.01374" lon="6.68974">
        <ele>2030.44</ele>
        <time>2024-08-11T08:48:39Z</time>
      </trkpt>
      <trkpt lat="45.01383" lon="6.6898">
        <ele>2032.36</ele>
        <time>2024-08-11T08:48:47Z</time>
      </trkpt>
      <trkpt lat="45.01395" lon="6.68982">
        <ele>2035.73</ele>
        <time>2024-08-11T08:49:01Z</time>
      </trkpt>
      <trkpt lat="45.01399" lon="6.68983">
        <ele>2038.13</ele>
        <time>2024-08-11T08:49:15Z</time>
      </trkpt>
      <trkpt lat="45.01405" lon="6.68992">
        <ele>2040.54</ele>
        <time>2024-08-11T08:49:32Z</time>
      </trkpt>
      <trkpt lat="45.01409" lon="6.68999">
        <ele>2042.46</ele>
        <time>2024-08-11T08:49:47Z</time>
      </trkpt>
      <trkpt lat="45.01416" lon="6.69006">
        <ele>2045.82</ele>
        <time>2024-08-11T08:50:00Z</time>
      </trkpt>
      <trkpt lat="45.01423" lon="6.69009">
        <ele>2047.26</ele>
        <time>2024-08-11T08:50:10Z</time>
      </trkpt>
      <trkpt lat="45.01426" lon="6.69011">
        <ele>2047.26</ele>
        <time>2024-08-11T08:50:12Z</time>
      </trkpt>
      <trkpt lat="45.01439" lon="6.69016">
        <ele>2048.71</ele>
        <time>2024-08-11T08:50:22Z</time>
      </trkpt>
      <trkpt lat="45.0145" lon="6.69022">
        <ele>2051.11</ele>
        <time>2024-08-11T08:50:31Z</time>
      </trkpt>
      <trkpt lat="45.0146" lon="6.69045">
        <ele>2053.99</ele>
        <time>2024-08-11T08:50:46Z</time>
      </trkpt>
      <trkpt lat="45.01465" lon="6.69054">
        <ele>2054.96</ele>
        <time>2024-08-11T08:50:53Z</time>
      </trkpt>
      <trkpt lat="45.01467" lon="6.69056">
        <ele>2055.44</ele>
        <time>2024-08-11T08:50:56Z</time>
      </trkpt>
      <trkpt lat="45.01471" lon="6.69063">
        <ele>2056.4</ele>
        <time>2024-08-11T08:51:02Z</time>
      </trkpt>
      <trkpt lat="45.01473" lon="6.69065">
        <ele>2057.36</ele>
        <time>2024-08-11T08:51:04Z</time>
      </trkpt>
      <trkpt lat="45.01474" lon="6.69067">
        <ele>2057.84</ele>
        <time>2024-08-11T08:51:06Z</time>
      </trkpt>
      <trkpt lat="45.01477" lon="6.69071">
        <ele>2058.8</ele>
        <time>2024-08-11T08:51:09Z</time>
      </trkpt>
      <trkpt lat="45.0149" lon="6.69087">
        <ele>2062.17</ele>
        <time>2024-08-11T08:51:25Z</time>
      </trkpt>
      <trkpt lat="45.01496" lon="6.69091">
        <ele>2063.13</ele>
        <time>2024-08-11T08:51:36Z</time>
      </trkpt>
      <trkpt lat="45.01503" lon="6.69097">
        <ele>2066.01</ele>
        <time>2024-08-11T08:51:51Z</time>
      </trkpt>
      <trkpt lat="45.01507" lon="6.69095">
        <ele>2066.97</ele>
        <time>2024-08-11T08:52:06Z</time>
      </trkpt>
      <trkpt lat="45.01513" lon="6.69089">
        <ele>2069.38</ele>
        <time>2024-08-11T08:52:20Z</time>
      </trkpt>
      <trkpt lat="45.01524" lon="6.69087">
        <ele>2071.78</ele>
        <time>2024-08-11T08:52:37Z</time>
      </trkpt>
      <trkpt lat="45.01537" lon="6.69085">
        <ele>2074.66</ele>
        <time>2024-08-11T08:52:54Z</time>
      </trkpt>
      <trkpt lat="45.01545" lon="6.69092">
        <ele>2077.07</ele>
        <time>2024-08-11T08:53:11Z</time>
      </trkpt>
      <trkpt lat="45.01553" lon="6.69098">
        <ele>2079.95</ele>
        <time>2024-08-11T08:53:27Z</time>
      </trkpt>
      <trkpt lat="45.01561" lon="6.69104">
        <ele>2081.87</ele>
        <time>2024-08-11T08:53:42Z</time>
      </trkpt>
      <trkpt lat="45.01567" lon="6.69113">
        <ele>2085.24</ele>
        <time>2024-08-11T08:53:59Z</time>
      </trkpt>
      <trkpt lat="45.0157" lon="6.69123">
        <ele>2087.16</ele>
        <time>2024-08-11T08:54:16Z</time>
      </trkpt>
      <trkpt lat="45.01575" lon="6.6913">
        <ele>2089.08</ele>
        <time>2024-08-11T08:54:29Z</time>
      </trkpt>
      <trkpt lat="45.01579" lon="6.69145">
        <ele>2091.97</ele>
        <time>2024-08-11T08:54:45Z</time>
      </trkpt>
      <trkpt lat="45.01586" lon="6.69158">
        <ele>2094.37</ele>
        <time>2024-08-11T08:55:02Z</time>
      </trkpt>
      <trkpt lat="45.01591" lon="6.69159">
        <ele>2097.25</ele>
        <time>2024-08-11T08:55:16Z</time>
      </trkpt>
      <trkpt lat="45.01599" lon="6.69152">
        <ele>2099.18</ele>
        <time>2024-08-11T08:55:31Z</time>
      </trkpt>
      <trkpt lat="45.01606" lon="6.69143">
        <ele>2101.58</ele>
        <time>2024-08-11T08:55:47Z</time>
      </trkpt>
      <trkpt lat="45.01617" lon="6.6914">
        <ele>2104.46</ele>
        <time>2024-08-11T08:56:02Z</time>
      </trkpt>
      <trkpt lat="45.01622" lon="6.69149">
        <ele>2105.42</ele>
        <time>2024-08-11T08:56:16Z</time>
      </trkpt>
      <trkpt lat="45.01632" lon="6.69154">
        <ele>2106.87</ele>
        <time>2024-08-11T08:56:27Z</time>
      </trkpt>
      <trkpt lat="45.01634" lon="6.69155">
        <ele>2106.87</ele>
        <time>2024-08-11T08:56:29Z</time>
      </trkpt>
      <trkpt lat="45.01639" lon="6.69154">
        <ele>2108.31</ele>
        <time>2024-08-11T08:56:33Z</time>
      </trkpt>
      <trkpt lat="45.01643" lon="6.69155">
        <ele>2108.79</ele>
        <time>2024-08-11T08:56:37Z</time>
      </trkpt>
      <trkpt lat="45.01646" lon="6.69159">
        <ele>2109.27</ele>
        <time>2024-08-11T08:56:40Z</time>
      </trkpt>
      <trkpt lat="45.01651" lon="6.69168">
        <ele>2110.23</ele>
        <time>2024-08-11T08:56:46Z</time>
      </trkpt>
      <trkpt lat="45.01655" lon="6.69183">
        <ele>2112.63</ele>
        <time>2024-08-11T08:56:55Z</time>
      </trkpt>
      <trkpt lat="45.01659" lon="6.69194">
        <ele>2114.56</ele>
        <time>2024-08-11T08:57:04Z</time>
      </trkpt>
      <trkpt lat="45.01675" lon="6.69204">
        <ele>2117.44</ele>
        <time>2024-08-11T08:57:19Z</time>
      </trkpt>
      <trkpt lat="45.01677" lon="6.69209">
        <ele>2118.4</ele>
        <time>2024-08-11T08:57:25Z</time>
      </trkpt>
      <trkpt lat="45.01677" lon="6.69219">
        <ele>2119.84</ele>
        <time>2024-08-11T08:57:31Z</time>
      </trkpt>
      <trkpt lat="45.01683" lon="6.69228">
        <ele>2121.29</ele>
        <time>2024-08-11T08:57:40Z</time>
      </trkpt>
      <trkpt lat="45.01687" lon="6.69236">
        <ele>2121.77</ele>
        <time>2024-08-11T08:57:45Z</time>
      </trkpt>
      <trkpt lat="45.01701" lon="6.69255">
        <ele>2122.73</ele>
        <time>2024-08-11T08:57:58Z</time>
      </trkpt>
      <trkpt lat="45.01706" lon="6.69258">
        <ele>2123.21</ele>
        <time>2024-08-11T08:58:02Z</time>
      </trkpt>
      <trkpt lat="45.01727" lon="6.69263">
        <ele>2124.65</ele>
        <time>2024-08-11T08:58:17Z</time>
      </trkpt>
      <trkpt lat="45.0173" lon="6.69265">
        <ele>2125.61</ele>
        <time>2024-08-11T08:58:19Z</time>
      </trkpt>
      <trkpt lat="45.01732" lon="6.69268">
        <ele>2125.61</ele>
        <time>2024-08-11T08:58:21Z</time>
      </trkpt>
      <trkpt lat="45.01733" lon="6.69278">
        <ele>2127.05</ele>
        <time>2024-08-11T08:58:28Z</time>
      </trkpt>
      <trkpt lat="45.01737" lon="6.69284">
        <ele>2128.02</ele>
        <time>2024-08-11T08:58:32Z</time>
      </trkpt>
      <trkpt lat="45.01739" lon="6.69302">
        <ele>2130.9</ele>
        <time>2024-08-11T08:58:45Z</time>
      </trkpt>
      <trkpt lat="45.0174" lon="6.69305">
        <ele>2131.86</ele>
        <time>2024-08-11T08:58:47Z</time>
      </trkpt>
      <trkpt lat="45.01747" lon="6.69312">
        <ele>2132.34</ele>
        <time>2024-08-11T08:58:54Z</time>
      </trkpt>
      <trkpt lat="45.01759" lon="6.69315">
        <ele>2135.23</ele>
        <time>2024-08-11T08:59:07Z</time>
      </trkpt>
      <trkpt lat="45.01763" lon="6.69318">
        <ele>2136.19</ele>
        <time>2024-08-11T08:59:11Z</time>
      </trkpt>
      <trkpt lat="45.01765" lon="6.69322">
        <ele>2136.67</ele>
        <time>2024-08-11T08:59:14Z</time>
      </trkpt>
      <trkpt lat="45.01766" lon="6.69331">
        <ele>2138.11</ele>
        <time>2024-08-11T08:59:20Z</time>
      </trkpt>
      <trkpt lat="45.01771" lon="6.69336">
        <ele>2139.55</ele>
        <time>2024-08-11T08:59:34Z</time>
      </trkpt>
      <trkpt lat="45.01774" lon="6.69337">
        <ele>2140.03</ele>
        <time>2024-08-11T08:59:52Z</time>
      </trkpt>
      <trkpt lat="45.0178" lon="6.69332">
        <ele>2141.47</ele>
        <time>2024-08-11T08:59:58Z</time>
      </trkpt>
      <trkpt lat="45.01782" lon="6.69332">
        <ele>2141.95</ele>
        <time>2024-08-11T09:00:01Z</time>
      </trkpt>
      <trkpt lat="45.01782" lon="6.69342">
        <ele>2143.4</ele>
        <time>2024-08-11T09:00:08Z</time>
      </trkpt>
      <trkpt lat="45.01781" lon="6.69347">
        <ele>2144.84</ele>
        <time>2024-08-11T09:00:11Z</time>
      </trkpt>
      <trkpt lat="45.01782" lon="6.69372">
        <ele>2146.76</ele>
        <time>2024-08-11T09:00:26Z</time>
      </trkpt>
      <trkpt lat="45.01786" lon="6.69377">
        <ele>2148.2</ele>
        <time>2024-08-11T09:00:30Z</time>
      </trkpt>
      <trkpt lat="45.01787" lon="6.6938">
        <ele>2148.68</ele>
        <time>2024-08-11T09:00:32Z</time>
      </trkpt>
      <trkpt lat="45.01789" lon="6.69383">
        <ele>2148.68</ele>
        <time>2024-08-11T09:00:36Z</time>
      </trkpt>
      <trkpt lat="45.01795" lon="6.69401">
        <ele>2151.57</ele>
        <time>2024-08-11T09:00:49Z</time>
      </trkpt>
      <trkpt lat="45.01801" lon="6.6942">
        <ele>2154.45</ele>
        <time>2024-08-11T09:01:04Z</time>
      </trkpt>
      <trkpt lat="45.01801" lon="6.69422">
        <ele>2154.45</ele>
        <time>2024-08-11T09:01:17Z</time>
      </trkpt>
      <trkpt lat="45.01802" lon="6.69435">
        <ele>2156.86</ele>
        <time>2024-08-11T09:01:30Z</time>
      </trkpt>
      <trkpt lat="45.01803" lon="6.69449">
        <ele>2158.78</ele>
        <time>2024-08-11T09:01:48Z</time>
      </trkpt>
      <trkpt lat="45.01804" lon="6.69461">
        <ele>2160.22</ele>
        <time>2024-08-11T09:01:55Z</time>
      </trkpt>
      <trkpt lat="45.01803" lon="6.69486">
        <ele>2164.06</ele>
        <time>2024-08-11T09:02:10Z</time>
      </trkpt>
      <trkpt lat="45.01794" lon="6.69506">
        <ele>2165.03</ele>
        <time>2024-08-11T09:02:25Z</time>
      </trkpt>
      <trkpt lat="45.01788" lon="6.6952">
        <ele>2165.99</ele>
        <time>2024-08-11T09:02:37Z</time>
      </trkpt>
      <trkpt lat="45.0179" lon="6.69529">
        <ele>2167.43</ele>
        <time>2024-08-11T09:02:43Z</time>
      </trkpt>
      <trkpt lat="45.01792" lon="6.69532">
        <ele>2168.39</ele>
        <time>2024-08-11T09:02:46Z</time>
      </trkpt>
      <trkpt lat="45.01804" lon="6.69522">
        <ele>2170.79</ele>
        <time>2024-08-11T09:03:00Z</time>
      </trkpt>
      <trkpt lat="45.01809" lon="6.69518">
        <ele>2172.24</ele>
        <time>2024-08-11T09:03:06Z</time>
      </trkpt>
      <trkpt lat="45.0181" lon="6.69519">
        <ele>2172.24</ele>
        <time>2024-08-11T09:03:08Z</time>
      </trkpt>
      <trkpt lat="45.01809" lon="6.69533">
        <ele>2175.12</ele>
        <time>2024-08-11T09:03:21Z</time>
      </trkpt>
      <trkpt lat="45.01808" lon="6.69549">
        <ele>2176.56</ele>
        <time>2024-08-11T09:03:38Z</time>
      </trkpt>
      <trkpt lat="45.01814" lon="6.69548">
        <ele>2178.48</ele>
        <time>2024-08-11T09:03:52Z</time>
      </trkpt>
      <trkpt lat="45.01821" lon="6.69549">
        <ele>2180.41</ele>
        <time>2024-08-11T09:04:05Z</time>
      </trkpt>
      <trkpt lat="45.01821" lon="6.69557">
        <ele>2182.81</ele>
        <time>2024-08-11T09:04:19Z</time>
      </trkpt>
      <trkpt lat="45.01826" lon="6.69569">
        <ele>2185.21</ele>
        <time>2024-08-11T09:04:34Z</time>
      </trkpt>
      <trkpt lat="45.01834" lon="6.69578">
        <ele>2188.1</ele>
        <time>2024-08-11T09:04:50Z</time>
      </trkpt>
      <trkpt lat="45.01837" lon="6.69573">
        <ele>2189.06</ele>
        <time>2024-08-11T09:05:03Z</time>
      </trkpt>
      <trkpt lat="45.0184" lon="6.69578">
        <ele>2190.98</ele>
        <time>2024-08-11T09:05:18Z</time>
      </trkpt>
      <trkpt lat="45.01842" lon="6.6958">
        <ele>2190.98</ele>
        <time>2024-08-11T09:05:21Z</time>
      </trkpt>
      <trkpt lat="45.01849" lon="6.69589">
        <ele>2192.9</ele>
        <time>2024-08-11T09:05:37Z</time>
      </trkpt>
      <trkpt lat="45.01852" lon="6.69607">
        <ele>2194.83</ele>
        <time>2024-08-11T09:05:48Z</time>
      </trkpt>
      <trkpt lat="45.01858" lon="6.69628">
        <ele>2198.19</ele>
        <time>2024-08-11T09:06:04Z</time>
      </trkpt>
      <trkpt lat="45.01864" lon="6.69645">
        <ele>2200.59</ele>
        <time>2024-08-11T09:06:19Z</time>
      </trkpt>
      <trkpt lat="45.0187" lon="6.69662">
        <ele>2203</ele>
        <time>2024-08-11T09:06:33Z</time>
      </trkpt>
      <trkpt lat="45.01874" lon="6.69673">
        <ele>2204.92</ele>
        <time>2024-08-11T09:06:47Z</time>
      </trkpt>
      <trkpt lat="45.01876" lon="6.69689">
        <ele>2207.32</ele>
        <time>2024-08-11T09:07:02Z</time>
      </trkpt>
      <trkpt lat="45.01876" lon="6.69702">
        <ele>2209.25</ele>
        <time>2024-08-11T09:07:17Z</time>
      </trkpt>
      <trkpt lat="45.01879" lon="6.69714">
        <ele>2212.13</ele>
        <time>2024-08-11T09:07:33Z</time>
      </trkpt>
      <trkpt lat="45.01884" lon="6.69726">
        <ele>2213.57</ele>
        <time>2024-08-11T09:07:48Z</time>
      </trkpt>
      <trkpt lat="45.01883" lon="6.69736">
        <ele>2214.05</ele>
        <time>2024-08-11T09:08:03Z</time>
      </trkpt>
      <trkpt lat="45.01884" lon="6.69733">
        <ele>2214.05</ele>
        <time>2024-08-11T09:08:27Z</time>
      </trkpt>
      <trkpt lat="45.01883" lon="6.69741">
        <ele>2215.01</ele>
        <time>2024-08-11T09:08:44Z</time>
      </trkpt>
      <trkpt lat="45.01884" lon="6.69759">
        <ele>2217.42</ele>
        <time>2024-08-11T09:09:02Z</time>
      </trkpt>
      <trkpt lat="45.01885" lon="6.6977">
        <ele>2219.82</ele>
        <time>2024-08-11T09:09:17Z</time>
      </trkpt>
      <trkpt lat="45.01885" lon="6.69782">
        <ele>2222.22</ele>
        <time>2024-08-11T09:09:31Z</time>
      </trkpt>
      <trkpt lat="45.01891" lon="6.69789">
        <ele>2224.15</ele>
        <time>2024-08-11T09:09:44Z</time>
      </trkpt>
      <trkpt lat="45.01898" lon="6.69798">
        <ele>2226.55</ele>
        <time>2024-08-11T09:10:02Z</time>
      </trkpt>
      <trkpt lat="45.01903" lon="6.69786">
        <ele>2227.99</ele>
        <time>2024-08-11T09:10:16Z</time>
      </trkpt>
      <trkpt lat="45.01912" lon="6.69779">
        <ele>2230.4</ele>
        <time>2024-08-11T09:10:31Z</time>
      </trkpt>
      <trkpt lat="45.01914" lon="6.69798">
        <ele>2232.32</ele>
        <time>2024-08-11T09:10:48Z</time>
      </trkpt>
      <trkpt lat="45.01914" lon="6.6981">
        <ele>2234.72</ele>
        <time>2024-08-11T09:11:02Z</time>
      </trkpt>
      <trkpt lat="45.01916" lon="6.69816">
        <ele>2236.64</ele>
        <time>2024-08-11T09:11:13Z</time>
      </trkpt>
      <trkpt lat="45.01926" lon="6.69829">
        <ele>2237.13</ele>
        <time>2024-08-11T09:11:30Z</time>
      </trkpt>
      <trkpt lat="45.01928" lon="6.69831">
        <ele>2238.09</ele>
        <time>2024-08-11T09:11:33Z</time>
      </trkpt>
      <trkpt lat="45.01932" lon="6.69826">
        <ele>2239.05</ele>
        <time>2024-08-11T09:11:39Z</time>
      </trkpt>
      <trkpt lat="45.01934" lon="6.6982">
        <ele>2239.05</ele>
        <time>2024-08-11T09:11:44Z</time>
      </trkpt>
      <trkpt lat="45.01941" lon="6.69805">
        <ele>2241.93</ele>
        <time>2024-08-11T09:12:01Z</time>
      </trkpt>
      <trkpt lat="45.01942" lon="6.69809">
        <ele>2242.89</ele>
        <time>2024-08-11T09:12:05Z</time>
      </trkpt>
      <trkpt lat="45.01946" lon="6.69827">
        <ele>2245.3</ele>
        <time>2024-08-11T09:12:22Z</time>
      </trkpt>
      <trkpt lat="45.01949" lon="6.69839">
        <ele>2248.18</ele>
        <time>2024-08-11T09:12:36Z</time>
      </trkpt>
      <trkpt lat="45.0195" lon="6.69853">
        <ele>2249.62</ele>
        <time>2024-08-11T09:12:52Z</time>
      </trkpt>
      <trkpt lat="45.01948" lon="6.69869">
        <ele>2252.99</ele>
        <time>2024-08-11T09:13:08Z</time>
      </trkpt>
      <trkpt lat="45.01951" lon="6.69874">
        <ele>2254.43</ele>
        <time>2024-08-11T09:13:22Z</time>
      </trkpt>
      <trkpt lat="45.01958" lon="6.69863">
        <ele>2257.31</ele>
        <time>2024-08-11T09:13:41Z</time>
      </trkpt>
      <trkpt lat="45.01958" lon="6.69872">
        <ele>2260.2</ele>
        <time>2024-08-11T09:13:49Z</time>
      </trkpt>
      <trkpt lat="45.0196" lon="6.69885">
        <ele>2261.16</ele>
        <time>2024-08-11T09:14:01Z</time>
      </trkpt>
      <trkpt lat="45.01956" lon="6.69908">
        <ele>2263.56</ele>
        <time>2024-08-11T09:14:21Z</time>
      </trkpt>
      <trkpt lat="45.01961" lon="6.69909">
        <ele>2265</ele>
        <time>2024-08-11T09:14:34Z</time>
      </trkpt>
      <trkpt lat="45.01962" lon="6.69908">
        <ele>2265</ele>
        <time>2024-08-11T09:14:35Z</time>
      </trkpt>
      <trkpt lat="45.01968" lon="6.69899">
        <ele>2266.45</ele>
        <time>2024-08-11T09:14:53Z</time>
      </trkpt>
      <trkpt lat="45.01974" lon="6.69883">
        <ele>2267.41</ele>
        <time>2024-08-11T09:15:05Z</time>
      </trkpt>
      <trkpt lat="45.01978" lon="6.69875">
        <ele>2267.89</ele>
        <time>2024-08-11T09:15:10Z</time>
      </trkpt>
      <trkpt lat="45.01978" lon="6.69887">
        <ele>2269.81</ele>
        <time>2024-08-11T09:15:20Z</time>
      </trkpt>
      <trkpt lat="45.01979" lon="6.69889">
        <ele>2269.81</ele>
        <time>2024-08-11T09:15:21Z</time>
      </trkpt>
      <trkpt lat="45.0198" lon="6.69893">
        <ele>2269.81</ele>
        <time>2024-08-11T09:15:23Z</time>
      </trkpt>
      <trkpt lat="45.01979" lon="6.69907">
        <ele>2271.25</ele>
        <time>2024-08-11T09:15:30Z</time>
      </trkpt>
      <trkpt lat="45.01979" lon="6.69929">
        <ele>2275.1</ele>
        <time>2024-08-11T09:15:43Z</time>
      </trkpt>
      <trkpt lat="45.01984" lon="6.69933">
        <ele>2276.06</ele>
        <time>2024-08-11T09:15:48Z</time>
      </trkpt>
      <trkpt lat="45.01998" lon="6.69918">
        <ele>2278.94</ele>
        <time>2024-08-11T09:16:04Z</time>
      </trkpt>
      <trkpt lat="45.02002" lon="6.69913">
        <ele>2279.9</ele>
        <time>2024-08-11T09:16:08Z</time>
      </trkpt>
      <trkpt lat="45.02006" lon="6.69901">
        <ele>2281.35</ele>
        <time>2024-08-11T09:16:16Z</time>
      </trkpt>
      <trkpt lat="45.02007" lon="6.69899">
        <ele>2281.35</ele>
        <time>2024-08-11T09:16:18Z</time>
      </trkpt>
      <trkpt lat="45.02011" lon="6.6989">
        <ele>2282.31</ele>
        <time>2024-08-11T09:16:32Z</time>
      </trkpt>
      <trkpt lat="45.02014" lon="6.69888">
        <ele>2281.83</ele>
        <time>2024-08-11T09:16:57Z</time>
      </trkpt>
      <trkpt lat="45.02013" lon="6.69886">
        <ele>2282.31</ele>
        <time>2024-08-11T09:17:16Z</time>
      </trkpt>
      <trkpt lat="45.02012" lon="6.69885">
        <ele>2283.75</ele>
        <time>2024-08-11T09:17:24Z</time>
      </trkpt>
      <trkpt lat="45.02011" lon="6.69887">
        <ele>2282.31</ele>
        <time>2024-08-11T09:17:36Z</time>
      </trkpt>
      <trkpt lat="45.02011" lon="6.69888">
        <ele>2283.75</ele>
        <time>2024-08-11T09:17:56Z</time>
      </trkpt>
      <trkpt lat="45.02011" lon="6.69885">
        <ele>2283.75</ele>
        <time>2024-08-11T09:18:39Z</time>
      </trkpt>
      <trkpt lat="45.02011" lon="6.69888">
        <ele>2283.75</ele>
        <time>2024-08-11T09:19:21Z</time>
      </trkpt>
      <trkpt lat="45.02011" lon="6.69886">
        <ele>2283.75</ele>
        <time>2024-08-11T09:20:07Z</time>
      </trkpt>
      <trkpt lat="45.0201" lon="6.69885">
        <ele>2284.23</ele>
        <time>2024-08-11T09:20:58Z</time>
      </trkpt>
      <trkpt lat="45.0201" lon="6.69887">
        <ele>2284.23</ele>
        <time>2024-08-11T09:21:20Z</time>
      </trkpt>
      <trkpt lat="45.02011" lon="6.69886">
        <ele>2283.75</ele>
        <time>2024-08-11T09:22:07Z</time>
      </trkpt>
      <trkpt lat="45.0201" lon="6.69885">
        <ele>2285.19</ele>
        <time>2024-08-11T09:22:17Z</time>
      </trkpt>
      <trkpt lat="45.02011" lon="6.69886">
        <ele>2283.75</ele>
        <time>2024-08-11T09:22:33Z</time>
      </trkpt>
      <trkpt lat="45.0201" lon="6.69886">
        <ele>2284.71</ele>
        <time>2024-08-11T09:23:26Z</time>
      </trkpt>
      <trkpt lat="45.02011" lon="6.69886">
        <ele>2285.67</ele>
        <time>2024-08-11T09:24:03Z</time>
      </trkpt>
      <trkpt lat="45.0201" lon="6.69886">
        <ele>2286.15</ele>
        <time>2024-08-11T09:24:37Z</time>
      </trkpt>
      <trkpt lat="45.0201" lon="6.69886">
        <ele>2284.71</ele>
        <time>2024-08-11T09:24:43Z</time>
      </trkpt>
      <trkpt lat="45.02011" lon="6.69885">
        <ele>2284.71</ele>
        <time>2024-08-11T09:25:15Z</time>
      </trkpt>
      <trkpt lat="45.02011" lon="6.69885">
        <ele>2282.79</ele>
        <time>2024-08-11T09:25:25Z</time>
      </trkpt>
      <trkpt lat="45.02013" lon="6.69885">
        <ele>2282.79</ele>
        <time>2024-08-11T09:25:43Z</time>
      </trkpt>
      <trkpt lat="45.02014" lon="6.69875">
        <ele>2282.79</ele>
        <time>2024-08-11T09:26:03Z</time>
      </trkpt>
      <trkpt lat="45.02015" lon="6.69867">
        <ele>2284.71</ele>
        <time>2024-08-11T09:26:05Z</time>
      </trkpt>
      <trkpt lat="45.02016" lon="6.69856">
        <ele>2282.79</ele>
        <time>2024-08-11T09:26:07Z</time>
      </trkpt>
      <trkpt lat="45.02018" lon="6.69851">
        <ele>2282.79</ele>
        <time>2024-08-11T09:26:08Z</time>
      </trkpt>
      <trkpt lat="45.0202" lon="6.69843">
        <ele>2282.79</ele>
        <time>2024-08-11T09:26:09Z</time>
      </trkpt>
      <trkpt lat="45.02022" lon="6.69833">
        <ele>2281.83</ele>
        <time>2024-08-11T09:26:10Z</time>
      </trkpt>
      <trkpt lat="45.02025" lon="6.69822">
        <ele>2280.87</ele>
        <time>2024-08-11T09:26:11Z</time>
      </trkpt>
      <trkpt lat="45.02029" lon="6.69814">
        <ele>2280.87</ele>
        <time>2024-08-11T09:26:12Z</time>
      </trkpt>
      <trkpt lat="45.02032" lon="6.69808">
        <ele>2279.42</ele>
        <time>2024-08-11T09:26:13Z</time>
      </trkpt>
      <trkpt lat="45.02036" lon="6.69803">
        <ele>2279.42</ele>
        <time>2024-08-11T09:26:14Z</time>
      </trkpt>
      <trkpt lat="45.02042" lon="6.69791">
        <ele>2278.94</ele>
        <time>2024-08-11T09:26:17Z</time>
      </trkpt>
      <trkpt lat="45.02044" lon="6.69784">
        <ele>2278.94</ele>
        <time>2024-08-11T09:26:18Z</time>
      </trkpt>
      <trkpt lat="45.02046" lon="6.69777">
        <ele>2278.46</ele>
        <time>2024-08-11T09:26:19Z</time>
      </trkpt>
      <trkpt lat="45.02047" lon="6.69769">
        <ele>2278.46</ele>
        <time>2024-08-11T09:26:20Z</time>
      </trkpt>
      <trkpt lat="45.02049" lon="6.69762">
        <ele>2278.46</ele>
        <time>2024-08-11T09:26:21Z</time>
      </trkpt>
      <trkpt lat="45.02052" lon="6.69756">
        <ele>2277.98</ele>
        <time>2024-08-11T09:26:22Z</time>
      </trkpt>
      <trkpt lat="45.02056" lon="6.69753">
        <ele>2278.94</ele>
        <time>2024-08-11T09:26:23Z</time>
      </trkpt>
      <trkpt lat="45.0206" lon="6.6975">
        <ele>2279.9</ele>
        <time>2024-08-11T09:26:24Z</time>
      </trkpt>
      <trkpt lat="45.02064" lon="6.69747">
        <ele>2278.46</ele>
        <time>2024-08-11T09:26:25Z</time>
      </trkpt>
      <trkpt lat="45.02068" lon="6.69743">
        <ele>2275.58</ele>
        <time>2024-08-11T09:26:26Z</time>
      </trkpt>
      <trkpt lat="45.02071" lon="6.69738">
        <ele>2272.69</ele>
        <time>2024-08-11T09:26:27Z</time>
      </trkpt>
      <trkpt lat="45.02074" lon="6.69733">
        <ele>2271.73</ele>
        <time>2024-08-11T09:26:28Z</time>
      </trkpt>
      <trkpt lat="45.02077" lon="6.69726">
        <ele>2270.29</ele>
        <time>2024-08-11T09:26:29Z</time>
      </trkpt>
      <trkpt lat="45.0208" lon="6.6971">
        <ele>2268.85</ele>
        <time>2024-08-11T09:26:31Z</time>
      </trkpt>
      <trkpt lat="45.02082" lon="6.697">
        <ele>2268.37</ele>
        <time>2024-08-11T09:26:32Z</time>
      </trkpt>
      <trkpt lat="45.02084" lon="6.69692">
        <ele>2268.37</ele>
        <time>2024-08-11T09:26:33Z</time>
      </trkpt>
      <trkpt lat="45.02088" lon="6.69675">
        <ele>2269.81</ele>
        <time>2024-08-11T09:26:38Z</time>
      </trkpt>
      <trkpt lat="45.02088" lon="6.69664">
        <ele>2272.69</ele>
        <time>2024-08-11T09:26:44Z</time>
      </trkpt>
      <trkpt lat="45.02089" lon="6.69663">
        <ele>2272.69</ele>
        <time>2024-08-11T09:26:45Z</time>
      </trkpt>
      <trkpt lat="45.0209" lon="6.69662">
        <ele>2273.17</ele>
        <time>2024-08-11T09:26:46Z</time>
      </trkpt>
      <trkpt lat="45.0209" lon="6.6966">
        <ele>2273.17</ele>
        <time>2024-08-11T09:26:47Z</time>
      </trkpt>
      <trkpt lat="45.0209" lon="6.69657">
        <ele>2273.17</ele>
        <time>2024-08-11T09:26:48Z</time>
      </trkpt>
      <trkpt lat="45.02091" lon="6.69655">
        <ele>2273.17</ele>
        <time>2024-08-11T09:26:49Z</time>
      </trkpt>
      <trkpt lat="45.02092" lon="6.69615">
        <ele>2269.81</ele>
        <time>2024-08-11T09:27:01Z</time>
      </trkpt>
      <trkpt lat="45.02094" lon="6.69601">
        <ele>2268.85</ele>
        <time>2024-08-11T09:27:03Z</time>
      </trkpt>
      <trkpt lat="45.02096" lon="6.69595">
        <ele>2267.89</ele>
        <time>2024-08-11T09:27:04Z</time>
      </trkpt>
      <trkpt lat="45.02099" lon="6.69589">
        <ele>2267.41</ele>
        <time>2024-08-11T09:27:05Z</time>
      </trkpt>
      <trkpt lat="45.02102" lon="6.69584">
        <ele>2265.96</ele>
        <time>2024-08-11T09:27:06Z</time>
      </trkpt>
      <trkpt lat="45.02105" lon="6.69579">
        <ele>2265</ele>
        <time>2024-08-11T09:27:07Z</time>
      </trkpt>
      <trkpt lat="45.0211" lon="6.69572">
        <ele>2262.6</ele>
        <time>2024-08-11T09:27:10Z</time>
      </trkpt>
      <trkpt lat="45.02111" lon="6.69574">
        <ele>2262.12</ele>
        <time>2024-08-11T09:27:14Z</time>
      </trkpt>
      <trkpt lat="45.02112" lon="6.69577">
        <ele>2261.64</ele>
        <time>2024-08-11T09:27:15Z</time>
      </trkpt>
      <trkpt lat="45.02112" lon="6.69579">
        <ele>2262.12</ele>
        <time>2024-08-11T09:27:16Z</time>
      </trkpt>
      <trkpt lat="45.02111" lon="6.69597">
        <ele>2260.2</ele>
        <time>2024-08-11T09:27:20Z</time>
      </trkpt>
      <trkpt lat="45.02112" lon="6.69602">
        <ele>2260.2</ele>
        <time>2024-08-11T09:27:21Z</time>
      </trkpt>
      <trkpt lat="45.02113" lon="6.69609">
        <ele>2260.2</ele>
        <time>2024-08-11T09:27:23Z</time>
      </trkpt>
      <trkpt lat="45.02115" lon="6.69607">
        <ele>2259.72</ele>
        <time>2024-08-11T09:27:24Z</time>
      </trkpt>
      <trkpt lat="45.02121" lon="6.69586">
        <ele>2255.87</ele>
        <time>2024-08-11T09:27:27Z</time>
      </trkpt>
      <trkpt lat="45.02124" lon="6.69581">
        <ele>2255.39</ele>
        <time>2024-08-11T09:27:28Z</time>
      </trkpt>
      <trkpt lat="45.02125" lon="6.69575">
        <ele>2253.95</ele>
        <time>2024-08-11T09:27:29Z</time>
      </trkpt>
      <trkpt lat="45.02128" lon="6.6957">
        <ele>2252.51</ele>
        <time>2024-08-11T09:27:30Z</time>
      </trkpt>
      <trkpt lat="45.02129" lon="6.69566">
        <ele>2252.03</ele>
        <time>2024-08-11T09:27:31Z</time>
      </trkpt>
      <trkpt lat="45.0213" lon="6.69563">
        <ele>2251.06</ele>
        <time>2024-08-11T09:27:32Z</time>
      </trkpt>
      <trkpt lat="45.02132" lon="6.69558">
        <ele>2250.1</ele>
        <time>2024-08-11T09:27:33Z</time>
      </trkpt>
      <trkpt lat="45.02134" lon="6.69553">
        <ele>2250.1</ele>
        <time>2024-08-11T09:27:34Z</time>
      </trkpt>
      <trkpt lat="45.02135" lon="6.69547">
        <ele>2247.7</ele>
        <time>2024-08-11T09:27:35Z</time>
      </trkpt>
      <trkpt lat="45.02136" lon="6.69542">
        <ele>2247.22</ele>
        <time>2024-08-11T09:27:36Z</time>
      </trkpt>
      <trkpt lat="45.02136" lon="6.69536">
        <ele>2246.26</ele>
        <time>2024-08-11T09:27:37Z</time>
      </trkpt>
      <trkpt lat="45.02137" lon="6.69531">
        <ele>2245.78</ele>
        <time>2024-08-11T09:27:38Z</time>
      </trkpt>
      <trkpt lat="45.02138" lon="6.69526">
        <ele>2244.82</ele>
        <time>2024-08-11T09:27:39Z</time>
      </trkpt>
      <trkpt lat="45.02143" lon="6.69506">
        <ele>2240.49</ele>
        <time>2024-08-11T09:27:43Z</time>
      </trkpt>
      <trkpt lat="45.02145" lon="6.695">
        <ele>2239.53</ele>
        <time>2024-08-11T09:27:44Z</time>
      </trkpt>
      <trkpt lat="45.02147" lon="6.69494">
        <ele>2238.57</ele>
        <time>2024-08-11T09:27:45Z</time>
      </trkpt>
      <trkpt lat="45.02149" lon="6.69488">
        <ele>2237.13</ele>
        <time>2024-08-11T09:27:46Z</time>
      </trkpt>
      <trkpt lat="45.02149" lon="6.6948">
        <ele>2235.68</ele>
        <time>2024-08-11T09:27:47Z</time>
      </trkpt>
      <trkpt lat="45.02151" lon="6.69474">
        <ele>2234.72</ele>
        <time>2024-08-11T09:27:48Z</time>
      </trkpt>
      <trkpt lat="45.02155" lon="6.69467">
        <ele>2233.28</ele>
        <time>2024-08-11T09:27:50Z</time>
      </trkpt>
      <trkpt lat="45.02157" lon="6.69463">
        <ele>2231.84</ele>
        <time>2024-08-11T09:27:51Z</time>
      </trkpt>
      <trkpt lat="45.02158" lon="6.69458">
        <ele>2231.36</ele>
        <time>2024-08-11T09:27:52Z</time>
      </trkpt>
      <trkpt lat="45.0216" lon="6.69454">
        <ele>2230.4</ele>
        <time>2024-08-11T09:27:53Z</time>
      </trkpt>
      <trkpt lat="45.02163" lon="6.6945">
        <ele>2229.43</ele>
        <time>2024-08-11T09:27:54Z</time>
      </trkpt>
      <trkpt lat="45.02165" lon="6.69445">
        <ele>2228.47</ele>
        <time>2024-08-11T09:27:55Z</time>
      </trkpt>
      <trkpt lat="45.02168" lon="6.6944">
        <ele>2227.51</ele>
        <time>2024-08-11T09:27:56Z</time>
      </trkpt>
      <trkpt lat="45.02171" lon="6.69435">
        <ele>2226.07</ele>
        <time>2024-08-11T09:27:57Z</time>
      </trkpt>
      <trkpt lat="45.02172" lon="6.6943">
        <ele>2225.59</ele>
        <time>2024-08-11T09:27:58Z</time>
      </trkpt>
      <trkpt lat="45.02174" lon="6.69428">
        <ele>2224.63</ele>
        <time>2024-08-11T09:27:59Z</time>
      </trkpt>
      <trkpt lat="45.02176" lon="6.69425">
        <ele>2223.19</ele>
        <time>2024-08-11T09:28:00Z</time>
      </trkpt>
      <trkpt lat="45.02178" lon="6.6942">
        <ele>2222.22</ele>
        <time>2024-08-11T09:28:01Z</time>
      </trkpt>
      <trkpt lat="45.0218" lon="6.69414">
        <ele>2221.26</ele>
        <time>2024-08-11T09:28:02Z</time>
      </trkpt>
      <trkpt lat="45.02183" lon="6.69407">
        <ele>2220.3</ele>
        <time>2024-08-11T09:28:03Z</time>
      </trkpt>
      <trkpt lat="45.02188" lon="6.69395">
        <ele>2218.38</ele>
        <time>2024-08-11T09:28:05Z</time>
      </trkpt>
      <trkpt lat="45.02194" lon="6.69374">
        <ele>2215.5</ele>
        <time>2024-08-11T09:28:08Z</time>
      </trkpt>
      <trkpt lat="45.02197" lon="6.69368">
        <ele>2215.01</ele>
        <time>2024-08-11T09:28:09Z</time>
      </trkpt>
      <trkpt lat="45.02206" lon="6.69348">
        <ele>2211.65</ele>
        <time>2024-08-11T09:28:12Z</time>
      </trkpt>
      <trkpt lat="45.02209" lon="6.69334">
        <ele>2210.69</ele>
        <time>2024-08-11T09:28:14Z</time>
      </trkpt>
      <trkpt lat="45.02209" lon="6.69327">
        <ele>2210.21</ele>
        <time>2024-08-11T09:28:15Z</time>
      </trkpt>
      <trkpt lat="45.02209" lon="6.69321">
        <ele>2209.25</ele>
        <time>2024-08-11T09:28:16Z</time>
      </trkpt>
      <trkpt lat="45.02208" lon="6.69315">
        <ele>2208.77</ele>
        <time>2024-08-11T09:28:17Z</time>
      </trkpt>
      <trkpt lat="45.02208" lon="6.69309">
        <ele>2206.84</ele>
        <time>2024-08-11T09:28:18Z</time>
      </trkpt>
      <trkpt lat="45.02209" lon="6.69306">
        <ele>2207.32</ele>
        <time>2024-08-11T09:28:19Z</time>
      </trkpt>
      <trkpt lat="45.0221" lon="6.69303">
        <ele>2206.36</ele>
        <time>2024-08-11T09:28:20Z</time>
      </trkpt>
      <trkpt lat="45.02208" lon="6.69302">
        <ele>2206.84</ele>
        <time>2024-08-11T09:28:32Z</time>
      </trkpt>
      <trkpt lat="45.02208" lon="6.69299">
        <ele>2206.84</ele>
        <time>2024-08-11T09:28:59Z</time>
      </trkpt>
      <trkpt lat="45.02207" lon="6.69297">
        <ele>2206.84</ele>
        <time>2024-08-11T09:29:01Z</time>
      </trkpt>
      <trkpt lat="45.02203" lon="6.69287">
        <ele>2206.36</ele>
        <time>2024-08-11T09:29:14Z</time>
      </trkpt>
      <trkpt lat="45.02199" lon="6.69264">
        <ele>2206.36</ele>
        <time>2024-08-11T09:29:19Z</time>
      </trkpt>
      <trkpt lat="45.022" lon="6.69259">
        <ele>2206.36</ele>
        <time>2024-08-11T09:29:20Z</time>
      </trkpt>
      <trkpt lat="45.022" lon="6.69248">
        <ele>2204.92</ele>
        <time>2024-08-11T09:29:22Z</time>
      </trkpt>
      <trkpt lat="45.02202" lon="6.69242">
        <ele>2204.44</ele>
        <time>2024-08-11T09:29:23Z</time>
      </trkpt>
      <trkpt lat="45.02205" lon="6.69236">
        <ele>2204.44</ele>
        <time>2024-08-11T09:29:24Z</time>
      </trkpt>
      <trkpt lat="45.02207" lon="6.69231">
        <ele>2204.44</ele>
        <time>2024-08-11T09:29:25Z</time>
      </trkpt>
      <trkpt lat="45.0221" lon="6.69228">
        <ele>2204.44</ele>
        <time>2024-08-11T09:29:26Z</time>
      </trkpt>
      <trkpt lat="45.02213" lon="6.69226">
        <ele>2204.44</ele>
        <time>2024-08-11T09:29:27Z</time>
      </trkpt>
      <trkpt lat="45.02216" lon="6.69225">
        <ele>2204.44</ele>
        <time>2024-08-11T09:29:28Z</time>
      </trkpt>
      <trkpt lat="45.02219" lon="6.69223">
        <ele>2204.44</ele>
        <time>2024-08-11T09:29:29Z</time>
      </trkpt>
      <trkpt lat="45.02222" lon="6.69223">
        <ele>2205.88</ele>
        <time>2024-08-11T09:29:30Z</time>
      </trkpt>
      <trkpt lat="45.02225" lon="6.69221">
        <ele>2205.88</ele>
        <time>2024-08-11T09:29:31Z</time>
      </trkpt>
      <trkpt lat="45.02241" lon="6.69218">
        <ele>2208.29</ele>
        <time>2024-08-11T09:29:36Z</time>
      </trkpt>
      <trkpt lat="45.0225" lon="6.69217">
        <ele>2208.77</ele>
        <time>2024-08-11T09:29:40Z</time>
      </trkpt>
      <trkpt lat="45.0225" lon="6.69214">
        <ele>2208.77</ele>
        <time>2024-08-11T09:29:41Z</time>
      </trkpt>
      <trkpt lat="45.02251" lon="6.69209">
        <ele>2207.32</ele>
        <time>2024-08-11T09:29:42Z</time>
      </trkpt>
      <trkpt lat="45.02253" lon="6.69207">
        <ele>2206.84</ele>
        <time>2024-08-11T09:29:43Z</time>
      </trkpt>
      <trkpt lat="45.02256" lon="6.69206">
        <ele>2206.36</ele>
        <time>2024-08-11T09:29:44Z</time>
      </trkpt>
      <trkpt lat="45.02258" lon="6.69206">
        <ele>2206.36</ele>
        <time>2024-08-11T09:29:45Z</time>
      </trkpt>
      <trkpt lat="45.0226" lon="6.69205">
        <ele>2206.36</ele>
        <time>2024-08-11T09:29:46Z</time>
      </trkpt>
      <trkpt lat="45.02282" lon="6.69205">
        <ele>2208.29</ele>
        <time>2024-08-11T09:29:55Z</time>
      </trkpt>
      <trkpt lat="45.02296" lon="6.69197">
        <ele>2208.29</ele>
        <time>2024-08-11T09:30:01Z</time>
      </trkpt>
      <trkpt lat="45.02298" lon="6.69195">
        <ele>2208.29</ele>
        <time>2024-08-11T09:30:02Z</time>
      </trkpt>
      <trkpt lat="45.02302" lon="6.69193">
        <ele>2206.84</ele>
        <time>2024-08-11T09:30:03Z</time>
      </trkpt>
      <trkpt lat="45.02306" lon="6.69191">
        <ele>2206.36</ele>
        <time>2024-08-11T09:30:04Z</time>
      </trkpt>
      <trkpt lat="45.02309" lon="6.6919">
        <ele>2206.36</ele>
        <time>2024-08-11T09:30:05Z</time>
      </trkpt>
      <trkpt lat="45.02313" lon="6.69191">
        <ele>2206.36</ele>
        <time>2024-08-11T09:30:06Z</time>
      </trkpt>
      <trkpt lat="45.02316" lon="6.69192">
        <ele>2206.36</ele>
        <time>2024-08-11T09:30:07Z</time>
      </trkpt>
      <trkpt lat="45.02319" lon="6.69192">
        <ele>2206.36</ele>
        <time>2024-08-11T09:30:08Z</time>
      </trkpt>
      <trkpt lat="45.02322" lon="6.69191">
        <ele>2206.36</ele>
        <time>2024-08-11T09:30:09Z</time>
      </trkpt>
      <trkpt lat="45.02325" lon="6.6919">
        <ele>2206.36</ele>
        <time>2024-08-11T09:30:10Z</time>
      </trkpt>
      <trkpt lat="45.02326" lon="6.6919">
        <ele>2206.36</ele>
        <time>2024-08-11T09:30:11Z</time>
      </trkpt>
      <trkpt lat="45.02328" lon="6.69189">
        <ele>2206.36</ele>
        <time>2024-08-11T09:30:12Z</time>
      </trkpt>
      <trkpt lat="45.0233" lon="6.69189">
        <ele>2206.36</ele>
        <time>2024-08-11T09:30:13Z</time>
      </trkpt>
      <trkpt lat="45.0234" lon="6.69185">
        <ele>2208.77</ele>
        <time>2024-08-11T09:30:19Z</time>
      </trkpt>
      <trkpt lat="45.02342" lon="6.69186">
        <ele>2208.77</ele>
        <time>2024-08-11T09:30:20Z</time>
      </trkpt>
      <trkpt lat="45.02344" lon="6.69186">
        <ele>2208.77</ele>
        <time>2024-08-11T09:30:21Z</time>
      </trkpt>
      <trkpt lat="45.02346" lon="6.69187">
        <ele>2208.77</ele>
        <time>2024-08-11T09:30:22Z</time>
      </trkpt>
      <trkpt lat="45.02349" lon="6.69188">
        <ele>2208.77</ele>
        <time>2024-08-11T09:30:23Z</time>
      </trkpt>
      <trkpt lat="45.02351" lon="6.69189">
        <ele>2208.77</ele>
        <time>2024-08-11T09:30:24Z</time>
      </trkpt>
      <trkpt lat="45.02354" lon="6.6919">
        <ele>2208.29</ele>
        <time>2024-08-11T09:30:25Z</time>
      </trkpt>
      <trkpt lat="45.02358" lon="6.6919">
        <ele>2208.29</ele>
        <time>2024-08-11T09:30:26Z</time>
      </trkpt>
      <trkpt lat="45.02361" lon="6.69189">
        <ele>2208.29</ele>
        <time>2024-08-11T09:30:27Z</time>
      </trkpt>
      <trkpt lat="45.02365" lon="6.69189">
        <ele>2208.29</ele>
        <time>2024-08-11T09:30:28Z</time>
      </trkpt>
      <trkpt lat="45.02369" lon="6.69188">
        <ele>2207.32</ele>
        <time>2024-08-11T09:30:29Z</time>
      </trkpt>
      <trkpt lat="45.02373" lon="6.69187">
        <ele>2207.32</ele>
        <time>2024-08-11T09:30:30Z</time>
      </trkpt>
      <trkpt lat="45.02378" lon="6.69184">
        <ele>2206.84</ele>
        <time>2024-08-11T09:30:31Z</time>
      </trkpt>
      <trkpt lat="45.02381" lon="6.6918">
        <ele>2204.92</ele>
        <time>2024-08-11T09:30:32Z</time>
      </trkpt>
      <trkpt lat="45.02384" lon="6.69176">
        <ele>2203.48</ele>
        <time>2024-08-11T09:30:33Z</time>
      </trkpt>
      <trkpt lat="45.02384" lon="6.69173">
        <ele>2202.04</ele>
        <time>2024-08-11T09:30:34Z</time>
      </trkpt>
      <trkpt lat="45.02386" lon="6.69172">
        <ele>2202.04</ele>
        <time>2024-08-11T09:30:35Z</time>
      </trkpt>
      <trkpt lat="45.02386" lon="6.69172">
        <ele>2201.08</ele>
        <time>2024-08-11T09:30:36Z</time>
      </trkpt>
      <trkpt lat="45.02387" lon="6.69175">
        <ele>2201.08</ele>
        <time>2024-08-11T09:30:37Z</time>
      </trkpt>
      <trkpt lat="45.02388" lon="6.69179">
        <ele>2200.11</ele>
        <time>2024-08-11T09:30:38Z</time>
      </trkpt>
      <trkpt lat="45.0239" lon="6.69189">
        <ele>2199.63</ele>
        <time>2024-08-11T09:30:40Z</time>
      </trkpt>
      <trkpt lat="45.02393" lon="6.69194">
        <ele>2198.67</ele>
        <time>2024-08-11T09:30:41Z</time>
      </trkpt>
      <trkpt lat="45.02396" lon="6.692">
        <ele>2197.71</ele>
        <time>2024-08-11T09:30:42Z</time>
      </trkpt>
      <trkpt lat="45.02399" lon="6.69204">
        <ele>2196.27</ele>
        <time>2024-08-11T09:30:43Z</time>
      </trkpt>
      <trkpt lat="45.02401" lon="6.69205">
        <ele>2195.79</ele>
        <time>2024-08-11T09:30:44Z</time>
      </trkpt>
      <trkpt lat="45.02403" lon="6.69203">
        <ele>2194.35</ele>
        <time>2024-08-11T09:30:45Z</time>
      </trkpt>
      <trkpt lat="45.02404" lon="6.69199">
        <ele>2193.87</ele>
        <time>2024-08-11T09:30:46Z</time>
      </trkpt>
      <trkpt lat="45.02404" lon="6.69193">
        <ele>2193.39</ele>
        <time>2024-08-11T09:30:47Z</time>
      </trkpt>
      <trkpt lat="45.02405" lon="6.69188">
        <ele>2192.9</ele>
        <time>2024-08-11T09:30:48Z</time>
      </trkpt>
      <trkpt lat="45.02406" lon="6.69181">
        <ele>2191.46</ele>
        <time>2024-08-11T09:30:49Z</time>
      </trkpt>
      <trkpt lat="45.02407" lon="6.69176">
        <ele>2190.5</ele>
        <time>2024-08-11T09:30:50Z</time>
      </trkpt>
      <trkpt lat="45.02409" lon="6.69171">
        <ele>2189.54</ele>
        <time>2024-08-11T09:30:51Z</time>
      </trkpt>
      <trkpt lat="45.02411" lon="6.69166">
        <ele>2188.58</ele>
        <time>2024-08-11T09:30:52Z</time>
      </trkpt>
      <trkpt lat="45.02412" lon="6.69162">
        <ele>2188.1</ele>
        <time>2024-08-11T09:30:53Z</time>
      </trkpt>
      <trkpt lat="45.02413" lon="6.69157">
        <ele>2187.14</ele>
        <time>2024-08-11T09:30:54Z</time>
      </trkpt>
      <trkpt lat="45.02415" lon="6.69153">
        <ele>2185.69</ele>
        <time>2024-08-11T09:30:55Z</time>
      </trkpt>
      <trkpt lat="45.02415" lon="6.69149">
        <ele>2185.69</ele>
        <time>2024-08-11T09:30:56Z</time>
      </trkpt>
      <trkpt lat="45.02416" lon="6.69145">
        <ele>2185.21</ele>
        <time>2024-08-11T09:30:57Z</time>
      </trkpt>
      <trkpt lat="45.02416" lon="6.69142">
        <ele>2184.25</ele>
        <time>2024-08-11T09:30:58Z</time>
      </trkpt>
      <trkpt lat="45.02416" lon="6.69139">
        <ele>2183.29</ele>
        <time>2024-08-11T09:30:59Z</time>
      </trkpt>
      <trkpt lat="45.02417" lon="6.69135">
        <ele>2182.81</ele>
        <time>2024-08-11T09:31:00Z</time>
      </trkpt>
      <trkpt lat="45.02418" lon="6.6913">
        <ele>2182.33</ele>
        <time>2024-08-11T09:31:01Z</time>
      </trkpt>
      <trkpt lat="45.0242" lon="6.6912">
        <ele>2181.85</ele>
        <time>2024-08-11T09:31:03Z</time>
      </trkpt>
      <trkpt lat="45.02419" lon="6.69116">
        <ele>2181.85</ele>
        <time>2024-08-11T09:31:04Z</time>
      </trkpt>
      <trkpt lat="45.02419" lon="6.69112">
        <ele>2181.37</ele>
        <time>2024-08-11T09:31:05Z</time>
      </trkpt>
      <trkpt lat="45.02419" lon="6.69108">
        <ele>2180.89</ele>
        <time>2024-08-11T09:31:06Z</time>
      </trkpt>
      <trkpt lat="45.02419" lon="6.69103">
        <ele>2180.89</ele>
        <time>2024-08-11T09:31:07Z</time>
      </trkpt>
      <trkpt lat="45.0242" lon="6.69099">
        <ele>2180.41</ele>
        <time>2024-08-11T09:31:08Z</time>
      </trkpt>
      <trkpt lat="45.02421" lon="6.69097">
        <ele>2180.41</ele>
        <time>2024-08-11T09:31:09Z</time>
      </trkpt>
      <trkpt lat="45.02423" lon="6.69094">
        <ele>2180.41</ele>
        <time>2024-08-11T09:31:10Z</time>
      </trkpt>
      <trkpt lat="45.02426" lon="6.69087">
        <ele>2180.41</ele>
        <time>2024-08-11T09:31:12Z</time>
      </trkpt>
      <trkpt lat="45.02428" lon="6.69084">
        <ele>2179.93</ele>
        <time>2024-08-11T09:31:13Z</time>
      </trkpt>
      <trkpt lat="45.0243" lon="6.69082">
        <ele>2179.45</ele>
        <time>2024-08-11T09:31:14Z</time>
      </trkpt>
      <trkpt lat="45.02436" lon="6.69072">
        <ele>2178.48</ele>
        <time>2024-08-11T09:31:18Z</time>
      </trkpt>
      <trkpt lat="45.02437" lon="6.69071">
        <ele>2178.48</ele>
        <time>2024-08-11T09:31:19Z</time>
      </trkpt>
      <trkpt lat="45.02439" lon="6.69069">
        <ele>2178.48</ele>
        <time>2024-08-11T09:31:20Z</time>
      </trkpt>
      <trkpt lat="45.0244" lon="6.69066">
        <ele>2178.48</ele>
        <time>2024-08-11T09:31:21Z</time>
      </trkpt>
      <trkpt lat="45.02441" lon="6.69063">
        <ele>2178.48</ele>
        <time>2024-08-11T09:31:22Z</time>
      </trkpt>
      <trkpt lat="45.02442" lon="6.69061">
        <ele>2178.48</ele>
        <time>2024-08-11T09:31:23Z</time>
      </trkpt>
      <trkpt lat="45.02442" lon="6.6906">
        <ele>2178.48</ele>
        <time>2024-08-11T09:31:24Z</time>
      </trkpt>
      <trkpt lat="45.02442" lon="6.69058">
        <ele>2178.48</ele>
        <time>2024-08-11T09:31:25Z</time>
      </trkpt>
      <trkpt lat="45.02442" lon="6.69055">
        <ele>2178.48</ele>
        <time>2024-08-11T09:31:26Z</time>
      </trkpt>
      <trkpt lat="45.02443" lon="6.69053">
        <ele>2179.93</ele>
        <time>2024-08-11T09:31:27Z</time>
      </trkpt>
      <trkpt lat="45.02443" lon="6.69051">
        <ele>2179.93</ele>
        <time>2024-08-11T09:31:28Z</time>
      </trkpt>
      <trkpt lat="45.02446" lon="6.69043">
        <ele>2180.41</ele>
        <time>2024-08-11T09:31:32Z</time>
      </trkpt>
      <trkpt lat="45.02447" lon="6.69042">
        <ele>2180.41</ele>
        <time>2024-08-11T09:31:33Z</time>
      </trkpt>
      <trkpt lat="45.02449" lon="6.69041">
        <ele>2180.41</ele>
        <time>2024-08-11T09:31:34Z</time>
      </trkpt>
      <trkpt lat="45.02451" lon="6.69038">
        <ele>2178.97</ele>
        <time>2024-08-11T09:31:35Z</time>
      </trkpt>
      <trkpt lat="45.02453" lon="6.69035">
        <ele>2178.97</ele>
        <time>2024-08-11T09:31:36Z</time>
      </trkpt>
      <trkpt lat="45.02456" lon="6.69032">
        <ele>2178.48</ele>
        <time>2024-08-11T09:31:37Z</time>
      </trkpt>
      <trkpt lat="45.02458" lon="6.69029">
        <ele>2178.48</ele>
        <time>2024-08-11T09:31:38Z</time>
      </trkpt>
      <trkpt lat="45.02459" lon="6.69026">
        <ele>2178.48</ele>
        <time>2024-08-11T09:31:39Z</time>
      </trkpt>
      <trkpt lat="45.02461" lon="6.69024">
        <ele>2178.48</ele>
        <time>2024-08-11T09:31:40Z</time>
      </trkpt>
      <trkpt lat="45.02491" lon="6.68986">
        <ele>2176.08</ele>
        <time>2024-08-11T09:31:51Z</time>
      </trkpt>
      <trkpt lat="45.02512" lon="6.68965">
        <ele>2175.12</ele>
        <time>2024-08-11T09:31:57Z</time>
      </trkpt>
      <trkpt lat="45.02515" lon="6.68963">
        <ele>2174.64</ele>
        <time>2024-08-11T09:31:58Z</time>
      </trkpt>
      <trkpt lat="45.02524" lon="6.68953">
        <ele>2174.16</ele>
        <time>2024-08-11T09:32:06Z</time>
      </trkpt>
      <trkpt lat="45.02557" lon="6.68924">
        <ele>2174.16</ele>
        <time>2024-08-11T09:32:19Z</time>
      </trkpt>
      <trkpt lat="45.02582" lon="6.68896">
        <ele>2173.68</ele>
        <time>2024-08-11T09:32:28Z</time>
      </trkpt>
      <trkpt lat="45.02612" lon="6.68857">
        <ele>2176.56</ele>
        <time>2024-08-11T09:32:39Z</time>
      </trkpt>
      <trkpt lat="45.02622" lon="6.68846">
        <ele>2176.56</ele>
        <time>2024-08-11T09:32:45Z</time>
      </trkpt>
      <trkpt lat="45.02624" lon="6.68846">
        <ele>2176.56</ele>
        <time>2024-08-11T09:32:46Z</time>
      </trkpt>
      <trkpt lat="45.02626" lon="6.68844">
        <ele>2176.56</ele>
        <time>2024-08-11T09:32:47Z</time>
      </trkpt>
      <trkpt lat="45.02628" lon="6.68841">
        <ele>2176.56</ele>
        <time>2024-08-11T09:32:48Z</time>
      </trkpt>
      <trkpt lat="45.02629" lon="6.68839">
        <ele>2177.04</ele>
        <time>2024-08-11T09:32:49Z</time>
      </trkpt>
      <trkpt lat="45.02631" lon="6.68837">
        <ele>2177.04</ele>
        <time>2024-08-11T09:32:50Z</time>
      </trkpt>
      <trkpt lat="45.02633" lon="6.68832">
        <ele>2177.52</ele>
        <time>2024-08-11T09:32:52Z</time>
      </trkpt>
      <trkpt lat="45.02635" lon="6.6883">
        <ele>2177.52</ele>
        <time>2024-08-11T09:32:53Z</time>
      </trkpt>
      <trkpt lat="45.02637" lon="6.68829">
        <ele>2177.52</ele>
        <time>2024-08-11T09:32:54Z</time>
      </trkpt>
      <trkpt lat="45.02638" lon="6.68828">
        <ele>2177.52</ele>
        <time>2024-08-11T09:32:55Z</time>
      </trkpt>
      <trkpt lat="45.0264" lon="6.68826">
        <ele>2177.52</ele>
        <time>2024-08-11T09:32:56Z</time>
      </trkpt>
      <trkpt lat="45.02641" lon="6.68824">
        <ele>2178</ele>
        <time>2024-08-11T09:32:57Z</time>
      </trkpt>
      <trkpt lat="45.02642" lon="6.68821">
        <ele>2178</ele>
        <time>2024-08-11T09:32:58Z</time>
      </trkpt>
      <trkpt lat="45.02644" lon="6.68818">
        <ele>2178</ele>
        <time>2024-08-11T09:32:59Z</time>
      </trkpt>
      <trkpt lat="45.0267" lon="6.68779">
        <ele>2178.48</ele>
        <time>2024-08-11T09:33:11Z</time>
      </trkpt>
      <trkpt lat="45.02688" lon="6.68745">
        <ele>2178.97</ele>
        <time>2024-08-11T09:33:19Z</time>
      </trkpt>
      <trkpt lat="45.02688" lon="6.68738">
        <ele>2177.52</ele>
        <time>2024-08-11T09:33:20Z</time>
      </trkpt>
      <trkpt lat="45.02686" lon="6.68731">
        <ele>2177.52</ele>
        <time>2024-08-11T09:33:21Z</time>
      </trkpt>
      <trkpt lat="45.02681" lon="6.68713">
        <ele>2174.64</ele>
        <time>2024-08-11T09:33:24Z</time>
      </trkpt>
      <trkpt lat="45.02682" lon="6.68709">
        <ele>2173.68</ele>
        <time>2024-08-11T09:33:25Z</time>
      </trkpt>
      <trkpt lat="45.02682" lon="6.68706">
        <ele>2173.2</ele>
        <time>2024-08-11T09:33:26Z</time>
      </trkpt>
      <trkpt lat="45.02684" lon="6.68703">
        <ele>2173.2</ele>
        <time>2024-08-11T09:33:27Z</time>
      </trkpt>
      <trkpt lat="45.02686" lon="6.687">
        <ele>2172.24</ele>
        <time>2024-08-11T09:33:28Z</time>
      </trkpt>
      <trkpt lat="45.02687" lon="6.68697">
        <ele>2172.24</ele>
        <time>2024-08-11T09:33:32Z</time>
      </trkpt>
      <trkpt lat="45.02687" lon="6.68696">
        <ele>2172.24</ele>
        <time>2024-08-11T09:33:33Z</time>
      </trkpt>
      <trkpt lat="45.02691" lon="6.68692">
        <ele>2173.68</ele>
        <time>2024-08-11T09:33:43Z</time>
      </trkpt>
      <trkpt lat="45.02691" lon="6.68692">
        <ele>2173.68</ele>
        <time>2024-08-11T09:33:57Z</time>
      </trkpt>
      <trkpt lat="45.02693" lon="6.68691">
        <ele>2173.68</ele>
        <time>2024-08-11T09:34:07Z</time>
      </trkpt>
      <trkpt lat="45.02694" lon="6.68691">
        <ele>2173.68</ele>
        <time>2024-08-11T09:34:08Z</time>
      </trkpt>
      <trkpt lat="45.02696" lon="6.68691">
        <ele>2174.16</ele>
        <time>2024-08-11T09:34:10Z</time>
      </trkpt>
      <trkpt lat="45.02697" lon="6.68691">
        <ele>2174.64</ele>
        <time>2024-08-11T09:34:11Z</time>
      </trkpt>
      <trkpt lat="45.02699" lon="6.68691">
        <ele>2174.64</ele>
        <time>2024-08-11T09:34:12Z</time>
      </trkpt>
      <trkpt lat="45.027" lon="6.68691">
        <ele>2175.12</ele>
        <time>2024-08-11T09:34:13Z</time>
      </trkpt>
      <trkpt lat="45.02701" lon="6.6869">
        <ele>2175.12</ele>
        <time>2024-08-11T09:34:14Z</time>
      </trkpt>
      <trkpt lat="45.02702" lon="6.6869">
        <ele>2176.08</ele>
        <time>2024-08-11T09:34:15Z</time>
      </trkpt>
      <trkpt lat="45.02703" lon="6.6869">
        <ele>2176.08</ele>
        <time>2024-08-11T09:34:16Z</time>
      </trkpt>
      <trkpt lat="45.02705" lon="6.68689">
        <ele>2176.08</ele>
        <time>2024-08-11T09:34:17Z</time>
      </trkpt>
      <trkpt lat="45.02718" lon="6.6868">
        <ele>2177.52</ele>
        <time>2024-08-11T09:34:29Z</time>
      </trkpt>
      <trkpt lat="45.02721" lon="6.68676">
        <ele>2177.04</ele>
        <time>2024-08-11T09:34:43Z</time>
      </trkpt>
      <trkpt lat="45.02722" lon="6.68678">
        <ele>2177.04</ele>
        <time>2024-08-11T09:35:08Z</time>
      </trkpt>
      <trkpt lat="45.02733" lon="6.68666">
        <ele>2177.04</ele>
        <time>2024-08-11T09:35:25Z</time>
      </trkpt>
      <trkpt lat="45.02743" lon="6.6866">
        <ele>2176.08</ele>
        <time>2024-08-11T09:35:28Z</time>
      </trkpt>
      <trkpt lat="45.02755" lon="6.6865">
        <ele>2175.12</ele>
        <time>2024-08-11T09:35:31Z</time>
      </trkpt>
      <trkpt lat="45.02759" lon="6.68645">
        <ele>2175.12</ele>
        <time>2024-08-11T09:35:32Z</time>
      </trkpt>
      <trkpt lat="45.02763" lon="6.6864">
        <ele>2174.64</ele>
        <time>2024-08-11T09:35:33Z</time>
      </trkpt>
      <trkpt lat="45.02767" lon="6.68633">
        <ele>2174.16</ele>
        <time>2024-08-11T09:35:34Z</time>
      </trkpt>
      <trkpt lat="45.02769" lon="6.68626">
        <ele>2174.16</ele>
        <time>2024-08-11T09:35:35Z</time>
      </trkpt>
      <trkpt lat="45.02772" lon="6.68619">
        <ele>2173.2</ele>
        <time>2024-08-11T09:35:36Z</time>
      </trkpt>
      <trkpt lat="45.02775" lon="6.68612">
        <ele>2173.2</ele>
        <time>2024-08-11T09:35:37Z</time>
      </trkpt>
      <trkpt lat="45.02777" lon="6.68605">
        <ele>2172.24</ele>
        <time>2024-08-11T09:35:38Z</time>
      </trkpt>
      <trkpt lat="45.02779" lon="6.68597">
        <ele>2170.79</ele>
        <time>2024-08-11T09:35:39Z</time>
      </trkpt>
      <trkpt lat="45.0278" lon="6.68591">
        <ele>2169.83</ele>
        <time>2024-08-11T09:35:40Z</time>
      </trkpt>
      <trkpt lat="45.02781" lon="6.68587">
        <ele>2168.39</ele>
        <time>2024-08-11T09:35:41Z</time>
      </trkpt>
      <trkpt lat="45.02781" lon="6.68583">
        <ele>2167.43</ele>
        <time>2024-08-11T09:35:42Z</time>
      </trkpt>
      <trkpt lat="45.0278" lon="6.6858">
        <ele>2166.95</ele>
        <time>2024-08-11T09:35:43Z</time>
      </trkpt>
      <trkpt lat="45.02775" lon="6.6855">
        <ele>2164.06</ele>
        <time>2024-08-11T09:35:57Z</time>
      </trkpt>
      <trkpt lat="45.02777" lon="6.68548">
        <ele>2164.06</ele>
        <time>2024-08-11T09:35:58Z</time>
      </trkpt>
      <trkpt lat="45.02779" lon="6.68546">
        <ele>2164.06</ele>
        <time>2024-08-11T09:35:59Z</time>
      </trkpt>
      <trkpt lat="45.02781" lon="6.68545">
        <ele>2164.06</ele>
        <time>2024-08-11T09:36:00Z</time>
      </trkpt>
      <trkpt lat="45.02783" lon="6.68544">
        <ele>2164.06</ele>
        <time>2024-08-11T09:36:01Z</time>
      </trkpt>
      <trkpt lat="45.02786" lon="6.68542">
        <ele>2164.06</ele>
        <time>2024-08-11T09:36:02Z</time>
      </trkpt>
      <trkpt lat="45.02788" lon="6.68539">
        <ele>2164.06</ele>
        <time>2024-08-11T09:36:03Z</time>
      </trkpt>
      <trkpt lat="45.02789" lon="6.68535">
        <ele>2164.06</ele>
        <time>2024-08-11T09:36:04Z</time>
      </trkpt>
      <trkpt lat="45.02791" lon="6.68531">
        <ele>2164.06</ele>
        <time>2024-08-11T09:36:05Z</time>
      </trkpt>
      <trkpt lat="45.02799" lon="6.68512">
        <ele>2163.1</ele>
        <time>2024-08-11T09:36:10Z</time>
      </trkpt>
      <trkpt lat="45.028" lon="6.68509">
        <ele>2163.1</ele>
        <time>2024-08-11T09:36:11Z</time>
      </trkpt>
      <trkpt lat="45.02802" lon="6.68507">
        <ele>2162.62</ele>
        <time>2024-08-11T09:36:12Z</time>
      </trkpt>
      <trkpt lat="45.02804" lon="6.68505">
        <ele>2161.18</ele>
        <time>2024-08-11T09:36:13Z</time>
      </trkpt>
      <trkpt lat="45.02805" lon="6.68504">
        <ele>2161.18</ele>
        <time>2024-08-11T09:36:14Z</time>
      </trkpt>
      <trkpt lat="45.02807" lon="6.68503">
        <ele>2161.66</ele>
        <time>2024-08-11T09:36:15Z</time>
      </trkpt>
      <trkpt lat="45.02809" lon="6.685">
        <ele>2161.66</ele>
        <time>2024-08-11T09:36:16Z</time>
      </trkpt>
      <trkpt lat="45.02811" lon="6.68496">
        <ele>2161.18</ele>
        <time>2024-08-11T09:36:17Z</time>
      </trkpt>
      <trkpt lat="45.02813" lon="6.68491">
        <ele>2161.18</ele>
        <time>2024-08-11T09:36:18Z</time>
      </trkpt>
      <trkpt lat="45.02814" lon="6.68487">
        <ele>2161.18</ele>
        <time>2024-08-11T09:36:19Z</time>
      </trkpt>
      <trkpt lat="45.02815" lon="6.68483">
        <ele>2159.74</ele>
        <time>2024-08-11T09:36:20Z</time>
      </trkpt>
      <trkpt lat="45.02815" lon="6.68479">
        <ele>2159.26</ele>
        <time>2024-08-11T09:36:21Z</time>
      </trkpt>
      <trkpt lat="45.02814" lon="6.68475">
        <ele>2159.26</ele>
        <time>2024-08-11T09:36:22Z</time>
      </trkpt>
      <trkpt lat="45.02814" lon="6.68472">
        <ele>2159.26</ele>
        <time>2024-08-11T09:36:23Z</time>
      </trkpt>
      <trkpt lat="45.02813" lon="6.68468">
        <ele>2158.78</ele>
        <time>2024-08-11T09:36:24Z</time>
      </trkpt>
      <trkpt lat="45.02813" lon="6.68461">
        <ele>2158.78</ele>
        <time>2024-08-11T09:36:26Z</time>
      </trkpt>
      <trkpt lat="45.02814" lon="6.68459">
        <ele>2158.78</ele>
        <time>2024-08-11T09:36:27Z</time>
      </trkpt>
      <trkpt lat="45.02814" lon="6.68457">
        <ele>2158.3</ele>
        <time>2024-08-11T09:36:36Z</time>
      </trkpt>
      <trkpt lat="45.02814" lon="6.68454">
        <ele>2157.34</ele>
        <time>2024-08-11T09:36:49Z</time>
      </trkpt>
      <trkpt lat="45.02816" lon="6.68454">
        <ele>2155.89</ele>
        <time>2024-08-11T09:37:00Z</time>
      </trkpt>
      <trkpt lat="45.02819" lon="6.68454">
        <ele>2156.86</ele>
        <time>2024-08-11T09:37:11Z</time>
      </trkpt>
      <trkpt lat="45.02821" lon="6.68454">
        <ele>2157.82</ele>
        <time>2024-08-11T09:37:13Z</time>
      </trkpt>
      <trkpt lat="45.02822" lon="6.68453">
        <ele>2157.82</ele>
        <time>2024-08-11T09:37:14Z</time>
      </trkpt>
      <trkpt lat="45.02824" lon="6.68451">
        <ele>2157.34</ele>
        <time>2024-08-11T09:37:28Z</time>
      </trkpt>
      <trkpt lat="45.02826" lon="6.68451">
        <ele>2157.34</ele>
        <time>2024-08-11T09:37:51Z</time>
      </trkpt>
      <trkpt lat="45.02828" lon="6.68452">
        <ele>2157.34</ele>
        <time>2024-08-11T09:38:10Z</time>
      </trkpt>
      <trkpt lat="45.02824" lon="6.68452">
        <ele>2157.34</ele>
        <time>2024-08-11T09:38:22Z</time>
      </trkpt>
      <trkpt lat="45.02822" lon="6.68452">
        <ele>2158.3</ele>
        <time>2024-08-11T09:38:36Z</time>
      </trkpt>
      <trkpt lat="45.02827" lon="6.68452">
        <ele>2157.82</ele>
        <time>2024-08-11T09:38:45Z</time>
      </trkpt>
      <trkpt lat="45.02834" lon="6.68452">
        <ele>2157.82</ele>
        <time>2024-08-11T09:38:57Z</time>
      </trkpt>
      <trkpt lat="45.02836" lon="6.68452">
        <ele>2157.82</ele>
        <time>2024-08-11T09:38:58Z</time>
      </trkpt>
      <trkpt lat="45.02837" lon="6.68452">
        <ele>2157.82</ele>
        <time>2024-08-11T09:38:59Z</time>
      </trkpt>
      <trkpt lat="45.02839" lon="6.68452">
        <ele>2157.82</ele>
        <time>2024-08-11T09:39:00Z</time>
      </trkpt>
      <trkpt lat="45.02841" lon="6.68452">
        <ele>2157.82</ele>
        <time>2024-08-11T09:39:01Z</time>
      </trkpt>
      <trkpt lat="45.02842" lon="6.68452">
        <ele>2157.82</ele>
        <time>2024-08-11T09:39:02Z</time>
      </trkpt>
      <trkpt lat="45.02844" lon="6.68451">
        <ele>2157.82</ele>
        <time>2024-08-11T09:39:03Z</time>
      </trkpt>
      <trkpt lat="45.02846" lon="6.6845">
        <ele>2157.82</ele>
        <time>2024-08-11T09:39:04Z</time>
      </trkpt>
      <trkpt lat="45.02847" lon="6.68448">
        <ele>2157.82</ele>
        <time>2024-08-11T09:39:05Z</time>
      </trkpt>
      <trkpt lat="45.02848" lon="6.68446">
        <ele>2157.82</ele>
        <time>2024-08-11T09:39:06Z</time>
      </trkpt>
      <trkpt lat="45.02849" lon="6.68444">
        <ele>2157.82</ele>
        <time>2024-08-11T09:39:07Z</time>
      </trkpt>
      <trkpt lat="45.02849" lon="6.68442">
        <ele>2157.82</ele>
        <time>2024-08-11T09:39:08Z</time>
      </trkpt>
      <trkpt lat="45.0285" lon="6.6844">
        <ele>2157.82</ele>
        <time>2024-08-11T09:39:09Z</time>
      </trkpt>
      <trkpt lat="45.02851" lon="6.68438">
        <ele>2157.82</ele>
        <time>2024-08-11T09:39:10Z</time>
      </trkpt>
      <trkpt lat="45.02854" lon="6.68431">
        <ele>2158.3</ele>
        <time>2024-08-11T09:39:13Z</time>
      </trkpt>
      <trkpt lat="45.02854" lon="6.68428">
        <ele>2158.3</ele>
        <time>2024-08-11T09:39:14Z</time>
      </trkpt>
      <trkpt lat="45.02854" lon="6.68426">
        <ele>2158.3</ele>
        <time>2024-08-11T09:39:15Z</time>
      </trkpt>
      <trkpt lat="45.02857" lon="6.68408">
        <ele>2160.22</ele>
        <time>2024-08-11T09:39:24Z</time>
      </trkpt>
      <trkpt lat="45.0286" lon="6.68405">
        <ele>2160.22</ele>
        <time>2024-08-11T09:39:26Z</time>
      </trkpt>
      <trkpt lat="45.02865" lon="6.68403">
        <ele>2160.7</ele>
        <time>2024-08-11T09:39:34Z</time>
      </trkpt>
      <trkpt lat="45.02873" lon="6.68395">
        <ele>2162.62</ele>
        <time>2024-08-11T09:39:47Z</time>
      </trkpt>
      <trkpt lat="45.02873" lon="6.68395">
        <ele>2162.62</ele>
        <time>2024-08-11T09:39:48Z</time>
      </trkpt>
      <trkpt lat="45.02875" lon="6.68394">
        <ele>2162.62</ele>
        <time>2024-08-11T09:39:51Z</time>
      </trkpt>
      <trkpt lat="45.0288" lon="6.68392">
        <ele>2164.55</ele>
        <time>2024-08-11T09:40:03Z</time>
      </trkpt>
      <trkpt lat="45.0289" lon="6.68387">
        <ele>2166.95</ele>
        <time>2024-08-11T09:40:18Z</time>
      </trkpt>
      <trkpt lat="45.02898" lon="6.68379">
        <ele>2169.83</ele>
        <time>2024-08-11T09:40:33Z</time>
      </trkpt>
      <trkpt lat="45.02899" lon="6.68377">
        <ele>2170.79</ele>
        <time>2024-08-11T09:40:37Z</time>
      </trkpt>
      <trkpt lat="45.02903" lon="6.68375">
        <ele>2171.76</ele>
        <time>2024-08-11T09:40:46Z</time>
      </trkpt>
      <trkpt lat="45.02909" lon="6.68374">
        <ele>2173.2</ele>
        <time>2024-08-11T09:40:58Z</time>
      </trkpt>
      <trkpt lat="45.02921" lon="6.68369">
        <ele>2174.16</ele>
        <time>2024-08-11T09:41:09Z</time>
      </trkpt>
      <trkpt lat="45.02938" lon="6.68358">
        <ele>2177.04</ele>
        <time>2024-08-11T09:41:23Z</time>
      </trkpt>
      <trkpt lat="45.0295" lon="6.68338">
        <ele>2179.93</ele>
        <time>2024-08-11T09:41:40Z</time>
      </trkpt>
      <trkpt lat="45.02952" lon="6.68333">
        <ele>2181.37</ele>
        <time>2024-08-11T09:41:54Z</time>
      </trkpt>
      <trkpt lat="45.02954" lon="6.68329">
        <ele>2182.81</ele>
        <time>2024-08-11T09:42:05Z</time>
      </trkpt>
      <trkpt lat="45.02956" lon="6.68322">
        <ele>2185.21</ele>
        <time>2024-08-11T09:42:19Z</time>
      </trkpt>
      <trkpt lat="45.02955" lon="6.68318">
        <ele>2187.62</ele>
        <time>2024-08-11T09:42:32Z</time>
      </trkpt>
      <trkpt lat="45.02952" lon="6.68316">
        <ele>2189.06</ele>
        <time>2024-08-11T09:42:44Z</time>
      </trkpt>
      <trkpt lat="45.02949" lon="6.68314">
        <ele>2191.46</ele>
        <time>2024-08-11T09:42:58Z</time>
      </trkpt>
      <trkpt lat="45.02951" lon="6.68305">
        <ele>2194.83</ele>
        <time>2024-08-11T09:43:14Z</time>
      </trkpt>
      <trkpt lat="45.02953" lon="6.68295">
        <ele>2196.75</ele>
        <time>2024-08-11T09:43:29Z</time>
      </trkpt>
      <trkpt lat="45.02959" lon="6.68294">
        <ele>2197.23</ele>
        <time>2024-08-11T09:43:41Z</time>
      </trkpt>
      <trkpt lat="45.02966" lon="6.6829">
        <ele>2198.19</ele>
        <time>2024-08-11T09:43:54Z</time>
      </trkpt>
      <trkpt lat="45.0297" lon="6.68289">
        <ele>2199.15</ele>
        <time>2024-08-11T09:44:00Z</time>
      </trkpt>
      <trkpt lat="45.02974" lon="6.68288">
        <ele>2199.63</ele>
        <time>2024-08-11T09:44:12Z</time>
      </trkpt>
      <trkpt lat="45.02976" lon="6.68279">
        <ele>2200.11</ele>
        <time>2024-08-11T09:44:38Z</time>
      </trkpt>
      <trkpt lat="45.02969" lon="6.6828">
        <ele>2200.59</ele>
        <time>2024-08-11T09:45:11Z</time>
      </trkpt>
      <trkpt lat="45.02973" lon="6.68282">
        <ele>2200.59</ele>
        <time>2024-08-11T09:45:40Z</time>
      </trkpt>
      <trkpt lat="45.02974" lon="6.68282">
        <ele>2201.08</ele>
        <time>2024-08-11T09:45:52Z</time>
      </trkpt>
      <trkpt lat="45.02964" lon="6.68278">
        <ele>2203.96</ele>
        <time>2024-08-11T09:46:05Z</time>
      </trkpt>
      <trkpt lat="45.02959" lon="6.68272">
        <ele>2205.88</ele>
        <time>2024-08-11T09:46:17Z</time>
      </trkpt>
      <trkpt lat="45.02961" lon="6.68274">
        <ele>2207.81</ele>
        <time>2024-08-11T09:46:30Z</time>
      </trkpt>
      <trkpt lat="45.02966" lon="6.68273">
        <ele>2210.69</ele>
        <time>2024-08-11T09:46:45Z</time>
      </trkpt>
      <trkpt lat="45.02973" lon="6.68265">
        <ele>2213.57</ele>
        <time>2024-08-11T09:47:01Z</time>
      </trkpt>
      <trkpt lat="45.02978" lon="6.68258">
        <ele>2216.46</ele>
        <time>2024-08-11T09:47:17Z</time>
      </trkpt>
      <trkpt lat="45.02982" lon="6.68255">
        <ele>2218.86</ele>
        <time>2024-08-11T09:47:31Z</time>
      </trkpt>
      <trkpt lat="45.02978" lon="6.68251">
        <ele>2221.26</ele>
        <time>2024-08-11T09:47:44Z</time>
      </trkpt>
      <trkpt lat="45.02971" lon="6.68238">
        <ele>2224.15</ele>
        <time>2024-08-11T09:47:59Z</time>
      </trkpt>
      <trkpt lat="45.02968" lon="6.68238">
        <ele>2226.07</ele>
        <time>2024-08-11T09:48:11Z</time>
      </trkpt>
      <trkpt lat="45.02973" lon="6.68232">
        <ele>2227.51</ele>
        <time>2024-08-11T09:48:26Z</time>
      </trkpt>
      <trkpt lat="45.02973" lon="6.68234">
        <ele>2230.4</ele>
        <time>2024-08-11T09:48:41Z</time>
      </trkpt>
      <trkpt lat="45.02972" lon="6.68236">
        <ele>2233.28</ele>
        <time>2024-08-11T09:48:56Z</time>
      </trkpt>
      <trkpt lat="45.02983" lon="6.68237">
        <ele>2235.68</ele>
        <time>2024-08-11T09:49:10Z</time>
      </trkpt>
      <trkpt lat="45.02981" lon="6.68234">
        <ele>2237.13</ele>
        <time>2024-08-11T09:49:23Z</time>
      </trkpt>
      <trkpt lat="45.02976" lon="6.68236">
        <ele>2239.53</ele>
        <time>2024-08-11T09:49:38Z</time>
      </trkpt>
      <trkpt lat="45.02973" lon="6.68213">
        <ele>2241.45</ele>
        <time>2024-08-11T09:49:53Z</time>
      </trkpt>
      <trkpt lat="45.02973" lon="6.68211">
        <ele>2244.82</ele>
        <time>2024-08-11T09:50:07Z</time>
      </trkpt>
      <trkpt lat="45.02975" lon="6.68204">
        <ele>2248.18</ele>
        <time>2024-08-11T09:50:24Z</time>
      </trkpt>
      <trkpt lat="45.02974" lon="6.68198">
        <ele>2250.58</ele>
        <time>2024-08-11T09:50:40Z</time>
      </trkpt>
      <trkpt lat="45.02976" lon="6.68196">
        <ele>2253.47</ele>
        <time>2024-08-11T09:50:54Z</time>
      </trkpt>
      <trkpt lat="45.02978" lon="6.6818">
        <ele>2255.39</ele>
        <time>2024-08-11T09:51:09Z</time>
      </trkpt>
      <trkpt lat="45.02982" lon="6.68178">
        <ele>2255.87</ele>
        <time>2024-08-11T09:51:18Z</time>
      </trkpt>
      <trkpt lat="45.02985" lon="6.68176">
        <ele>2255.87</ele>
        <time>2024-08-11T09:51:51Z</time>
      </trkpt>
      <trkpt lat="45.02986" lon="6.68177">
        <ele>2255.87</ele>
        <time>2024-08-11T09:52:25Z</time>
      </trkpt>
      <trkpt lat="45.02984" lon="6.68176">
        <ele>2255.87</ele>
        <time>2024-08-11T09:52:54Z</time>
      </trkpt>
      <trkpt lat="45.02985" lon="6.68176">
        <ele>2256.35</ele>
        <time>2024-08-11T09:53:29Z</time>
      </trkpt>
      <trkpt lat="45.02986" lon="6.68177">
        <ele>2256.35</ele>
        <time>2024-08-11T09:54:03Z</time>
      </trkpt>
      <trkpt lat="45.02985" lon="6.68176">
        <ele>2254.91</ele>
        <time>2024-08-11T09:54:43Z</time>
      </trkpt>
      <trkpt lat="45.02985" lon="6.68174">
        <ele>2254.91</ele>
        <time>2024-08-11T09:55:24Z</time>
      </trkpt>
      <trkpt lat="45.02985" lon="6.68178">
        <ele>2255.39</ele>
        <time>2024-08-11T09:56:03Z</time>
      </trkpt>
      <trkpt lat="45.02984" lon="6.68174">
        <ele>2255.39</ele>
        <time>2024-08-11T09:56:37Z</time>
      </trkpt>
      <trkpt lat="45.02987" lon="6.68177">
        <ele>2255.39</ele>
        <time>2024-08-11T09:57:09Z</time>
      </trkpt>
      <trkpt lat="45.02986" lon="6.68176">
        <ele>2255.39</ele>
        <time>2024-08-11T09:57:37Z</time>
      </trkpt>
      <trkpt lat="45.02986" lon="6.68175">
        <ele>2255.39</ele>
        <time>2024-08-11T09:58:08Z</time>
      </trkpt>
      <trkpt lat="45.02986" lon="6.68176">
        <ele>2255.87</ele>
        <time>2024-08-11T09:58:45Z</time>
      </trkpt>
      <trkpt lat="45.02981" lon="6.68176">
        <ele>2256.83</ele>
        <time>2024-08-11T09:58:57Z</time>
      </trkpt>
      <trkpt lat="45.02971" lon="6.68173">
        <ele>2255.39</ele>
        <time>2024-08-11T09:59:02Z</time>
      </trkpt>
      <trkpt lat="45.02968" lon="6.68173">
        <ele>2255.39</ele>
        <time>2024-08-11T09:59:03Z</time>
      </trkpt>
      <trkpt lat="45.02959" lon="6.68171">
        <ele>2253.47</ele>
        <time>2024-08-11T09:59:05Z</time>
      </trkpt>
      <trkpt lat="45.02954" lon="6.68169">
        <ele>2252.99</ele>
        <time>2024-08-11T09:59:06Z</time>
      </trkpt>
      <trkpt lat="45.02947" lon="6.68167">
        <ele>2252.51</ele>
        <time>2024-08-11T09:59:07Z</time>
      </trkpt>
      <trkpt lat="45.02917" lon="6.68157">
        <ele>2249.14</ele>
        <time>2024-08-11T09:59:11Z</time>
      </trkpt>
      <trkpt lat="45.02903" lon="6.68151">
        <ele>2247.22</ele>
        <time>2024-08-11T09:59:13Z</time>
      </trkpt>
      <trkpt lat="45.02896" lon="6.68146">
        <ele>2246.74</ele>
        <time>2024-08-11T09:59:14Z</time>
      </trkpt>
      <trkpt lat="45.02885" lon="6.68137">
        <ele>2245.3</ele>
        <time>2024-08-11T09:59:16Z</time>
      </trkpt>
      <trkpt lat="45.02879" lon="6.68133">
        <ele>2244.33</ele>
        <time>2024-08-11T09:59:17Z</time>
      </trkpt>
      <trkpt lat="45.02874" lon="6.68128">
        <ele>2244.33</ele>
        <time>2024-08-11T09:59:18Z</time>
      </trkpt>
      <trkpt lat="45.02859" lon="6.68114">
        <ele>2242.89</ele>
        <time>2024-08-11T09:59:21Z</time>
      </trkpt>
      <trkpt lat="45.02855" lon="6.68109">
        <ele>2242.89</ele>
        <time>2024-08-11T09:59:22Z</time>
      </trkpt>
      <trkpt lat="45.0285" lon="6.68103">
        <ele>2242.41</ele>
        <time>2024-08-11T09:59:23Z</time>
      </trkpt>
      <trkpt lat="45.02847" lon="6.68099">
        <ele>2242.41</ele>
        <time>2024-08-11T09:59:24Z</time>
      </trkpt>
      <trkpt lat="45.02845" lon="6.68095">
        <ele>2242.41</ele>
        <time>2024-08-11T09:59:25Z</time>
      </trkpt>
      <trkpt lat="45.02843" lon="6.68093">
        <ele>2241.93</ele>
        <time>2024-08-11T09:59:26Z</time>
      </trkpt>
      <trkpt lat="45.02841" lon="6.68092">
        <ele>2242.41</ele>
        <time>2024-08-11T09:59:27Z</time>
      </trkpt>
      <trkpt lat="45.02839" lon="6.68091">
        <ele>2243.37</ele>
        <time>2024-08-11T09:59:28Z</time>
      </trkpt>
      <trkpt lat="45.02838" lon="6.68089">
        <ele>2243.37</ele>
        <time>2024-08-11T09:59:29Z</time>
      </trkpt>
      <trkpt lat="45.02836" lon="6.68086">
        <ele>2243.37</ele>
        <time>2024-08-11T09:59:30Z</time>
      </trkpt>
      <trkpt lat="45.02835" lon="6.68083">
        <ele>2243.37</ele>
        <time>2024-08-11T09:59:31Z</time>
      </trkpt>
      <trkpt lat="45.02833" lon="6.68081">
        <ele>2243.37</ele>
        <time>2024-08-11T09:59:32Z</time>
      </trkpt>
      <trkpt lat="45.02832" lon="6.68079">
        <ele>2243.37</ele>
        <time>2024-08-11T09:59:33Z</time>
      </trkpt>
      <trkpt lat="45.0283" lon="6.68078">
        <ele>2243.85</ele>
        <time>2024-08-11T09:59:34Z</time>
      </trkpt>
      <trkpt lat="45.02811" lon="6.68052">
        <ele>2243.85</ele>
        <time>2024-08-11T09:59:43Z</time>
      </trkpt>
      <trkpt lat="45.02794" lon="6.68044">
        <ele>2246.74</ele>
        <time>2024-08-11T09:59:53Z</time>
      </trkpt>
      <trkpt lat="45.02793" lon="6.68043">
        <ele>2247.22</ele>
        <time>2024-08-11T09:59:54Z</time>
      </trkpt>
      <trkpt lat="45.02793" lon="6.68041">
        <ele>2247.22</ele>
        <time>2024-08-11T09:59:55Z</time>
      </trkpt>
      <trkpt lat="45.02791" lon="6.68039">
        <ele>2247.22</ele>
        <time>2024-08-11T09:59:56Z</time>
      </trkpt>
      <trkpt lat="45.02789" lon="6.68032">
        <ele>2247.22</ele>
        <time>2024-08-11T10:00:04Z</time>
      </trkpt>
      <trkpt lat="45.0279" lon="6.6803">
        <ele>2247.7</ele>
        <time>2024-08-11T10:00:08Z</time>
      </trkpt>
      <trkpt lat="45.0279" lon="6.68028">
        <ele>2247.7</ele>
        <time>2024-08-11T10:00:09Z</time>
      </trkpt>
      <trkpt lat="45.02789" lon="6.68026">
        <ele>2247.7</ele>
        <time>2024-08-11T10:00:10Z</time>
      </trkpt>
      <trkpt lat="45.02789" lon="6.68024">
        <ele>2247.7</ele>
        <time>2024-08-11T10:00:11Z</time>
      </trkpt>
      <trkpt lat="45.02788" lon="6.68022">
        <ele>2247.7</ele>
        <time>2024-08-11T10:00:12Z</time>
      </trkpt>
      <trkpt lat="45.02786" lon="6.68019">
        <ele>2247.7</ele>
        <time>2024-08-11T10:00:13Z</time>
      </trkpt>
      <trkpt lat="45.02784" lon="6.68011">
        <ele>2246.26</ele>
        <time>2024-08-11T10:00:15Z</time>
      </trkpt>
      <trkpt lat="45.02784" lon="6.68006">
        <ele>2245.3</ele>
        <time>2024-08-11T10:00:16Z</time>
      </trkpt>
      <trkpt lat="45.02782" lon="6.68001">
        <ele>2244.82</ele>
        <time>2024-08-11T10:00:17Z</time>
      </trkpt>
      <trkpt lat="45.0278" lon="6.67996">
        <ele>2244.33</ele>
        <time>2024-08-11T10:00:18Z</time>
      </trkpt>
      <trkpt lat="45.02778" lon="6.67991">
        <ele>2244.33</ele>
        <time>2024-08-11T10:00:19Z</time>
      </trkpt>
      <trkpt lat="45.02776" lon="6.67988">
        <ele>2242.89</ele>
        <time>2024-08-11T10:00:26Z</time>
      </trkpt>
      <trkpt lat="45.02776" lon="6.67984">
        <ele>2242.89</ele>
        <time>2024-08-11T10:00:55Z</time>
      </trkpt>
      <trkpt lat="45.02777" lon="6.67983">
        <ele>2243.37</ele>
        <time>2024-08-11T10:01:16Z</time>
      </trkpt>
      <trkpt lat="45.02776" lon="6.67983">
        <ele>2243.37</ele>
        <time>2024-08-11T10:01:23Z</time>
      </trkpt>
      <trkpt lat="45.02776" lon="6.67981">
        <ele>2243.37</ele>
        <time>2024-08-11T10:01:24Z</time>
      </trkpt>
      <trkpt lat="45.02775" lon="6.67978">
        <ele>2243.37</ele>
        <time>2024-08-11T10:01:25Z</time>
      </trkpt>
      <trkpt lat="45.02773" lon="6.67948">
        <ele>2241.93</ele>
        <time>2024-08-11T10:01:32Z</time>
      </trkpt>
      <trkpt lat="45.02772" lon="6.67946">
        <ele>2241.93</ele>
        <time>2024-08-11T10:01:33Z</time>
      </trkpt>
      <trkpt lat="45.0277" lon="6.67944">
        <ele>2241.93</ele>
        <time>2024-08-11T10:01:34Z</time>
      </trkpt>
      <trkpt lat="45.02769" lon="6.67943">
        <ele>2242.41</ele>
        <time>2024-08-11T10:01:35Z</time>
      </trkpt>
      <trkpt lat="45.02768" lon="6.67941">
        <ele>2242.41</ele>
        <time>2024-08-11T10:01:36Z</time>
      </trkpt>
      <trkpt lat="45.02767" lon="6.67937">
        <ele>2242.41</ele>
        <time>2024-08-11T10:01:37Z</time>
      </trkpt>
      <trkpt lat="45.02766" lon="6.67932">
        <ele>2241.93</ele>
        <time>2024-08-11T10:01:38Z</time>
      </trkpt>
      <trkpt lat="45.02762" lon="6.67893">
        <ele>2242.41</ele>
        <time>2024-08-11T10:01:49Z</time>
      </trkpt>
      <trkpt lat="45.02734" lon="6.67864">
        <ele>2241.45</ele>
        <time>2024-08-11T10:02:00Z</time>
      </trkpt>
      <trkpt lat="45.02711" lon="6.67857">
        <ele>2239.05</ele>
        <time>2024-08-11T10:02:06Z</time>
      </trkpt>
      <trkpt lat="45.02673" lon="6.67867">
        <ele>2235.68</ele>
        <time>2024-08-11T10:02:13Z</time>
      </trkpt>
      <trkpt lat="45.02668" lon="6.67869">
        <ele>2235.2</ele>
        <time>2024-08-11T10:02:14Z</time>
      </trkpt>
      <trkpt lat="45.02663" lon="6.67871">
        <ele>2234.72</ele>
        <time>2024-08-11T10:02:15Z</time>
      </trkpt>
      <trkpt lat="45.02657" lon="6.67872">
        <ele>2233.76</ele>
        <time>2024-08-11T10:02:16Z</time>
      </trkpt>
      <trkpt lat="45.02646" lon="6.67868">
        <ele>2233.28</ele>
        <time>2024-08-11T10:02:18Z</time>
      </trkpt>
      <trkpt lat="45.02642" lon="6.67864">
        <ele>2232.8</ele>
        <time>2024-08-11T10:02:19Z</time>
      </trkpt>
      <trkpt lat="45.02639" lon="6.67858">
        <ele>2232.8</ele>
        <time>2024-08-11T10:02:20Z</time>
      </trkpt>
      <trkpt lat="45.02637" lon="6.67853">
        <ele>2232.8</ele>
        <time>2024-08-11T10:02:21Z</time>
      </trkpt>
      <trkpt lat="45.02634" lon="6.6785">
        <ele>2232.8</ele>
        <time>2024-08-11T10:02:22Z</time>
      </trkpt>
      <trkpt lat="45.0263" lon="6.67848">
        <ele>2232.32</ele>
        <time>2024-08-11T10:02:23Z</time>
      </trkpt>
      <trkpt lat="45.02627" lon="6.67845">
        <ele>2232.32</ele>
        <time>2024-08-11T10:02:24Z</time>
      </trkpt>
      <trkpt lat="45.02624" lon="6.67841">
        <ele>2232.32</ele>
        <time>2024-08-11T10:02:25Z</time>
      </trkpt>
      <trkpt lat="45.02612" lon="6.67817">
        <ele>2231.84</ele>
        <time>2024-08-11T10:02:31Z</time>
      </trkpt>
      <trkpt lat="45.02611" lon="6.67812">
        <ele>2231.84</ele>
        <time>2024-08-11T10:02:32Z</time>
      </trkpt>
      <trkpt lat="45.02612" lon="6.67807">
        <ele>2231.84</ele>
        <time>2024-08-11T10:02:33Z</time>
      </trkpt>
      <trkpt lat="45.0261" lon="6.67788">
        <ele>2231.36</ele>
        <time>2024-08-11T10:02:37Z</time>
      </trkpt>
      <trkpt lat="45.02608" lon="6.67782">
        <ele>2231.36</ele>
        <time>2024-08-11T10:02:38Z</time>
      </trkpt>
      <trkpt lat="45.02607" lon="6.67775">
        <ele>2230.88</ele>
        <time>2024-08-11T10:02:39Z</time>
      </trkpt>
      <trkpt lat="45.02606" lon="6.6777">
        <ele>2230.88</ele>
        <time>2024-08-11T10:02:40Z</time>
      </trkpt>
      <trkpt lat="45.02605" lon="6.67764">
        <ele>2230.88</ele>
        <time>2024-08-11T10:02:41Z</time>
      </trkpt>
      <trkpt lat="45.02604" lon="6.67759">
        <ele>2230.4</ele>
        <time>2024-08-11T10:02:42Z</time>
      </trkpt>
      <trkpt lat="45.02598" lon="6.67725">
        <ele>2229.92</ele>
        <time>2024-08-11T10:02:49Z</time>
      </trkpt>
      <trkpt lat="45.02596" lon="6.67712">
        <ele>2229.43</ele>
        <time>2024-08-11T10:02:57Z</time>
      </trkpt>
      <trkpt lat="45.02592" lon="6.67702">
        <ele>2229.43</ele>
        <time>2024-08-11T10:03:01Z</time>
      </trkpt>
      <trkpt lat="45.02589" lon="6.67702">
        <ele>2228.95</ele>
        <time>2024-08-11T10:03:02Z</time>
      </trkpt>
      <trkpt lat="45.02584" lon="6.67702">
        <ele>2228.95</ele>
        <time>2024-08-11T10:03:03Z</time>
      </trkpt>
      <trkpt lat="45.02569" lon="6.67704">
        <ele>2227.51</ele>
        <time>2024-08-11T10:03:06Z</time>
      </trkpt>
      <trkpt lat="45.02565" lon="6.67702">
        <ele>2227.03</ele>
        <time>2024-08-11T10:03:07Z</time>
      </trkpt>
      <trkpt lat="45.02563" lon="6.67698">
        <ele>2226.07</ele>
        <time>2024-08-11T10:03:08Z</time>
      </trkpt>
      <trkpt lat="45.0256" lon="6.67695">
        <ele>2225.59</ele>
        <time>2024-08-11T10:03:09Z</time>
      </trkpt>
      <trkpt lat="45.02559" lon="6.67692">
        <ele>2225.11</ele>
        <time>2024-08-11T10:03:10Z</time>
      </trkpt>
      <trkpt lat="45.0256" lon="6.67689">
        <ele>2225.11</ele>
        <time>2024-08-11T10:03:11Z</time>
      </trkpt>
      <trkpt lat="45.0256" lon="6.67686">
        <ele>2225.11</ele>
        <time>2024-08-11T10:03:12Z</time>
      </trkpt>
      <trkpt lat="45.02561" lon="6.67681">
        <ele>2225.11</ele>
        <time>2024-08-11T10:03:13Z</time>
      </trkpt>
      <trkpt lat="45.02562" lon="6.67675">
        <ele>2225.11</ele>
        <time>2024-08-11T10:03:14Z</time>
      </trkpt>
      <trkpt lat="45.02563" lon="6.67668">
        <ele>2225.11</ele>
        <time>2024-08-11T10:03:15Z</time>
      </trkpt>
      <trkpt lat="45.02565" lon="6.67661">
        <ele>2224.63</ele>
        <time>2024-08-11T10:03:16Z</time>
      </trkpt>
      <trkpt lat="45.02567" lon="6.67655">
        <ele>2224.63</ele>
        <time>2024-08-11T10:03:17Z</time>
      </trkpt>
      <trkpt lat="45.02569" lon="6.6765">
        <ele>2224.63</ele>
        <time>2024-08-11T10:03:18Z</time>
      </trkpt>
      <trkpt lat="45.02571" lon="6.67644">
        <ele>2224.63</ele>
        <time>2024-08-11T10:03:19Z</time>
      </trkpt>
      <trkpt lat="45.02572" lon="6.67637">
        <ele>2224.15</ele>
        <time>2024-08-11T10:03:20Z</time>
      </trkpt>
      <trkpt lat="45.02573" lon="6.6763">
        <ele>2224.15</ele>
        <time>2024-08-11T10:03:21Z</time>
      </trkpt>
      <trkpt lat="45.02574" lon="6.67623">
        <ele>2224.15</ele>
        <time>2024-08-11T10:03:22Z</time>
      </trkpt>
      <trkpt lat="45.02577" lon="6.67616">
        <ele>2223.67</ele>
        <time>2024-08-11T10:03:23Z</time>
      </trkpt>
      <trkpt lat="45.0258" lon="6.6761">
        <ele>2222.71</ele>
        <time>2024-08-11T10:03:24Z</time>
      </trkpt>
      <trkpt lat="45.02582" lon="6.67604">
        <ele>2222.71</ele>
        <time>2024-08-11T10:03:25Z</time>
      </trkpt>
      <trkpt lat="45.02586" lon="6.67591">
        <ele>2222.71</ele>
        <time>2024-08-11T10:03:27Z</time>
      </trkpt>
      <trkpt lat="45.02589" lon="6.67562">
        <ele>2221.74</ele>
        <time>2024-08-11T10:03:33Z</time>
      </trkpt>
      <trkpt lat="45.0259" lon="6.67555">
        <ele>2221.26</ele>
        <time>2024-08-11T10:03:34Z</time>
      </trkpt>
      <trkpt lat="45.02592" lon="6.67549">
        <ele>2220.3</ele>
        <time>2024-08-11T10:03:35Z</time>
      </trkpt>
      <trkpt lat="45.02595" lon="6.67536">
        <ele>2219.34</ele>
        <time>2024-08-11T10:03:37Z</time>
      </trkpt>
      <trkpt lat="45.02596" lon="6.6753">
        <ele>2218.86</ele>
        <time>2024-08-11T10:03:38Z</time>
      </trkpt>
      <trkpt lat="45.02601" lon="6.67493">
        <ele>2215.98</ele>
        <time>2024-08-11T10:03:43Z</time>
      </trkpt>
      <trkpt lat="45.02606" lon="6.67467">
        <ele>2212.13</ele>
        <time>2024-08-11T10:03:47Z</time>
      </trkpt>
      <trkpt lat="45.02607" lon="6.67464">
        <ele>2212.13</ele>
        <time>2024-08-11T10:03:48Z</time>
      </trkpt>
      <trkpt lat="45.02608" lon="6.67451">
        <ele>2210.69</ele>
        <time>2024-08-11T10:03:51Z</time>
      </trkpt>
      <trkpt lat="45.0261" lon="6.67447">
        <ele>2210.69</ele>
        <time>2024-08-11T10:03:52Z</time>
      </trkpt>
      <trkpt lat="45.02613" lon="6.67438">
        <ele>2210.21</ele>
        <time>2024-08-11T10:03:54Z</time>
      </trkpt>
      <trkpt lat="45.02614" lon="6.67432">
        <ele>2209.73</ele>
        <time>2024-08-11T10:03:55Z</time>
      </trkpt>
      <trkpt lat="45.02613" lon="6.67427">
        <ele>2209.73</ele>
        <time>2024-08-11T10:03:56Z</time>
      </trkpt>
      <trkpt lat="45.02612" lon="6.67422">
        <ele>2209.73</ele>
        <time>2024-08-11T10:03:57Z</time>
      </trkpt>
      <trkpt lat="45.02612" lon="6.67418">
        <ele>2209.73</ele>
        <time>2024-08-11T10:03:58Z</time>
      </trkpt>
      <trkpt lat="45.02611" lon="6.67414">
        <ele>2209.73</ele>
        <time>2024-08-11T10:03:59Z</time>
      </trkpt>
      <trkpt lat="45.02611" lon="6.67411">
        <ele>2209.73</ele>
        <time>2024-08-11T10:04:00Z</time>
      </trkpt>
      <trkpt lat="45.02611" lon="6.67409">
        <ele>2209.73</ele>
        <time>2024-08-11T10:04:01Z</time>
      </trkpt>
      <trkpt lat="45.02612" lon="6.67407">
        <ele>2209.73</ele>
        <time>2024-08-11T10:04:02Z</time>
      </trkpt>
      <trkpt lat="45.02613" lon="6.67399">
        <ele>2209.73</ele>
        <time>2024-08-11T10:04:06Z</time>
      </trkpt>
      <trkpt lat="45.02614" lon="6.67398">
        <ele>2209.73</ele>
        <time>2024-08-11T10:04:07Z</time>
      </trkpt>
      <trkpt lat="45.02614" lon="6.67397">
        <ele>2209.73</ele>
        <time>2024-08-11T10:04:08Z</time>
      </trkpt>
      <trkpt lat="45.02614" lon="6.67395">
        <ele>2209.73</ele>
        <time>2024-08-11T10:04:09Z</time>
      </trkpt>
      <trkpt lat="45.02615" lon="6.67393">
        <ele>2209.73</ele>
        <time>2024-08-11T10:04:10Z</time>
      </trkpt>
      <trkpt lat="45.02615" lon="6.67391">
        <ele>2210.21</ele>
        <time>2024-08-11T10:04:11Z</time>
      </trkpt>
      <trkpt lat="45.02616" lon="6.67389">
        <ele>2210.21</ele>
        <time>2024-08-11T10:04:12Z</time>
      </trkpt>
      <trkpt lat="45.02616" lon="6.67388">
        <ele>2211.17</ele>
        <time>2024-08-11T10:04:13Z</time>
      </trkpt>
      <trkpt lat="45.02617" lon="6.67386">
        <ele>2211.17</ele>
        <time>2024-08-11T10:04:14Z</time>
      </trkpt>
      <trkpt lat="45.02618" lon="6.67385">
        <ele>2211.65</ele>
        <time>2024-08-11T10:04:15Z</time>
      </trkpt>
      <trkpt lat="45.02618" lon="6.67383">
        <ele>2211.65</ele>
        <time>2024-08-11T10:04:16Z</time>
      </trkpt>
      <trkpt lat="45.02619" lon="6.67382">
        <ele>2212.13</ele>
        <time>2024-08-11T10:04:17Z</time>
      </trkpt>
      <trkpt lat="45.02623" lon="6.67374">
        <ele>2212.61</ele>
        <time>2024-08-11T10:04:29Z</time>
      </trkpt>
      <trkpt lat="45.02633" lon="6.67359">
        <ele>2214.53</ele>
        <time>2024-08-11T10:04:41Z</time>
      </trkpt>
      <trkpt lat="45.02636" lon="6.67351">
        <ele>2215.98</ele>
        <time>2024-08-11T10:04:46Z</time>
      </trkpt>
      <trkpt lat="45.0264" lon="6.67347">
        <ele>2216.46</ele>
        <time>2024-08-11T10:04:57Z</time>
      </trkpt>
      <trkpt lat="45.02641" lon="6.67345">
        <ele>2216.46</ele>
        <time>2024-08-11T10:04:59Z</time>
      </trkpt>
      <trkpt lat="45.02648" lon="6.67337">
        <ele>2218.38</ele>
        <time>2024-08-11T10:05:11Z</time>
      </trkpt>
      <trkpt lat="45.0265" lon="6.67335">
        <ele>2218.38</ele>
        <time>2024-08-11T10:05:12Z</time>
      </trkpt>
      <trkpt lat="45.02651" lon="6.67334">
        <ele>2218.86</ele>
        <time>2024-08-11T10:05:13Z</time>
      </trkpt>
      <trkpt lat="45.02651" lon="6.67332">
        <ele>2219.34</ele>
        <time>2024-08-11T10:05:14Z</time>
      </trkpt>
      <trkpt lat="45.02652" lon="6.67331">
        <ele>2219.34</ele>
        <time>2024-08-11T10:05:15Z</time>
      </trkpt>
      <trkpt lat="45.02653" lon="6.6733">
        <ele>2219.82</ele>
        <time>2024-08-11T10:05:16Z</time>
      </trkpt>
      <trkpt lat="45.0266" lon="6.67324">
        <ele>2220.78</ele>
        <time>2024-08-11T10:05:28Z</time>
      </trkpt>
      <trkpt lat="45.02674" lon="6.67298">
        <ele>2224.15</ele>
        <time>2024-08-11T10:05:45Z</time>
      </trkpt>
      <trkpt lat="45.02675" lon="6.67295">
        <ele>2224.15</ele>
        <time>2024-08-11T10:05:47Z</time>
      </trkpt>
      <trkpt lat="45.02676" lon="6.67294">
        <ele>2224.63</ele>
        <time>2024-08-11T10:05:48Z</time>
      </trkpt>
      <trkpt lat="45.02677" lon="6.67293">
        <ele>2224.63</ele>
        <time>2024-08-11T10:05:49Z</time>
      </trkpt>
      <trkpt lat="45.02686" lon="6.67271">
        <ele>2227.99</ele>
        <time>2024-08-11T10:06:04Z</time>
      </trkpt>
      <trkpt lat="45.02693" lon="6.67245">
        <ele>2230.88</ele>
        <time>2024-08-11T10:06:20Z</time>
      </trkpt>
      <trkpt lat="45.02706" lon="6.67224">
        <ele>2233.76</ele>
        <time>2024-08-11T10:06:37Z</time>
      </trkpt>
      <trkpt lat="45.02719" lon="6.67213">
        <ele>2237.13</ele>
        <time>2024-08-11T10:06:50Z</time>
      </trkpt>
      <trkpt lat="45.02729" lon="6.67207">
        <ele>2239.53</ele>
        <time>2024-08-11T10:06:59Z</time>
      </trkpt>
      <trkpt lat="45.0273" lon="6.67206">
        <ele>2239.53</ele>
        <time>2024-08-11T10:07:00Z</time>
      </trkpt>
      <trkpt lat="45.02731" lon="6.67205">
        <ele>2240.01</ele>
        <time>2024-08-11T10:07:01Z</time>
      </trkpt>
      <trkpt lat="45.02732" lon="6.67204">
        <ele>2240.01</ele>
        <time>2024-08-11T10:07:02Z</time>
      </trkpt>
      <trkpt lat="45.02733" lon="6.67203">
        <ele>2240.49</ele>
        <time>2024-08-11T10:07:03Z</time>
      </trkpt>
      <trkpt lat="45.02734" lon="6.672">
        <ele>2241.45</ele>
        <time>2024-08-11T10:07:14Z</time>
      </trkpt>
      <trkpt lat="45.02737" lon="6.67197">
        <ele>2241.93</ele>
        <time>2024-08-11T10:07:29Z</time>
      </trkpt>
      <trkpt lat="45.0274" lon="6.67191">
        <ele>2244.33</ele>
        <time>2024-08-11T10:07:43Z</time>
      </trkpt>
      <trkpt lat="45.02733" lon="6.67186">
        <ele>2245.78</ele>
        <time>2024-08-11T10:07:57Z</time>
      </trkpt>
      <trkpt lat="45.02734" lon="6.67172">
        <ele>2248.18</ele>
        <time>2024-08-11T10:08:12Z</time>
      </trkpt>
      <trkpt lat="45.02739" lon="6.67161">
        <ele>2250.58</ele>
        <time>2024-08-11T10:08:29Z</time>
      </trkpt>
      <trkpt lat="45.02745" lon="6.67154">
        <ele>2252.99</ele>
        <time>2024-08-11T10:08:42Z</time>
      </trkpt>
      <trkpt lat="45.0275" lon="6.67148">
        <ele>2255.39</ele>
        <time>2024-08-11T10:08:56Z</time>
      </trkpt>
      <trkpt lat="45.02755" lon="6.67136">
        <ele>2257.31</ele>
        <time>2024-08-11T10:09:10Z</time>
      </trkpt>
      <trkpt lat="45.02761" lon="6.67121">
        <ele>2258.75</ele>
        <time>2024-08-11T10:09:21Z</time>
      </trkpt>
      <trkpt lat="45.02782" lon="6.6709">
        <ele>2262.12</ele>
        <time>2024-08-11T10:09:41Z</time>
      </trkpt>
      <trkpt lat="45.02796" lon="6.67058">
        <ele>2264.04</ele>
        <time>2024-08-11T10:09:56Z</time>
      </trkpt>
      <trkpt lat="45.02815" lon="6.67011">
        <ele>2266.93</ele>
        <time>2024-08-11T10:10:13Z</time>
      </trkpt>
      <trkpt lat="45.02834" lon="6.66963">
        <ele>2267.89</ele>
        <time>2024-08-11T10:10:29Z</time>
      </trkpt>
      <trkpt lat="45.02844" lon="6.66941">
        <ele>2271.25</ele>
        <time>2024-08-11T10:10:39Z</time>
      </trkpt>
      <trkpt lat="45.02855" lon="6.66911">
        <ele>2273.66</ele>
        <time>2024-08-11T10:10:53Z</time>
      </trkpt>
      <trkpt lat="45.02858" lon="6.66906">
        <ele>2272.69</ele>
        <time>2024-08-11T10:10:59Z</time>
      </trkpt>
      <trkpt lat="45.02856" lon="6.66907">
        <ele>2274.14</ele>
        <time>2024-08-11T10:11:31Z</time>
      </trkpt>
      <trkpt lat="45.02857" lon="6.66906">
        <ele>2274.14</ele>
        <time>2024-08-11T10:12:05Z</time>
      </trkpt>
      <trkpt lat="45.02857" lon="6.66906">
        <ele>2273.17</ele>
        <time>2024-08-11T10:12:26Z</time>
      </trkpt>
      <trkpt lat="45.02855" lon="6.66907">
        <ele>2272.21</ele>
        <time>2024-08-11T10:13:04Z</time>
      </trkpt>
      <trkpt lat="45.02857" lon="6.66905">
        <ele>2274.14</ele>
        <time>2024-08-11T10:13:29Z</time>
      </trkpt>
      <trkpt lat="45.02858" lon="6.66906">
        <ele>2274.14</ele>
        <time>2024-08-11T10:13:55Z</time>
      </trkpt>
      <trkpt lat="45.02858" lon="6.66906">
        <ele>2274.14</ele>
        <time>2024-08-11T10:14:22Z</time>
      </trkpt>
      <trkpt lat="45.02864" lon="6.66896">
        <ele>2276.54</ele>
        <time>2024-08-11T10:14:45Z</time>
      </trkpt>
      <trkpt lat="45.02879" lon="6.66879">
        <ele>2273.66</ele>
        <time>2024-08-11T10:14:52Z</time>
      </trkpt>
      <trkpt lat="45.02885" lon="6.66872">
        <ele>2271.73</ele>
        <time>2024-08-11T10:14:54Z</time>
      </trkpt>
      <trkpt lat="45.02894" lon="6.66853">
        <ele>2268.85</ele>
        <time>2024-08-11T10:14:58Z</time>
      </trkpt>
      <trkpt lat="45.02895" lon="6.66847">
        <ele>2267.89</ele>
        <time>2024-08-11T10:14:59Z</time>
      </trkpt>
      <trkpt lat="45.02896" lon="6.66823">
        <ele>2265</ele>
        <time>2024-08-11T10:15:02Z</time>
      </trkpt>
      <trkpt lat="45.02897" lon="6.66815">
        <ele>2263.08</ele>
        <time>2024-08-11T10:15:03Z</time>
      </trkpt>
      <trkpt lat="45.02899" lon="6.66809">
        <ele>2262.12</ele>
        <time>2024-08-11T10:15:04Z</time>
      </trkpt>
      <trkpt lat="45.02903" lon="6.66804">
        <ele>2262.12</ele>
        <time>2024-08-11T10:15:05Z</time>
      </trkpt>
      <trkpt lat="45.02907" lon="6.66798">
        <ele>2262.12</ele>
        <time>2024-08-11T10:15:06Z</time>
      </trkpt>
      <trkpt lat="45.02914" lon="6.66788">
        <ele>2262.12</ele>
        <time>2024-08-11T10:15:08Z</time>
      </trkpt>
      <trkpt lat="45.02917" lon="6.66783">
        <ele>2262.12</ele>
        <time>2024-08-11T10:15:09Z</time>
      </trkpt>
      <trkpt lat="45.0293" lon="6.66766">
        <ele>2260.68</ele>
        <time>2024-08-11T10:15:12Z</time>
      </trkpt>
      <trkpt lat="45.02935" lon="6.6676">
        <ele>2261.64</ele>
        <time>2024-08-11T10:15:13Z</time>
      </trkpt>
      <trkpt lat="45.02968" lon="6.66723">
        <ele>2264.04</ele>
        <time>2024-08-11T10:15:24Z</time>
      </trkpt>
      <trkpt lat="45.02973" lon="6.66712">
        <ele>2266.93</ele>
        <time>2024-08-11T10:15:28Z</time>
      </trkpt>
      <trkpt lat="45.02975" lon="6.66709">
        <ele>2266.93</ele>
        <time>2024-08-11T10:15:29Z</time>
      </trkpt>
      <trkpt lat="45.02979" lon="6.66704">
        <ele>2265.48</ele>
        <time>2024-08-11T10:15:31Z</time>
      </trkpt>
      <trkpt lat="45.02982" lon="6.66701">
        <ele>2266.93</ele>
        <time>2024-08-11T10:15:33Z</time>
      </trkpt>
      <trkpt lat="45.02995" lon="6.66687">
        <ele>2265.48</ele>
        <time>2024-08-11T10:15:39Z</time>
      </trkpt>
      <trkpt lat="45.02997" lon="6.66682">
        <ele>2265.48</ele>
        <time>2024-08-11T10:15:40Z</time>
      </trkpt>
      <trkpt lat="45.03001" lon="6.66672">
        <ele>2265.48</ele>
        <time>2024-08-11T10:15:42Z</time>
      </trkpt>
      <trkpt lat="45.03005" lon="6.66667">
        <ele>2265.48</ele>
        <time>2024-08-11T10:15:43Z</time>
      </trkpt>
      <trkpt lat="45.03009" lon="6.66664">
        <ele>2265.48</ele>
        <time>2024-08-11T10:15:44Z</time>
      </trkpt>
      <trkpt lat="45.03013" lon="6.66661">
        <ele>2264.04</ele>
        <time>2024-08-11T10:15:45Z</time>
      </trkpt>
      <trkpt lat="45.03015" lon="6.66657">
        <ele>2264.04</ele>
        <time>2024-08-11T10:15:46Z</time>
      </trkpt>
      <trkpt lat="45.03018" lon="6.66651">
        <ele>2262.6</ele>
        <time>2024-08-11T10:15:47Z</time>
      </trkpt>
      <trkpt lat="45.03021" lon="6.66645">
        <ele>2262.6</ele>
        <time>2024-08-11T10:15:48Z</time>
      </trkpt>
      <trkpt lat="45.03025" lon="6.66639">
        <ele>2262.6</ele>
        <time>2024-08-11T10:15:49Z</time>
      </trkpt>
      <trkpt lat="45.03029" lon="6.66635">
        <ele>2260.68</ele>
        <time>2024-08-11T10:15:50Z</time>
      </trkpt>
      <trkpt lat="45.03033" lon="6.66634">
        <ele>2259.72</ele>
        <time>2024-08-11T10:15:51Z</time>
      </trkpt>
      <trkpt lat="45.03038" lon="6.66634">
        <ele>2259.72</ele>
        <time>2024-08-11T10:15:52Z</time>
      </trkpt>
      <trkpt lat="45.0305" lon="6.66634">
        <ele>2258.75</ele>
        <time>2024-08-11T10:15:54Z</time>
      </trkpt>
      <trkpt lat="45.03056" lon="6.66631">
        <ele>2256.35</ele>
        <time>2024-08-11T10:15:55Z</time>
      </trkpt>
      <trkpt lat="45.03062" lon="6.66626">
        <ele>2253.95</ele>
        <time>2024-08-11T10:15:56Z</time>
      </trkpt>
      <trkpt lat="45.03072" lon="6.66617">
        <ele>2251.54</ele>
        <time>2024-08-11T10:15:58Z</time>
      </trkpt>
      <trkpt lat="45.03072" lon="6.66613">
        <ele>2251.06</ele>
        <time>2024-08-11T10:15:59Z</time>
      </trkpt>
      <trkpt lat="45.03071" lon="6.6661">
        <ele>2250.58</ele>
        <time>2024-08-11T10:16:00Z</time>
      </trkpt>
      <trkpt lat="45.03069" lon="6.66607">
        <ele>2250.58</ele>
        <time>2024-08-11T10:16:01Z</time>
      </trkpt>
      <trkpt lat="45.03067" lon="6.66605">
        <ele>2249.62</ele>
        <time>2024-08-11T10:16:02Z</time>
      </trkpt>
      <trkpt lat="45.03066" lon="6.66603">
        <ele>2249.62</ele>
        <time>2024-08-11T10:16:03Z</time>
      </trkpt>
      <trkpt lat="45.03065" lon="6.666">
        <ele>2249.14</ele>
        <time>2024-08-11T10:16:04Z</time>
      </trkpt>
      <trkpt lat="45.03064" lon="6.66596">
        <ele>2248.66</ele>
        <time>2024-08-11T10:16:05Z</time>
      </trkpt>
      <trkpt lat="45.03062" lon="6.66594">
        <ele>2248.18</ele>
        <time>2024-08-11T10:16:06Z</time>
      </trkpt>
      <trkpt lat="45.03061" lon="6.66592">
        <ele>2247.7</ele>
        <time>2024-08-11T10:16:07Z</time>
      </trkpt>
      <trkpt lat="45.03061" lon="6.6659">
        <ele>2247.22</ele>
        <time>2024-08-11T10:16:08Z</time>
      </trkpt>
      <trkpt lat="45.03063" lon="6.66589">
        <ele>2246.26</ele>
        <time>2024-08-11T10:16:09Z</time>
      </trkpt>
      <trkpt lat="45.03066" lon="6.66588">
        <ele>2246.26</ele>
        <time>2024-08-11T10:16:10Z</time>
      </trkpt>
      <trkpt lat="45.0307" lon="6.66586">
        <ele>2245.78</ele>
        <time>2024-08-11T10:16:11Z</time>
      </trkpt>
      <trkpt lat="45.03074" lon="6.66585">
        <ele>2245.78</ele>
        <time>2024-08-11T10:16:12Z</time>
      </trkpt>
      <trkpt lat="45.03078" lon="6.6658">
        <ele>2244.82</ele>
        <time>2024-08-11T10:16:13Z</time>
      </trkpt>
      <trkpt lat="45.03082" lon="6.66575">
        <ele>2244.82</ele>
        <time>2024-08-11T10:16:14Z</time>
      </trkpt>
      <trkpt lat="45.03084" lon="6.6657">
        <ele>2244.33</ele>
        <time>2024-08-11T10:16:15Z</time>
      </trkpt>
      <trkpt lat="45.03086" lon="6.66565">
        <ele>2244.33</ele>
        <time>2024-08-11T10:16:16Z</time>
      </trkpt>
      <trkpt lat="45.03087" lon="6.66564">
        <ele>2243.85</ele>
        <time>2024-08-11T10:16:17Z</time>
      </trkpt>
      <trkpt lat="45.03088" lon="6.66562">
        <ele>2243.85</ele>
        <time>2024-08-11T10:16:18Z</time>
      </trkpt>
      <trkpt lat="45.03093" lon="6.66558">
        <ele>2244.33</ele>
        <time>2024-08-11T10:16:28Z</time>
      </trkpt>
      <trkpt lat="45.03096" lon="6.66556">
        <ele>2245.78</ele>
        <time>2024-08-11T10:16:30Z</time>
      </trkpt>
      <trkpt lat="45.03117" lon="6.66542">
        <ele>2248.66</ele>
        <time>2024-08-11T10:16:44Z</time>
      </trkpt>
      <trkpt lat="45.03119" lon="6.6654">
        <ele>2249.14</ele>
        <time>2024-08-11T10:16:45Z</time>
      </trkpt>
      <trkpt lat="45.03122" lon="6.6654">
        <ele>2249.14</ele>
        <time>2024-08-11T10:16:46Z</time>
      </trkpt>
      <trkpt lat="45.03124" lon="6.66539">
        <ele>2248.66</ele>
        <time>2024-08-11T10:16:47Z</time>
      </trkpt>
      <trkpt lat="45.03135" lon="6.66536">
        <ele>2247.22</ele>
        <time>2024-08-11T10:16:50Z</time>
      </trkpt>
      <trkpt lat="45.0314" lon="6.66534">
        <ele>2246.74</ele>
        <time>2024-08-11T10:16:51Z</time>
      </trkpt>
      <trkpt lat="45.03144" lon="6.66531">
        <ele>2245.78</ele>
        <time>2024-08-11T10:16:52Z</time>
      </trkpt>
      <trkpt lat="45.03146" lon="6.66527">
        <ele>2245.3</ele>
        <time>2024-08-11T10:16:53Z</time>
      </trkpt>
      <trkpt lat="45.03147" lon="6.66525">
        <ele>2245.3</ele>
        <time>2024-08-11T10:16:54Z</time>
      </trkpt>
      <trkpt lat="45.03148" lon="6.66523">
        <ele>2245.3</ele>
        <time>2024-08-11T10:16:55Z</time>
      </trkpt>
      <trkpt lat="45.03149" lon="6.66521">
        <ele>2245.3</ele>
        <time>2024-08-11T10:16:56Z</time>
      </trkpt>
      <trkpt lat="45.0315" lon="6.66519">
        <ele>2245.3</ele>
        <time>2024-08-11T10:16:57Z</time>
      </trkpt>
      <trkpt lat="45.03152" lon="6.66518">
        <ele>2245.3</ele>
        <time>2024-08-11T10:16:58Z</time>
      </trkpt>
      <trkpt lat="45.03153" lon="6.66517">
        <ele>2245.3</ele>
        <time>2024-08-11T10:16:59Z</time>
      </trkpt>
      <trkpt lat="45.03155" lon="6.66516">
        <ele>2245.3</ele>
        <time>2024-08-11T10:17:00Z</time>
      </trkpt>
      <trkpt lat="45.03156" lon="6.66514">
        <ele>2245.3</ele>
        <time>2024-08-11T10:17:01Z</time>
      </trkpt>
      <trkpt lat="45.03158" lon="6.66511">
        <ele>2245.3</ele>
        <time>2024-08-11T10:17:02Z</time>
      </trkpt>
      <trkpt lat="45.03159" lon="6.66507">
        <ele>2245.3</ele>
        <time>2024-08-11T10:17:03Z</time>
      </trkpt>
      <trkpt lat="45.03161" lon="6.66504">
        <ele>2245.3</ele>
        <time>2024-08-11T10:17:04Z</time>
      </trkpt>
      <trkpt lat="45.03164" lon="6.66498">
        <ele>2246.26</ele>
        <time>2024-08-11T10:17:08Z</time>
      </trkpt>
      <trkpt lat="45.03165" lon="6.66498">
        <ele>2246.26</ele>
        <time>2024-08-11T10:17:09Z</time>
      </trkpt>
      <trkpt lat="45.03172" lon="6.66497">
        <ele>2246.26</ele>
        <time>2024-08-11T10:17:14Z</time>
      </trkpt>
      <trkpt lat="45.03173" lon="6.66497">
        <ele>2246.74</ele>
        <time>2024-08-11T10:17:15Z</time>
      </trkpt>
      <trkpt lat="45.0318" lon="6.66497">
        <ele>2248.18</ele>
        <time>2024-08-11T10:17:21Z</time>
      </trkpt>
      <trkpt lat="45.03183" lon="6.66497">
        <ele>2248.66</ele>
        <time>2024-08-11T10:17:36Z</time>
      </trkpt>
      <trkpt lat="45.03182" lon="6.66499">
        <ele>2248.18</ele>
        <time>2024-08-11T10:17:37Z</time>
      </trkpt>
      <trkpt lat="45.03183" lon="6.66501">
        <ele>2248.18</ele>
        <time>2024-08-11T10:17:39Z</time>
      </trkpt>
      <trkpt lat="45.03184" lon="6.66502">
        <ele>2248.18</ele>
        <time>2024-08-11T10:17:40Z</time>
      </trkpt>
      <trkpt lat="45.03185" lon="6.66502">
        <ele>2248.18</ele>
        <time>2024-08-11T10:17:41Z</time>
      </trkpt>
      <trkpt lat="45.03186" lon="6.66503">
        <ele>2247.7</ele>
        <time>2024-08-11T10:17:42Z</time>
      </trkpt>
      <trkpt lat="45.03188" lon="6.66502">
        <ele>2247.22</ele>
        <time>2024-08-11T10:17:43Z</time>
      </trkpt>
      <trkpt lat="45.03195" lon="6.66499">
        <ele>2246.74</ele>
        <time>2024-08-11T10:17:46Z</time>
      </trkpt>
      <trkpt lat="45.03196" lon="6.66496">
        <ele>2246.74</ele>
        <time>2024-08-11T10:17:47Z</time>
      </trkpt>
      <trkpt lat="45.03195" lon="6.66493">
        <ele>2245.3</ele>
        <time>2024-08-11T10:17:48Z</time>
      </trkpt>
      <trkpt lat="45.03196" lon="6.66488">
        <ele>2245.3</ele>
        <time>2024-08-11T10:17:49Z</time>
      </trkpt>
      <trkpt lat="45.03198" lon="6.66485">
        <ele>2245.3</ele>
        <time>2024-08-11T10:17:50Z</time>
      </trkpt>
      <trkpt lat="45.032" lon="6.66484">
        <ele>2244.82</ele>
        <time>2024-08-11T10:17:54Z</time>
      </trkpt>
      <trkpt lat="45.03202" lon="6.66482">
        <ele>2244.82</ele>
        <time>2024-08-11T10:17:55Z</time>
      </trkpt>
      <trkpt lat="45.03226" lon="6.66474">
        <ele>2244.82</ele>
        <time>2024-08-11T10:18:07Z</time>
      </trkpt>
      <trkpt lat="45.0324" lon="6.66471">
        <ele>2248.66</ele>
        <time>2024-08-11T10:18:15Z</time>
      </trkpt>
      <trkpt lat="45.03242" lon="6.6647">
        <ele>2248.66</ele>
        <time>2024-08-11T10:18:16Z</time>
      </trkpt>
      <trkpt lat="45.03261" lon="6.66471">
        <ele>2247.22</ele>
        <time>2024-08-11T10:18:25Z</time>
      </trkpt>
      <trkpt lat="45.03264" lon="6.66474">
        <ele>2247.22</ele>
        <time>2024-08-11T10:18:26Z</time>
      </trkpt>
      <trkpt lat="45.03268" lon="6.66477">
        <ele>2246.74</ele>
        <time>2024-08-11T10:18:27Z</time>
      </trkpt>
      <trkpt lat="45.03272" lon="6.66474">
        <ele>2246.74</ele>
        <time>2024-08-11T10:18:29Z</time>
      </trkpt>
      <trkpt lat="45.03272" lon="6.66472">
        <ele>2248.18</ele>
        <time>2024-08-11T10:18:39Z</time>
      </trkpt>
      <trkpt lat="45.03274" lon="6.66465">
        <ele>2250.58</ele>
        <time>2024-08-11T10:18:53Z</time>
      </trkpt>
      <trkpt lat="45.03275" lon="6.6646">
        <ele>2251.06</ele>
        <time>2024-08-11T10:19:00Z</time>
      </trkpt>
      <trkpt lat="45.03276" lon="6.66457">
        <ele>2251.06</ele>
        <time>2024-08-11T10:19:01Z</time>
      </trkpt>
      <trkpt lat="45.03277" lon="6.66457">
        <ele>2251.06</ele>
        <time>2024-08-11T10:19:02Z</time>
      </trkpt>
      <trkpt lat="45.03278" lon="6.66455">
        <ele>2252.03</ele>
        <time>2024-08-11T10:19:03Z</time>
      </trkpt>
      <trkpt lat="45.03279" lon="6.66454">
        <ele>2252.03</ele>
        <time>2024-08-11T10:19:04Z</time>
      </trkpt>
      <trkpt lat="45.0328" lon="6.66452">
        <ele>2252.03</ele>
        <time>2024-08-11T10:19:05Z</time>
      </trkpt>
      <trkpt lat="45.03281" lon="6.6645">
        <ele>2252.03</ele>
        <time>2024-08-11T10:19:06Z</time>
      </trkpt>
      <trkpt lat="45.03282" lon="6.66449">
        <ele>2252.03</ele>
        <time>2024-08-11T10:19:07Z</time>
      </trkpt>
      <trkpt lat="45.03284" lon="6.66447">
        <ele>2252.03</ele>
        <time>2024-08-11T10:19:08Z</time>
      </trkpt>
      <trkpt lat="45.03288" lon="6.66442">
        <ele>2253.47</ele>
        <time>2024-08-11T10:19:11Z</time>
      </trkpt>
      <trkpt lat="45.03292" lon="6.66438">
        <ele>2253.95</ele>
        <time>2024-08-11T10:19:14Z</time>
      </trkpt>
      <trkpt lat="45.03293" lon="6.66436">
        <ele>2253.95</ele>
        <time>2024-08-11T10:19:15Z</time>
      </trkpt>
      <trkpt lat="45.03294" lon="6.66435">
        <ele>2253.47</ele>
        <time>2024-08-11T10:19:16Z</time>
      </trkpt>
      <trkpt lat="45.03295" lon="6.66433">
        <ele>2254.43</ele>
        <time>2024-08-11T10:19:17Z</time>
      </trkpt>
      <trkpt lat="45.03297" lon="6.66432">
        <ele>2254.43</ele>
        <time>2024-08-11T10:19:18Z</time>
      </trkpt>
      <trkpt lat="45.03299" lon="6.66431">
        <ele>2254.43</ele>
        <time>2024-08-11T10:19:19Z</time>
      </trkpt>
      <trkpt lat="45.03326" lon="6.66428">
        <ele>2255.87</ele>
        <time>2024-08-11T10:19:34Z</time>
      </trkpt>
      <trkpt lat="45.03349" lon="6.66421">
        <ele>2258.27</ele>
        <time>2024-08-11T10:19:49Z</time>
      </trkpt>
      <trkpt lat="45.03367" lon="6.66411">
        <ele>2259.72</ele>
        <time>2024-08-11T10:20:03Z</time>
      </trkpt>
      <trkpt lat="45.03384" lon="6.66395">
        <ele>2260.68</ele>
        <time>2024-08-11T10:20:11Z</time>
      </trkpt>
      <trkpt lat="45.03385" lon="6.66391">
        <ele>2258.27</ele>
        <time>2024-08-11T10:20:12Z</time>
      </trkpt>
      <trkpt lat="45.03386" lon="6.66387">
        <ele>2258.27</ele>
        <time>2024-08-11T10:20:13Z</time>
      </trkpt>
      <trkpt lat="45.03391" lon="6.66375">
        <ele>2255.87</ele>
        <time>2024-08-11T10:20:17Z</time>
      </trkpt>
      <trkpt lat="45.03395" lon="6.66376">
        <ele>2254.91</ele>
        <time>2024-08-11T10:20:18Z</time>
      </trkpt>
      <trkpt lat="45.03397" lon="6.66377">
        <ele>2254.91</ele>
        <time>2024-08-11T10:20:19Z</time>
      </trkpt>
      <trkpt lat="45.03401" lon="6.66378">
        <ele>2253.95</ele>
        <time>2024-08-11T10:20:20Z</time>
      </trkpt>
      <trkpt lat="45.03406" lon="6.66381">
        <ele>2253.47</ele>
        <time>2024-08-11T10:20:21Z</time>
      </trkpt>
      <trkpt lat="45.03412" lon="6.66385">
        <ele>2253.47</ele>
        <time>2024-08-11T10:20:22Z</time>
      </trkpt>
      <trkpt lat="45.03428" lon="6.66396">
        <ele>2251.54</ele>
        <time>2024-08-11T10:20:25Z</time>
      </trkpt>
      <trkpt lat="45.03435" lon="6.66398">
        <ele>2249.62</ele>
        <time>2024-08-11T10:20:26Z</time>
      </trkpt>
      <trkpt lat="45.03442" lon="6.66401">
        <ele>2249.62</ele>
        <time>2024-08-11T10:20:28Z</time>
      </trkpt>
      <trkpt lat="45.0345" lon="6.66403">
        <ele>2247.7</ele>
        <time>2024-08-11T10:20:29Z</time>
      </trkpt>
      <trkpt lat="45.03454" lon="6.66404">
        <ele>2247.22</ele>
        <time>2024-08-11T10:20:30Z</time>
      </trkpt>
      <trkpt lat="45.03459" lon="6.66405">
        <ele>2247.7</ele>
        <time>2024-08-11T10:20:31Z</time>
      </trkpt>
      <trkpt lat="45.03463" lon="6.66406">
        <ele>2249.14</ele>
        <time>2024-08-11T10:20:32Z</time>
      </trkpt>
      <trkpt lat="45.03472" lon="6.66408">
        <ele>2247.22</ele>
        <time>2024-08-11T10:20:34Z</time>
      </trkpt>
      <trkpt lat="45.03474" lon="6.66408">
        <ele>2247.7</ele>
        <time>2024-08-11T10:20:35Z</time>
      </trkpt>
      <trkpt lat="45.03484" lon="6.66412">
        <ele>2249.14</ele>
        <time>2024-08-11T10:20:40Z</time>
      </trkpt>
      <trkpt lat="45.03501" lon="6.66414">
        <ele>2246.26</ele>
        <time>2024-08-11T10:20:47Z</time>
      </trkpt>
      <trkpt lat="45.03501" lon="6.66415">
        <ele>2244.82</ele>
        <time>2024-08-11T10:20:49Z</time>
      </trkpt>
      <trkpt lat="45.03502" lon="6.66413">
        <ele>2244.82</ele>
        <time>2024-08-11T10:21:05Z</time>
      </trkpt>
      <trkpt lat="45.03502" lon="6.66414">
        <ele>2246.26</ele>
        <time>2024-08-11T10:21:13Z</time>
      </trkpt>
      <trkpt lat="45.03502" lon="6.66415">
        <ele>2246.26</ele>
        <time>2024-08-11T10:21:33Z</time>
      </trkpt>
      <trkpt lat="45.03502" lon="6.66414">
        <ele>2246.26</ele>
        <time>2024-08-11T10:21:58Z</time>
      </trkpt>
      <trkpt lat="45.03502" lon="6.66413">
        <ele>2246.26</ele>
        <time>2024-08-11T10:22:25Z</time>
      </trkpt>
      <trkpt lat="45.03516" lon="6.66413">
        <ele>2244.33</ele>
        <time>2024-08-11T10:22:33Z</time>
      </trkpt>
      <trkpt lat="45.03519" lon="6.66412">
        <ele>2243.37</ele>
        <time>2024-08-11T10:22:34Z</time>
      </trkpt>
      <trkpt lat="45.03539" lon="6.66407">
        <ele>2239.53</ele>
        <time>2024-08-11T10:22:38Z</time>
      </trkpt>
      <trkpt lat="45.03544" lon="6.66407">
        <ele>2237.61</ele>
        <time>2024-08-11T10:22:39Z</time>
      </trkpt>
      <trkpt lat="45.03548" lon="6.66405">
        <ele>2236.16</ele>
        <time>2024-08-11T10:22:40Z</time>
      </trkpt>
      <trkpt lat="45.03552" lon="6.66403">
        <ele>2235.2</ele>
        <time>2024-08-11T10:22:41Z</time>
      </trkpt>
      <trkpt lat="45.03556" lon="6.66398">
        <ele>2234.24</ele>
        <time>2024-08-11T10:22:42Z</time>
      </trkpt>
      <trkpt lat="45.0356" lon="6.66393">
        <ele>2233.76</ele>
        <time>2024-08-11T10:22:43Z</time>
      </trkpt>
      <trkpt lat="45.0358" lon="6.66372">
        <ele>2230.4</ele>
        <time>2024-08-11T10:22:47Z</time>
      </trkpt>
      <trkpt lat="45.03584" lon="6.66371">
        <ele>2229.43</ele>
        <time>2024-08-11T10:22:48Z</time>
      </trkpt>
      <trkpt lat="45.03589" lon="6.66372">
        <ele>2228.47</ele>
        <time>2024-08-11T10:22:49Z</time>
      </trkpt>
      <trkpt lat="45.03593" lon="6.66375">
        <ele>2227.51</ele>
        <time>2024-08-11T10:22:50Z</time>
      </trkpt>
      <trkpt lat="45.03597" lon="6.66376">
        <ele>2226.07</ele>
        <time>2024-08-11T10:22:51Z</time>
      </trkpt>
      <trkpt lat="45.03599" lon="6.66374">
        <ele>2225.11</ele>
        <time>2024-08-11T10:22:52Z</time>
      </trkpt>
      <trkpt lat="45.03603" lon="6.66371">
        <ele>2224.63</ele>
        <time>2024-08-11T10:22:53Z</time>
      </trkpt>
      <trkpt lat="45.03606" lon="6.66369">
        <ele>2224.63</ele>
        <time>2024-08-11T10:22:54Z</time>
      </trkpt>
      <trkpt lat="45.03612" lon="6.66364">
        <ele>2223.67</ele>
        <time>2024-08-11T10:22:55Z</time>
      </trkpt>
      <trkpt lat="45.03621" lon="6.66356">
        <ele>2221.26</ele>
        <time>2024-08-11T10:22:57Z</time>
      </trkpt>
      <trkpt lat="45.03623" lon="6.66353">
        <ele>2219.82</ele>
        <time>2024-08-11T10:22:58Z</time>
      </trkpt>
      <trkpt lat="45.03625" lon="6.66352">
        <ele>2218.38</ele>
        <time>2024-08-11T10:22:59Z</time>
      </trkpt>
      <trkpt lat="45.03624" lon="6.66354">
        <ele>2218.86</ele>
        <time>2024-08-11T10:23:00Z</time>
      </trkpt>
      <trkpt lat="45.03623" lon="6.66359">
        <ele>2218.38</ele>
        <time>2024-08-11T10:23:02Z</time>
      </trkpt>
      <trkpt lat="45.03623" lon="6.66365">
        <ele>2217.42</ele>
        <time>2024-08-11T10:23:04Z</time>
      </trkpt>
      <trkpt lat="45.03628" lon="6.66362">
        <ele>2215.5</ele>
        <time>2024-08-11T10:23:05Z</time>
      </trkpt>
      <trkpt lat="45.0363" lon="6.66361">
        <ele>2215.98</ele>
        <time>2024-08-11T10:23:06Z</time>
      </trkpt>
      <trkpt lat="45.03636" lon="6.6636">
        <ele>2214.53</ele>
        <time>2024-08-11T10:23:07Z</time>
      </trkpt>
      <trkpt lat="45.03641" lon="6.6636">
        <ele>2213.09</ele>
        <time>2024-08-11T10:23:08Z</time>
      </trkpt>
      <trkpt lat="45.03644" lon="6.6636">
        <ele>2212.61</ele>
        <time>2024-08-11T10:23:09Z</time>
      </trkpt>
      <trkpt lat="45.03647" lon="6.6636">
        <ele>2211.65</ele>
        <time>2024-08-11T10:23:10Z</time>
      </trkpt>
      <trkpt lat="45.0365" lon="6.66359">
        <ele>2209.73</ele>
        <time>2024-08-11T10:23:11Z</time>
      </trkpt>
      <trkpt lat="45.03652" lon="6.66357">
        <ele>2208.77</ele>
        <time>2024-08-11T10:23:12Z</time>
      </trkpt>
      <trkpt lat="45.03654" lon="6.66355">
        <ele>2208.29</ele>
        <time>2024-08-11T10:23:13Z</time>
      </trkpt>
      <trkpt lat="45.0366" lon="6.66348">
        <ele>2207.32</ele>
        <time>2024-08-11T10:23:15Z</time>
      </trkpt>
      <trkpt lat="45.03663" lon="6.66344">
        <ele>2206.36</ele>
        <time>2024-08-11T10:23:16Z</time>
      </trkpt>
      <trkpt lat="45.03667" lon="6.66342">
        <ele>2205.88</ele>
        <time>2024-08-11T10:23:17Z</time>
      </trkpt>
      <trkpt lat="45.0367" lon="6.6634">
        <ele>2204.44</ele>
        <time>2024-08-11T10:23:18Z</time>
      </trkpt>
      <trkpt lat="45.03672" lon="6.66336">
        <ele>2203.48</ele>
        <time>2024-08-11T10:23:19Z</time>
      </trkpt>
      <trkpt lat="45.03674" lon="6.66332">
        <ele>2202.52</ele>
        <time>2024-08-11T10:23:20Z</time>
      </trkpt>
      <trkpt lat="45.03676" lon="6.6633">
        <ele>2202.52</ele>
        <time>2024-08-11T10:23:21Z</time>
      </trkpt>
      <trkpt lat="45.0368" lon="6.66331">
        <ele>2201.56</ele>
        <time>2024-08-11T10:23:22Z</time>
      </trkpt>
      <trkpt lat="45.03682" lon="6.66332">
        <ele>2201.56</ele>
        <time>2024-08-11T10:23:23Z</time>
      </trkpt>
      <trkpt lat="45.03684" lon="6.66331">
        <ele>2200.59</ele>
        <time>2024-08-11T10:23:24Z</time>
      </trkpt>
      <trkpt lat="45.03686" lon="6.66326">
        <ele>2199.63</ele>
        <time>2024-08-11T10:23:26Z</time>
      </trkpt>
      <trkpt lat="45.0369" lon="6.66318">
        <ele>2198.67</ele>
        <time>2024-08-11T10:23:27Z</time>
      </trkpt>
      <trkpt lat="45.03697" lon="6.66306">
        <ele>2195.79</ele>
        <time>2024-08-11T10:23:30Z</time>
      </trkpt>
      <trkpt lat="45.03697" lon="6.66302">
        <ele>2195.79</ele>
        <time>2024-08-11T10:23:31Z</time>
      </trkpt>
      <trkpt lat="45.03699" lon="6.66298">
        <ele>2194.83</ele>
        <time>2024-08-11T10:23:32Z</time>
      </trkpt>
      <trkpt lat="45.03705" lon="6.6629">
        <ele>2192.9</ele>
        <time>2024-08-11T10:23:34Z</time>
      </trkpt>
      <trkpt lat="45.03707" lon="6.66289">
        <ele>2192.42</ele>
        <time>2024-08-11T10:23:35Z</time>
      </trkpt>
      <trkpt lat="45.03708" lon="6.66291">
        <ele>2191.46</ele>
        <time>2024-08-11T10:23:36Z</time>
      </trkpt>
      <trkpt lat="45.03708" lon="6.66307">
        <ele>2188.58</ele>
        <time>2024-08-11T10:23:41Z</time>
      </trkpt>
      <trkpt lat="45.03745" lon="6.66311">
        <ele>2172.72</ele>
        <time>2024-08-11T10:24:12Z</time>
      </trkpt>
      <trkpt lat="45.03746" lon="6.66311">
        <ele>2171.27</ele>
        <time>2024-08-11T10:24:13Z</time>
      </trkpt>
      <trkpt lat="45.03747" lon="6.66312">
        <ele>2171.27</ele>
        <time>2024-08-11T10:24:14Z</time>
      </trkpt>
      <trkpt lat="45.03749" lon="6.66313">
        <ele>2171.27</ele>
        <time>2024-08-11T10:24:15Z</time>
      </trkpt>
      <trkpt lat="45.03749" lon="6.66316">
        <ele>2170.31</ele>
        <time>2024-08-11T10:24:17Z</time>
      </trkpt>
      <trkpt lat="45.03748" lon="6.66319">
        <ele>2169.35</ele>
        <time>2024-08-11T10:24:18Z</time>
      </trkpt>
      <trkpt lat="45.03749" lon="6.66322">
        <ele>2168.39</ele>
        <time>2024-08-11T10:24:20Z</time>
      </trkpt>
      <trkpt lat="45.03751" lon="6.66321">
        <ele>2167.91</ele>
        <time>2024-08-11T10:24:21Z</time>
      </trkpt>
      <trkpt lat="45.03751" lon="6.66332">
        <ele>2165.03</ele>
        <time>2024-08-11T10:24:26Z</time>
      </trkpt>
      <trkpt lat="45.03751" lon="6.66338">
        <ele>2163.1</ele>
        <time>2024-08-11T10:24:33Z</time>
      </trkpt>
      <trkpt lat="45.03758" lon="6.66359">
        <ele>2159.26</ele>
        <time>2024-08-11T10:24:43Z</time>
      </trkpt>
      <trkpt lat="45.03761" lon="6.66362">
        <ele>2158.78</ele>
        <time>2024-08-11T10:24:45Z</time>
      </trkpt>
      <trkpt lat="45.03771" lon="6.66357">
        <ele>2155.41</ele>
        <time>2024-08-11T10:24:49Z</time>
      </trkpt>
      <trkpt lat="45.03773" lon="6.66357">
        <ele>2154.93</ele>
        <time>2024-08-11T10:24:50Z</time>
      </trkpt>
      <trkpt lat="45.03775" lon="6.66359">
        <ele>2153.97</ele>
        <time>2024-08-11T10:25:01Z</time>
      </trkpt>
      <trkpt lat="45.03774" lon="6.66362">
        <ele>2153.01</ele>
        <time>2024-08-11T10:25:08Z</time>
      </trkpt>
      <trkpt lat="45.03772" lon="6.66375">
        <ele>2149.16</ele>
        <time>2024-08-11T10:25:15Z</time>
      </trkpt>
      <trkpt lat="45.03771" lon="6.66379">
        <ele>2148.68</ele>
        <time>2024-08-11T10:25:16Z</time>
      </trkpt>
      <trkpt lat="45.03771" lon="6.66383">
        <ele>2147.72</ele>
        <time>2024-08-11T10:25:17Z</time>
      </trkpt>
      <trkpt lat="45.03771" lon="6.66387">
        <ele>2147.24</ele>
        <time>2024-08-11T10:25:18Z</time>
      </trkpt>
      <trkpt lat="45.03769" lon="6.66396">
        <ele>2144.36</ele>
        <time>2024-08-11T10:25:21Z</time>
      </trkpt>
      <trkpt lat="45.03769" lon="6.66398">
        <ele>2143.88</ele>
        <time>2024-08-11T10:25:22Z</time>
      </trkpt>
      <trkpt lat="45.03769" lon="6.664">
        <ele>2143.88</ele>
        <time>2024-08-11T10:25:23Z</time>
      </trkpt>
      <trkpt lat="45.03769" lon="6.664">
        <ele>2141.95</ele>
        <time>2024-08-11T10:25:26Z</time>
      </trkpt>
      <trkpt lat="45.03771" lon="6.66399">
        <ele>2141.47</ele>
        <time>2024-08-11T10:25:29Z</time>
      </trkpt>
      <trkpt lat="45.03773" lon="6.66397">
        <ele>2141.47</ele>
        <time>2024-08-11T10:25:30Z</time>
      </trkpt>
      <trkpt lat="45.03774" lon="6.66396">
        <ele>2141.47</ele>
        <time>2024-08-11T10:25:31Z</time>
      </trkpt>
      <trkpt lat="45.03774" lon="6.66395">
        <ele>2141.47</ele>
        <time>2024-08-11T10:25:32Z</time>
      </trkpt>
      <trkpt lat="45.03777" lon="6.66395">
        <ele>2140.03</ele>
        <time>2024-08-11T10:25:33Z</time>
      </trkpt>
      <trkpt lat="45.03779" lon="6.66395">
        <ele>2139.55</ele>
        <time>2024-08-11T10:25:35Z</time>
      </trkpt>
      <trkpt lat="45.03782" lon="6.66391">
        <ele>2138.11</ele>
        <time>2024-08-11T10:25:38Z</time>
      </trkpt>
      <trkpt lat="45.03792" lon="6.66389">
        <ele>2133.3</ele>
        <time>2024-08-11T10:25:42Z</time>
      </trkpt>
      <trkpt lat="45.03797" lon="6.66385">
        <ele>2132.34</ele>
        <time>2024-08-11T10:25:44Z</time>
      </trkpt>
      <trkpt lat="45.03807" lon="6.66374">
        <ele>2128.5</ele>
        <time>2024-08-11T10:25:48Z</time>
      </trkpt>
      <trkpt lat="45.03808" lon="6.66372">
        <ele>2128.02</ele>
        <time>2024-08-11T10:25:49Z</time>
      </trkpt>
      <trkpt lat="45.03812" lon="6.66366">
        <ele>2127.05</ele>
        <time>2024-08-11T10:25:52Z</time>
      </trkpt>
      <trkpt lat="45.03813" lon="6.66367">
        <ele>2126.09</ele>
        <time>2024-08-11T10:25:55Z</time>
      </trkpt>
      <trkpt lat="45.03812" lon="6.66371">
        <ele>2125.61</ele>
        <time>2024-08-11T10:25:57Z</time>
      </trkpt>
      <trkpt lat="45.03811" lon="6.66375">
        <ele>2124.65</ele>
        <time>2024-08-11T10:25:58Z</time>
      </trkpt>
      <trkpt lat="45.0381" lon="6.66378">
        <ele>2124.65</ele>
        <time>2024-08-11T10:25:59Z</time>
      </trkpt>
      <trkpt lat="45.0381" lon="6.66383">
        <ele>2123.21</ele>
        <time>2024-08-11T10:26:01Z</time>
      </trkpt>
      <trkpt lat="45.03812" lon="6.66384">
        <ele>2121.77</ele>
        <time>2024-08-11T10:26:04Z</time>
      </trkpt>
      <trkpt lat="45.03814" lon="6.66382">
        <ele>2121.77</ele>
        <time>2024-08-11T10:26:05Z</time>
      </trkpt>
      <trkpt lat="45.03857" lon="6.6631">
        <ele>2105.91</ele>
        <time>2024-08-11T10:26:29Z</time>
      </trkpt>
      <trkpt lat="45.03858" lon="6.66311">
        <ele>2105.91</ele>
        <time>2024-08-11T10:26:30Z</time>
      </trkpt>
      <trkpt lat="45.03859" lon="6.66312">
        <ele>2105.91</ele>
        <time>2024-08-11T10:26:31Z</time>
      </trkpt>
      <trkpt lat="45.03864" lon="6.66314">
        <ele>2104.94</ele>
        <time>2024-08-11T10:26:33Z</time>
      </trkpt>
      <trkpt lat="45.03914" lon="6.66335">
        <ele>2087.16</ele>
        <time>2024-08-11T10:27:05Z</time>
      </trkpt>
      <trkpt lat="45.0392" lon="6.66331">
        <ele>2085.72</ele>
        <time>2024-08-11T10:27:07Z</time>
      </trkpt>
      <trkpt lat="45.03974" lon="6.66318">
        <ele>2071.78</ele>
        <time>2024-08-11T10:27:34Z</time>
      </trkpt>
      <trkpt lat="45.03974" lon="6.66318">
        <ele>2071.78</ele>
        <time>2024-08-11T10:27:35Z</time>
      </trkpt>
      <trkpt lat="45.03975" lon="6.66319">
        <ele>2071.3</ele>
        <time>2024-08-11T10:27:39Z</time>
      </trkpt>
      <trkpt lat="45.03977" lon="6.66321">
        <ele>2070.34</ele>
        <time>2024-08-11T10:27:50Z</time>
      </trkpt>
      <trkpt lat="45.03979" lon="6.66323">
        <ele>2069.86</ele>
        <time>2024-08-11T10:28:08Z</time>
      </trkpt>
      <trkpt lat="45.03979" lon="6.66323">
        <ele>2069.86</ele>
        <time>2024-08-11T10:28:27Z</time>
      </trkpt>
      <trkpt lat="45.03978" lon="6.6632">
        <ele>2069.86</ele>
        <time>2024-08-11T10:28:46Z</time>
      </trkpt>
      <trkpt lat="45.03979" lon="6.66322">
        <ele>2069.86</ele>
        <time>2024-08-11T10:29:08Z</time>
      </trkpt>
      <trkpt lat="45.03979" lon="6.66321">
        <ele>2069.86</ele>
        <time>2024-08-11T10:29:37Z</time>
      </trkpt>
      <trkpt lat="45.0398" lon="6.66325">
        <ele>2069.38</ele>
        <time>2024-08-11T10:29:59Z</time>
      </trkpt>
      <trkpt lat="45.03984" lon="6.66324">
        <ele>2068.89</ele>
        <time>2024-08-11T10:30:15Z</time>
      </trkpt>
      <trkpt lat="45.03984" lon="6.66322">
        <ele>2067.93</ele>
        <time>2024-08-11T10:30:16Z</time>
      </trkpt>
      <trkpt lat="45.03984" lon="6.66319">
        <ele>2067.45</ele>
        <time>2024-08-11T10:30:17Z</time>
      </trkpt>
      <trkpt lat="45.03984" lon="6.66314">
        <ele>2066.49</ele>
        <time>2024-08-11T10:30:19Z</time>
      </trkpt>
      <trkpt lat="45.03992" lon="6.66259">
        <ele>2055.92</ele>
        <time>2024-08-11T10:30:39Z</time>
      </trkpt>
      <trkpt lat="45.03992" lon="6.66256">
        <ele>2055.44</ele>
        <time>2024-08-11T10:30:40Z</time>
      </trkpt>
      <trkpt lat="45.03993" lon="6.66254">
        <ele>2054.47</ele>
        <time>2024-08-11T10:30:41Z</time>
      </trkpt>
      <trkpt lat="45.03998" lon="6.66255">
        <ele>2050.63</ele>
        <time>2024-08-11T10:30:52Z</time>
      </trkpt>
      <trkpt lat="45.03999" lon="6.66251">
        <ele>2049.67</ele>
        <time>2024-08-11T10:30:54Z</time>
      </trkpt>
      <trkpt lat="45.04" lon="6.66252">
        <ele>2049.67</ele>
        <time>2024-08-11T10:30:55Z</time>
      </trkpt>
      <trkpt lat="45.04011" lon="6.66271">
        <ele>2042.94</ele>
        <time>2024-08-11T10:31:06Z</time>
      </trkpt>
      <trkpt lat="45.04011" lon="6.66272">
        <ele>2042.46</ele>
        <time>2024-08-11T10:31:07Z</time>
      </trkpt>
      <trkpt lat="45.04013" lon="6.66274">
        <ele>2042.46</ele>
        <time>2024-08-11T10:31:08Z</time>
      </trkpt>
      <trkpt lat="45.04014" lon="6.66275">
        <ele>2042.46</ele>
        <time>2024-08-11T10:31:09Z</time>
      </trkpt>
      <trkpt lat="45.04015" lon="6.66275">
        <ele>2041.5</ele>
        <time>2024-08-11T10:31:10Z</time>
      </trkpt>
      <trkpt lat="45.04017" lon="6.66269">
        <ele>2040.05</ele>
        <time>2024-08-11T10:31:13Z</time>
      </trkpt>
      <trkpt lat="45.04017" lon="6.66265">
        <ele>2039.09</ele>
        <time>2024-08-11T10:31:15Z</time>
      </trkpt>
      <trkpt lat="45.04019" lon="6.66251">
        <ele>2037.65</ele>
        <time>2024-08-11T10:31:20Z</time>
      </trkpt>
      <trkpt lat="45.04027" lon="6.66224">
        <ele>2026.6</ele>
        <time>2024-08-11T10:31:44Z</time>
      </trkpt>
      <trkpt lat="45.04029" lon="6.66224">
        <ele>2025.64</ele>
        <time>2024-08-11T10:31:46Z</time>
      </trkpt>
      <trkpt lat="45.04031" lon="6.66225">
        <ele>2025.64</ele>
        <time>2024-08-11T10:31:47Z</time>
      </trkpt>
      <trkpt lat="45.04033" lon="6.66226">
        <ele>2023.71</ele>
        <time>2024-08-11T10:31:49Z</time>
      </trkpt>
      <trkpt lat="45.04034" lon="6.6622">
        <ele>2022.75</ele>
        <time>2024-08-11T10:31:52Z</time>
      </trkpt>
      <trkpt lat="45.04032" lon="6.66213">
        <ele>2020.83</ele>
        <time>2024-08-11T10:31:54Z</time>
      </trkpt>
      <trkpt lat="45.04031" lon="6.6621">
        <ele>2019.87</ele>
        <time>2024-08-11T10:31:55Z</time>
      </trkpt>
      <trkpt lat="45.04032" lon="6.66208">
        <ele>2019.39</ele>
        <time>2024-08-11T10:31:56Z</time>
      </trkpt>
      <trkpt lat="45.04033" lon="6.66207">
        <ele>2019.39</ele>
        <time>2024-08-11T10:31:57Z</time>
      </trkpt>
      <trkpt lat="45.04035" lon="6.66207">
        <ele>2019.39</ele>
        <time>2024-08-11T10:31:58Z</time>
      </trkpt>
      <trkpt lat="45.04036" lon="6.66208">
        <ele>2018.91</ele>
        <time>2024-08-11T10:31:59Z</time>
      </trkpt>
      <trkpt lat="45.04038" lon="6.66209">
        <ele>2018.43</ele>
        <time>2024-08-11T10:32:00Z</time>
      </trkpt>
      <trkpt lat="45.0404" lon="6.66211">
        <ele>2017.46</ele>
        <time>2024-08-11T10:32:02Z</time>
      </trkpt>
      <trkpt lat="45.04043" lon="6.6622">
        <ele>2014.1</ele>
        <time>2024-08-11T10:32:06Z</time>
      </trkpt>
      <trkpt lat="45.04044" lon="6.66219">
        <ele>2013.62</ele>
        <time>2024-08-11T10:32:07Z</time>
      </trkpt>
      <trkpt lat="45.04045" lon="6.66217">
        <ele>2012.66</ele>
        <time>2024-08-11T10:32:09Z</time>
      </trkpt>
      <trkpt lat="45.04047" lon="6.66213">
        <ele>2011.7</ele>
        <time>2024-08-11T10:32:11Z</time>
      </trkpt>
      <trkpt lat="45.04048" lon="6.66209">
        <ele>2010.25</ele>
        <time>2024-08-11T10:32:12Z</time>
      </trkpt>
      <trkpt lat="45.04048" lon="6.66207">
        <ele>2009.77</ele>
        <time>2024-08-11T10:32:13Z</time>
      </trkpt>
      <trkpt lat="45.0405" lon="6.66208">
        <ele>2009.29</ele>
        <time>2024-08-11T10:32:15Z</time>
      </trkpt>
      <trkpt lat="45.04051" lon="6.66214">
        <ele>2008.33</ele>
        <time>2024-08-11T10:32:17Z</time>
      </trkpt>
      <trkpt lat="45.04054" lon="6.6623">
        <ele>2004.97</ele>
        <time>2024-08-11T10:32:20Z</time>
      </trkpt>
      <trkpt lat="45.04055" lon="6.66235">
        <ele>2004.49</ele>
        <time>2024-08-11T10:32:21Z</time>
      </trkpt>
      <trkpt lat="45.04058" lon="6.66256">
        <ele>2001.12</ele>
        <time>2024-08-11T10:32:25Z</time>
      </trkpt>
      <trkpt lat="45.0406" lon="6.66264">
        <ele>2000.16</ele>
        <time>2024-08-11T10:32:26Z</time>
      </trkpt>
      <trkpt lat="45.04064" lon="6.66279">
        <ele>1996.32</ele>
        <time>2024-08-11T10:32:31Z</time>
      </trkpt>
      <trkpt lat="45.04067" lon="6.66292">
        <ele>1992.47</ele>
        <time>2024-08-11T10:32:34Z</time>
      </trkpt>
      <trkpt lat="45.04067" lon="6.66294">
        <ele>1992.47</ele>
        <time>2024-08-11T10:32:35Z</time>
      </trkpt>
      <trkpt lat="45.04068" lon="6.66302">
        <ele>1991.03</ele>
        <time>2024-08-11T10:32:39Z</time>
      </trkpt>
      <trkpt lat="45.04069" lon="6.66304">
        <ele>1990.55</ele>
        <time>2024-08-11T10:32:40Z</time>
      </trkpt>
      <trkpt lat="45.0407" lon="6.66304">
        <ele>1990.55</ele>
        <time>2024-08-11T10:32:41Z</time>
      </trkpt>
      <trkpt lat="45.04072" lon="6.66303">
        <ele>1989.1</ele>
        <time>2024-08-11T10:32:43Z</time>
      </trkpt>
      <trkpt lat="45.04078" lon="6.66279">
        <ele>1985.74</ele>
        <time>2024-08-11T10:32:49Z</time>
      </trkpt>
      <trkpt lat="45.04084" lon="6.66266">
        <ele>1982.86</ele>
        <time>2024-08-11T10:32:52Z</time>
      </trkpt>
      <trkpt lat="45.04085" lon="6.66264">
        <ele>1982.38</ele>
        <time>2024-08-11T10:32:53Z</time>
      </trkpt>
      <trkpt lat="45.04086" lon="6.66263">
        <ele>1981.9</ele>
        <time>2024-08-11T10:32:54Z</time>
      </trkpt>
      <trkpt lat="45.04087" lon="6.66259">
        <ele>1979.97</ele>
        <time>2024-08-11T10:32:56Z</time>
      </trkpt>
      <trkpt lat="45.04088" lon="6.66258">
        <ele>1979.97</ele>
        <time>2024-08-11T10:33:14Z</time>
      </trkpt>
      <trkpt lat="45.04086" lon="6.66256">
        <ele>1979.49</ele>
        <time>2024-08-11T10:33:45Z</time>
      </trkpt>
      <trkpt lat="45.04087" lon="6.66256">
        <ele>1979.49</ele>
        <time>2024-08-11T10:34:18Z</time>
      </trkpt>
      <trkpt lat="45.04087" lon="6.66257">
        <ele>1979.01</ele>
        <time>2024-08-11T10:34:46Z</time>
      </trkpt>
      <trkpt lat="45.04092" lon="6.66242">
        <ele>1977.09</ele>
        <time>2024-08-11T10:35:02Z</time>
      </trkpt>
      <trkpt lat="45.04095" lon="6.66232">
        <ele>1975.17</ele>
        <time>2024-08-11T10:35:05Z</time>
      </trkpt>
      <trkpt lat="45.04097" lon="6.66224">
        <ele>1972.76</ele>
        <time>2024-08-11T10:35:07Z</time>
      </trkpt>
      <trkpt lat="45.041" lon="6.66204">
        <ele>1969.88</ele>
        <time>2024-08-11T10:35:11Z</time>
      </trkpt>
      <trkpt lat="45.04104" lon="6.66187">
        <ele>1966.51</ele>
        <time>2024-08-11T10:35:14Z</time>
      </trkpt>
      <trkpt lat="45.04108" lon="6.66177">
        <ele>1964.11</ele>
        <time>2024-08-11T10:35:17Z</time>
      </trkpt>
      <trkpt lat="45.04109" lon="6.66172">
        <ele>1963.15</ele>
        <time>2024-08-11T10:35:18Z</time>
      </trkpt>
      <trkpt lat="45.04109" lon="6.6617">
        <ele>1962.67</ele>
        <time>2024-08-11T10:35:19Z</time>
      </trkpt>
      <trkpt lat="45.04109" lon="6.66167">
        <ele>1962.67</ele>
        <time>2024-08-11T10:35:20Z</time>
      </trkpt>
      <trkpt lat="45.04109" lon="6.66163">
        <ele>1962.19</ele>
        <time>2024-08-11T10:35:21Z</time>
      </trkpt>
      <trkpt lat="45.04109" lon="6.66161">
        <ele>1961.71</ele>
        <time>2024-08-11T10:35:22Z</time>
      </trkpt>
      <trkpt lat="45.04111" lon="6.66142">
        <ele>1959.3</ele>
        <time>2024-08-11T10:35:36Z</time>
      </trkpt>
      <trkpt lat="45.0411" lon="6.66136">
        <ele>1958.82</ele>
        <time>2024-08-11T10:35:39Z</time>
      </trkpt>
      <trkpt lat="45.0411" lon="6.66134">
        <ele>1958.82</ele>
        <time>2024-08-11T10:35:40Z</time>
      </trkpt>
      <trkpt lat="45.0411" lon="6.66132">
        <ele>1958.34</ele>
        <time>2024-08-11T10:35:41Z</time>
      </trkpt>
      <trkpt lat="45.04109" lon="6.6613">
        <ele>1958.34</ele>
        <time>2024-08-11T10:35:42Z</time>
      </trkpt>
      <trkpt lat="45.04108" lon="6.66121">
        <ele>1955.94</ele>
        <time>2024-08-11T10:35:54Z</time>
      </trkpt>
      <trkpt lat="45.0411" lon="6.66121">
        <ele>1955.94</ele>
        <time>2024-08-11T10:35:55Z</time>
      </trkpt>
      <trkpt lat="45.04111" lon="6.66118">
        <ele>1954.02</ele>
        <time>2024-08-11T10:35:57Z</time>
      </trkpt>
      <trkpt lat="45.0411" lon="6.66112">
        <ele>1953.06</ele>
        <time>2024-08-11T10:35:58Z</time>
      </trkpt>
      <trkpt lat="45.04109" lon="6.66107">
        <ele>1952.09</ele>
        <time>2024-08-11T10:36:00Z</time>
      </trkpt>
      <trkpt lat="45.041" lon="6.66093">
        <ele>1948.73</ele>
        <time>2024-08-11T10:36:05Z</time>
      </trkpt>
      <trkpt lat="45.04098" lon="6.66092">
        <ele>1948.73</ele>
        <time>2024-08-11T10:36:06Z</time>
      </trkpt>
      <trkpt lat="45.04098" lon="6.66089">
        <ele>1947.77</ele>
        <time>2024-08-11T10:36:07Z</time>
      </trkpt>
      <trkpt lat="45.04106" lon="6.66083">
        <ele>1945.85</ele>
        <time>2024-08-11T10:36:13Z</time>
      </trkpt>
      <trkpt lat="45.04125" lon="6.66096">
        <ele>1943.44</ele>
        <time>2024-08-11T10:36:24Z</time>
      </trkpt>
      <trkpt lat="45.04127" lon="6.66097">
        <ele>1942.48</ele>
        <time>2024-08-11T10:36:25Z</time>
      </trkpt>
      <trkpt lat="45.04129" lon="6.661">
        <ele>1941.52</ele>
        <time>2024-08-11T10:36:26Z</time>
      </trkpt>
      <trkpt lat="45.0413" lon="6.66102">
        <ele>1941.52</ele>
        <time>2024-08-11T10:36:27Z</time>
      </trkpt>
      <trkpt lat="45.04131" lon="6.66105">
        <ele>1941.04</ele>
        <time>2024-08-11T10:36:28Z</time>
      </trkpt>
      <trkpt lat="45.04131" lon="6.66107">
        <ele>1941.52</ele>
        <time>2024-08-11T10:36:29Z</time>
      </trkpt>
      <trkpt lat="45.04133" lon="6.6611">
        <ele>1941.04</ele>
        <time>2024-08-11T10:36:30Z</time>
      </trkpt>
      <trkpt lat="45.04138" lon="6.66118">
        <ele>1940.08</ele>
        <time>2024-08-11T10:36:32Z</time>
      </trkpt>
      <trkpt lat="45.04139" lon="6.6612">
        <ele>1939.12</ele>
        <time>2024-08-11T10:36:33Z</time>
      </trkpt>
      <trkpt lat="45.04142" lon="6.66126">
        <ele>1938.16</ele>
        <time>2024-08-11T10:36:36Z</time>
      </trkpt>
      <trkpt lat="45.04143" lon="6.66126">
        <ele>1937.67</ele>
        <time>2024-08-11T10:36:37Z</time>
      </trkpt>
      <trkpt lat="45.04144" lon="6.66125">
        <ele>1937.67</ele>
        <time>2024-08-11T10:36:38Z</time>
      </trkpt>
      <trkpt lat="45.04146" lon="6.66118">
        <ele>1935.27</ele>
        <time>2024-08-11T10:36:42Z</time>
      </trkpt>
      <trkpt lat="45.04149" lon="6.66119">
        <ele>1933.83</ele>
        <time>2024-08-11T10:36:45Z</time>
      </trkpt>
      <trkpt lat="45.04172" lon="6.66065">
        <ele>1921.33</ele>
        <time>2024-08-11T10:37:05Z</time>
      </trkpt>
      <trkpt lat="45.04174" lon="6.66064">
        <ele>1920.37</ele>
        <time>2024-08-11T10:37:06Z</time>
      </trkpt>
      <trkpt lat="45.04175" lon="6.66066">
        <ele>1919.41</ele>
        <time>2024-08-11T10:37:07Z</time>
      </trkpt>
      <trkpt lat="45.04176" lon="6.66068">
        <ele>1918.93</ele>
        <time>2024-08-11T10:37:08Z</time>
      </trkpt>
      <trkpt lat="45.04178" lon="6.66071">
        <ele>1918.45</ele>
        <time>2024-08-11T10:37:09Z</time>
      </trkpt>
      <trkpt lat="45.04189" lon="6.66096">
        <ele>1912.2</ele>
        <time>2024-08-11T10:37:17Z</time>
      </trkpt>
      <trkpt lat="45.0419" lon="6.66095">
        <ele>1912.2</ele>
        <time>2024-08-11T10:37:18Z</time>
      </trkpt>
      <trkpt lat="45.0419" lon="6.66093">
        <ele>1911.72</ele>
        <time>2024-08-11T10:37:19Z</time>
      </trkpt>
      <trkpt lat="45.04191" lon="6.66091">
        <ele>1910.76</ele>
        <time>2024-08-11T10:37:20Z</time>
      </trkpt>
      <trkpt lat="45.04192" lon="6.6609">
        <ele>1910.28</ele>
        <time>2024-08-11T10:37:21Z</time>
      </trkpt>
      <trkpt lat="45.04193" lon="6.66091">
        <ele>1909.8</ele>
        <time>2024-08-11T10:37:22Z</time>
      </trkpt>
      <trkpt lat="45.04195" lon="6.66092">
        <ele>1909.8</ele>
        <time>2024-08-11T10:37:23Z</time>
      </trkpt>
      <trkpt lat="45.04197" lon="6.66093">
        <ele>1909.32</ele>
        <time>2024-08-11T10:37:24Z</time>
      </trkpt>
      <trkpt lat="45.04199" lon="6.66095">
        <ele>1908.83</ele>
        <time>2024-08-11T10:37:25Z</time>
      </trkpt>
      <trkpt lat="45.04201" lon="6.66096">
        <ele>1908.35</ele>
        <time>2024-08-11T10:37:26Z</time>
      </trkpt>
      <trkpt lat="45.04203" lon="6.66097">
        <ele>1907.87</ele>
        <time>2024-08-11T10:37:27Z</time>
      </trkpt>
      <trkpt lat="45.04205" lon="6.66095">
        <ele>1906.91</ele>
        <time>2024-08-11T10:37:29Z</time>
      </trkpt>
      <trkpt lat="45.04204" lon="6.66086">
        <ele>1905.47</ele>
        <time>2024-08-11T10:37:31Z</time>
      </trkpt>
      <trkpt lat="45.04204" lon="6.66084">
        <ele>1905.47</ele>
        <time>2024-08-11T10:37:32Z</time>
      </trkpt>
      <trkpt lat="45.04205" lon="6.66082">
        <ele>1904.99</ele>
        <time>2024-08-11T10:37:33Z</time>
      </trkpt>
      <trkpt lat="45.04206" lon="6.66082">
        <ele>1904.51</ele>
        <time>2024-08-11T10:37:34Z</time>
      </trkpt>
      <trkpt lat="45.04225" lon="6.66095">
        <ele>1897.3</ele>
        <time>2024-08-11T10:37:46Z</time>
      </trkpt>
      <trkpt lat="45.04239" lon="6.66066">
        <ele>1888.65</ele>
        <time>2024-08-11T10:38:00Z</time>
      </trkpt>
      <trkpt lat="45.04234" lon="6.66052">
        <ele>1885.76</ele>
        <time>2024-08-11T10:38:03Z</time>
      </trkpt>
      <trkpt lat="45.04234" lon="6.66039">
        <ele>1883.36</ele>
        <time>2024-08-11T10:38:06Z</time>
      </trkpt>
      <trkpt lat="45.04234" lon="6.66035">
        <ele>1882.4</ele>
        <time>2024-08-11T10:38:07Z</time>
      </trkpt>
      <trkpt lat="45.04236" lon="6.66035">
        <ele>1882.4</ele>
        <time>2024-08-11T10:38:08Z</time>
      </trkpt>
      <trkpt lat="45.04237" lon="6.66036">
        <ele>1881.44</ele>
        <time>2024-08-11T10:38:09Z</time>
      </trkpt>
      <trkpt lat="45.04238" lon="6.66037">
        <ele>1881.92</ele>
        <time>2024-08-11T10:38:10Z</time>
      </trkpt>
      <trkpt lat="45.0424" lon="6.66038">
        <ele>1880.96</ele>
        <time>2024-08-11T10:38:11Z</time>
      </trkpt>
      <trkpt lat="45.04245" lon="6.66038">
        <ele>1879.51</ele>
        <time>2024-08-11T10:38:16Z</time>
      </trkpt>
      <trkpt lat="45.04245" lon="6.66036">
        <ele>1879.03</ele>
        <time>2024-08-11T10:38:18Z</time>
      </trkpt>
      <trkpt lat="45.04245" lon="6.66034">
        <ele>1878.55</ele>
        <time>2024-08-11T10:38:19Z</time>
      </trkpt>
      <trkpt lat="45.04247" lon="6.66034">
        <ele>1877.59</ele>
        <time>2024-08-11T10:38:21Z</time>
      </trkpt>
      <trkpt lat="45.04248" lon="6.66034">
        <ele>1877.11</ele>
        <time>2024-08-11T10:38:22Z</time>
      </trkpt>
      <trkpt lat="45.04251" lon="6.66035">
        <ele>1877.11</ele>
        <time>2024-08-11T10:38:23Z</time>
      </trkpt>
      <trkpt lat="45.04254" lon="6.66035">
        <ele>1876.15</ele>
        <time>2024-08-11T10:38:24Z</time>
      </trkpt>
      <trkpt lat="45.04261" lon="6.66035">
        <ele>1876.15</ele>
        <time>2024-08-11T10:38:26Z</time>
      </trkpt>
      <trkpt lat="45.04273" lon="6.66045">
        <ele>1873.75</ele>
        <time>2024-08-11T10:38:30Z</time>
      </trkpt>
      <trkpt lat="45.04278" lon="6.66048">
        <ele>1872.79</ele>
        <time>2024-08-11T10:38:31Z</time>
      </trkpt>
      <trkpt lat="45.04282" lon="6.66051">
        <ele>1872.3</ele>
        <time>2024-08-11T10:38:32Z</time>
      </trkpt>
      <trkpt lat="45.04287" lon="6.66055">
        <ele>1870.38</ele>
        <time>2024-08-11T10:38:34Z</time>
      </trkpt>
      <trkpt lat="45.04289" lon="6.66054">
        <ele>1870.38</ele>
        <time>2024-08-11T10:38:35Z</time>
      </trkpt>
      <trkpt lat="45.04289" lon="6.66053">
        <ele>1870.38</ele>
        <time>2024-08-11T10:38:36Z</time>
      </trkpt>
      <trkpt lat="45.04283" lon="6.66039">
        <ele>1868.94</ele>
        <time>2024-08-11T10:38:42Z</time>
      </trkpt>
      <trkpt lat="45.04283" lon="6.66034">
        <ele>1867.5</ele>
        <time>2024-08-11T10:38:43Z</time>
      </trkpt>
      <trkpt lat="45.04283" lon="6.66017">
        <ele>1863.65</ele>
        <time>2024-08-11T10:38:48Z</time>
      </trkpt>
      <trkpt lat="45.04284" lon="6.66015">
        <ele>1863.17</ele>
        <time>2024-08-11T10:38:49Z</time>
      </trkpt>
      <trkpt lat="45.04285" lon="6.66014">
        <ele>1862.21</ele>
        <time>2024-08-11T10:38:50Z</time>
      </trkpt>
      <trkpt lat="45.04298" lon="6.66023">
        <ele>1857.89</ele>
        <time>2024-08-11T10:38:56Z</time>
      </trkpt>
      <trkpt lat="45.043" lon="6.66024">
        <ele>1856.92</ele>
        <time>2024-08-11T10:38:57Z</time>
      </trkpt>
      <trkpt lat="45.04301" lon="6.66025">
        <ele>1856.44</ele>
        <time>2024-08-11T10:38:58Z</time>
      </trkpt>
      <trkpt lat="45.04302" lon="6.66024">
        <ele>1856.92</ele>
        <time>2024-08-11T10:39:00Z</time>
      </trkpt>
      <trkpt lat="45.04301" lon="6.66021">
        <ele>1855.96</ele>
        <time>2024-08-11T10:39:01Z</time>
      </trkpt>
      <trkpt lat="45.04301" lon="6.66017">
        <ele>1855</ele>
        <time>2024-08-11T10:39:03Z</time>
      </trkpt>
      <trkpt lat="45.04301" lon="6.66015">
        <ele>1855</ele>
        <time>2024-08-11T10:39:04Z</time>
      </trkpt>
      <trkpt lat="45.043" lon="6.66011">
        <ele>1854.04</ele>
        <time>2024-08-11T10:39:05Z</time>
      </trkpt>
      <trkpt lat="45.04299" lon="6.66006">
        <ele>1853.08</ele>
        <time>2024-08-11T10:39:06Z</time>
      </trkpt>
      <trkpt lat="45.04299" lon="6.66002">
        <ele>1852.12</ele>
        <time>2024-08-11T10:39:07Z</time>
      </trkpt>
      <trkpt lat="45.04299" lon="6.65999">
        <ele>1851.16</ele>
        <time>2024-08-11T10:39:08Z</time>
      </trkpt>
      <trkpt lat="45.04298" lon="6.65987">
        <ele>1849.23</ele>
        <time>2024-08-11T10:39:12Z</time>
      </trkpt>
      <trkpt lat="45.04298" lon="6.65975">
        <ele>1846.35</ele>
        <time>2024-08-11T10:39:15Z</time>
      </trkpt>
      <trkpt lat="45.043" lon="6.65975">
        <ele>1844.91</ele>
        <time>2024-08-11T10:39:16Z</time>
      </trkpt>
      <trkpt lat="45.04303" lon="6.65977">
        <ele>1844.91</ele>
        <time>2024-08-11T10:39:17Z</time>
      </trkpt>
      <trkpt lat="45.0431" lon="6.65983">
        <ele>1843.47</ele>
        <time>2024-08-11T10:39:19Z</time>
      </trkpt>
      <trkpt lat="45.04313" lon="6.65984">
        <ele>1842.98</ele>
        <time>2024-08-11T10:39:20Z</time>
      </trkpt>
      <trkpt lat="45.04315" lon="6.65985">
        <ele>1842.02</ele>
        <time>2024-08-11T10:39:21Z</time>
      </trkpt>
      <trkpt lat="45.04318" lon="6.65981">
        <ele>1841.06</ele>
        <time>2024-08-11T10:39:24Z</time>
      </trkpt>
      <trkpt lat="45.04318" lon="6.65977">
        <ele>1840.1</ele>
        <time>2024-08-11T10:39:25Z</time>
      </trkpt>
      <trkpt lat="45.04317" lon="6.65973">
        <ele>1839.14</ele>
        <time>2024-08-11T10:39:26Z</time>
      </trkpt>
      <trkpt lat="45.04318" lon="6.65972">
        <ele>1838.66</ele>
        <time>2024-08-11T10:39:27Z</time>
      </trkpt>
      <trkpt lat="45.0432" lon="6.6597">
        <ele>1838.18</ele>
        <time>2024-08-11T10:39:28Z</time>
      </trkpt>
      <trkpt lat="45.04322" lon="6.6597">
        <ele>1837.22</ele>
        <time>2024-08-11T10:39:29Z</time>
      </trkpt>
      <trkpt lat="45.04324" lon="6.6597">
        <ele>1836.74</ele>
        <time>2024-08-11T10:39:30Z</time>
      </trkpt>
      <trkpt lat="45.04327" lon="6.65969">
        <ele>1836.26</ele>
        <time>2024-08-11T10:39:31Z</time>
      </trkpt>
      <trkpt lat="45.04328" lon="6.65967">
        <ele>1835.77</ele>
        <time>2024-08-11T10:39:32Z</time>
      </trkpt>
      <trkpt lat="45.04329" lon="6.65959">
        <ele>1833.85</ele>
        <time>2024-08-11T10:39:35Z</time>
      </trkpt>
      <trkpt lat="45.04332" lon="6.65958">
        <ele>1833.37</ele>
        <time>2024-08-11T10:39:36Z</time>
      </trkpt>
      <trkpt lat="45.04333" lon="6.65957">
        <ele>1832.41</ele>
        <time>2024-08-11T10:39:37Z</time>
      </trkpt>
      <trkpt lat="45.04334" lon="6.65954">
        <ele>1832.41</ele>
        <time>2024-08-11T10:39:38Z</time>
      </trkpt>
      <trkpt lat="45.04334" lon="6.65951">
        <ele>1831.93</ele>
        <time>2024-08-11T10:39:39Z</time>
      </trkpt>
      <trkpt lat="45.04333" lon="6.65948">
        <ele>1830.97</ele>
        <time>2024-08-11T10:39:40Z</time>
      </trkpt>
      <trkpt lat="45.04335" lon="6.65945">
        <ele>1830.01</ele>
        <time>2024-08-11T10:39:41Z</time>
      </trkpt>
      <trkpt lat="45.04339" lon="6.65945">
        <ele>1829.05</ele>
        <time>2024-08-11T10:39:43Z</time>
      </trkpt>
      <trkpt lat="45.04343" lon="6.65945">
        <ele>1828.08</ele>
        <time>2024-08-11T10:39:44Z</time>
      </trkpt>
      <trkpt lat="45.04348" lon="6.65944">
        <ele>1827.6</ele>
        <time>2024-08-11T10:39:45Z</time>
      </trkpt>
      <trkpt lat="45.04354" lon="6.65943">
        <ele>1827.12</ele>
        <time>2024-08-11T10:39:46Z</time>
      </trkpt>
      <trkpt lat="45.04359" lon="6.65942">
        <ele>1827.12</ele>
        <time>2024-08-11T10:39:47Z</time>
      </trkpt>
      <trkpt lat="45.04364" lon="6.65941">
        <ele>1826.16</ele>
        <time>2024-08-11T10:39:48Z</time>
      </trkpt>
      <trkpt lat="45.04371" lon="6.6594">
        <ele>1825.2</ele>
        <time>2024-08-11T10:39:49Z</time>
      </trkpt>
      <trkpt lat="45.04375" lon="6.65939">
        <ele>1824.24</ele>
        <time>2024-08-11T10:39:50Z</time>
      </trkpt>
      <trkpt lat="45.0438" lon="6.65937">
        <ele>1823.28</ele>
        <time>2024-08-11T10:39:51Z</time>
      </trkpt>
      <trkpt lat="45.04384" lon="6.65935">
        <ele>1822.32</ele>
        <time>2024-08-11T10:39:52Z</time>
      </trkpt>
      <trkpt lat="45.0439" lon="6.65934">
        <ele>1821.35</ele>
        <time>2024-08-11T10:39:53Z</time>
      </trkpt>
      <trkpt lat="45.04396" lon="6.65934">
        <ele>1821.35</ele>
        <time>2024-08-11T10:39:54Z</time>
      </trkpt>
      <trkpt lat="45.04402" lon="6.65932">
        <ele>1820.39</ele>
        <time>2024-08-11T10:39:55Z</time>
      </trkpt>
      <trkpt lat="45.04407" lon="6.65932">
        <ele>1819.43</ele>
        <time>2024-08-11T10:39:56Z</time>
      </trkpt>
      <trkpt lat="45.04412" lon="6.65932">
        <ele>1817.99</ele>
        <time>2024-08-11T10:39:57Z</time>
      </trkpt>
      <trkpt lat="45.04416" lon="6.65933">
        <ele>1817.51</ele>
        <time>2024-08-11T10:39:58Z</time>
      </trkpt>
      <trkpt lat="45.04421" lon="6.65934">
        <ele>1817.03</ele>
        <time>2024-08-11T10:39:59Z</time>
      </trkpt>
      <trkpt lat="45.04425" lon="6.65931">
        <ele>1816.55</ele>
        <time>2024-08-11T10:40:00Z</time>
      </trkpt>
      <trkpt lat="45.04429" lon="6.6593">
        <ele>1816.55</ele>
        <time>2024-08-11T10:40:01Z</time>
      </trkpt>
      <trkpt lat="45.04434" lon="6.65929">
        <ele>1815.59</ele>
        <time>2024-08-11T10:40:02Z</time>
      </trkpt>
      <trkpt lat="45.04438" lon="6.65928">
        <ele>1815.59</ele>
        <time>2024-08-11T10:40:03Z</time>
      </trkpt>
      <trkpt lat="45.04441" lon="6.65926">
        <ele>1815.59</ele>
        <time>2024-08-11T10:40:04Z</time>
      </trkpt>
      <trkpt lat="45.04451" lon="6.65922">
        <ele>1815.59</ele>
        <time>2024-08-11T10:40:09Z</time>
      </trkpt>
      <trkpt lat="45.04453" lon="6.6592">
        <ele>1815.59</ele>
        <time>2024-08-11T10:40:10Z</time>
      </trkpt>
      <trkpt lat="45.04454" lon="6.65916">
        <ele>1815.59</ele>
        <time>2024-08-11T10:40:11Z</time>
      </trkpt>
      <trkpt lat="45.0446" lon="6.65902">
        <ele>1815.59</ele>
        <time>2024-08-11T10:40:20Z</time>
      </trkpt>
      <trkpt lat="45.04461" lon="6.65902">
        <ele>1815.11</ele>
        <time>2024-08-11T10:40:43Z</time>
      </trkpt>
      <trkpt lat="45.0446" lon="6.65902">
        <ele>1815.11</ele>
        <time>2024-08-11T10:41:13Z</time>
      </trkpt>
      <trkpt lat="45.04459" lon="6.65904">
        <ele>1814.63</ele>
        <time>2024-08-11T10:41:44Z</time>
      </trkpt>
      <trkpt lat="45.04459" lon="6.65902">
        <ele>1814.15</ele>
        <time>2024-08-11T10:42:09Z</time>
      </trkpt>
      <trkpt lat="45.04458" lon="6.65899">
        <ele>1814.15</ele>
        <time>2024-08-11T10:42:26Z</time>
      </trkpt>
      <trkpt lat="45.04458" lon="6.65896">
        <ele>1814.15</ele>
        <time>2024-08-11T10:42:27Z</time>
      </trkpt>
      <trkpt lat="45.04459" lon="6.65893">
        <ele>1814.15</ele>
        <time>2024-08-11T10:42:28Z</time>
      </trkpt>
      <trkpt lat="45.04474" lon="6.65881">
        <ele>1813.18</ele>
        <time>2024-08-11T10:42:37Z</time>
      </trkpt>
      <trkpt lat="45.04478" lon="6.65882">
        <ele>1811.74</ele>
        <time>2024-08-11T10:42:38Z</time>
      </trkpt>
      <trkpt lat="45.04482" lon="6.6588">
        <ele>1811.74</ele>
        <time>2024-08-11T10:42:39Z</time>
      </trkpt>
      <trkpt lat="45.04484" lon="6.65878">
        <ele>1809.82</ele>
        <time>2024-08-11T10:42:40Z</time>
      </trkpt>
      <trkpt lat="45.04485" lon="6.65874">
        <ele>1809.34</ele>
        <time>2024-08-11T10:42:41Z</time>
      </trkpt>
      <trkpt lat="45.04486" lon="6.65869">
        <ele>1809.34</ele>
        <time>2024-08-11T10:42:42Z</time>
      </trkpt>
      <trkpt lat="45.04487" lon="6.65865">
        <ele>1809.34</ele>
        <time>2024-08-11T10:42:43Z</time>
      </trkpt>
      <trkpt lat="45.04487" lon="6.65853">
        <ele>1808.38</ele>
        <time>2024-08-11T10:42:45Z</time>
      </trkpt>
      <trkpt lat="45.04487" lon="6.65848">
        <ele>1808.38</ele>
        <time>2024-08-11T10:42:46Z</time>
      </trkpt>
      <trkpt lat="45.04492" lon="6.65831">
        <ele>1808.38</ele>
        <time>2024-08-11T10:42:52Z</time>
      </trkpt>
      <trkpt lat="45.04492" lon="6.65827">
        <ele>1808.38</ele>
        <time>2024-08-11T10:42:53Z</time>
      </trkpt>
      <trkpt lat="45.04491" lon="6.65815">
        <ele>1809.82</ele>
        <time>2024-08-11T10:42:57Z</time>
      </trkpt>
      <trkpt lat="45.04491" lon="6.65812">
        <ele>1809.82</ele>
        <time>2024-08-11T10:42:58Z</time>
      </trkpt>
      <trkpt lat="45.04491" lon="6.6581">
        <ele>1810.3</ele>
        <time>2024-08-11T10:42:59Z</time>
      </trkpt>
      <trkpt lat="45.0449" lon="6.65808">
        <ele>1810.3</ele>
        <time>2024-08-11T10:43:00Z</time>
      </trkpt>
      <trkpt lat="45.0449" lon="6.65807">
        <ele>1810.3</ele>
        <time>2024-08-11T10:43:01Z</time>
      </trkpt>
      <trkpt lat="45.04489" lon="6.65805">
        <ele>1810.3</ele>
        <time>2024-08-11T10:43:02Z</time>
      </trkpt>
      <trkpt lat="45.04489" lon="6.65803">
        <ele>1810.78</ele>
        <time>2024-08-11T10:43:03Z</time>
      </trkpt>
      <trkpt lat="45.04488" lon="6.65803">
        <ele>1810.78</ele>
        <time>2024-08-11T10:43:04Z</time>
      </trkpt>
      <trkpt lat="45.04486" lon="6.65805">
        <ele>1810.78</ele>
        <time>2024-08-11T10:43:05Z</time>
      </trkpt>
      <trkpt lat="45.04484" lon="6.65805">
        <ele>1810.78</ele>
        <time>2024-08-11T10:43:06Z</time>
      </trkpt>
      <trkpt lat="45.04482" lon="6.65805">
        <ele>1810.78</ele>
        <time>2024-08-11T10:43:07Z</time>
      </trkpt>
      <trkpt lat="45.0448" lon="6.65805">
        <ele>1810.78</ele>
        <time>2024-08-11T10:43:08Z</time>
      </trkpt>
      <trkpt lat="45.04478" lon="6.65804">
        <ele>1810.78</ele>
        <time>2024-08-11T10:43:09Z</time>
      </trkpt>
      <trkpt lat="45.04475" lon="6.65804">
        <ele>1811.26</ele>
        <time>2024-08-11T10:43:10Z</time>
      </trkpt>
      <trkpt lat="45.04473" lon="6.65803">
        <ele>1811.26</ele>
        <time>2024-08-11T10:43:11Z</time>
      </trkpt>
      <trkpt lat="45.04471" lon="6.65802">
        <ele>1811.26</ele>
        <time>2024-08-11T10:43:12Z</time>
      </trkpt>
      <trkpt lat="45.04469" lon="6.658">
        <ele>1811.26</ele>
        <time>2024-08-11T10:43:13Z</time>
      </trkpt>
      <trkpt lat="45.04446" lon="6.65787">
        <ele>1809.34</ele>
        <time>2024-08-11T10:43:24Z</time>
      </trkpt>
      <trkpt lat="45.04426" lon="6.65778">
        <ele>1805.97</ele>
        <time>2024-08-11T10:43:30Z</time>
      </trkpt>
      <trkpt lat="45.04415" lon="6.65775">
        <ele>1804.05</ele>
        <time>2024-08-11T10:43:33Z</time>
      </trkpt>
      <trkpt lat="45.04399" lon="6.65774">
        <ele>1803.09</ele>
        <time>2024-08-11T10:43:36Z</time>
      </trkpt>
      <trkpt lat="45.04366" lon="6.65765">
        <ele>1799.24</ele>
        <time>2024-08-11T10:43:41Z</time>
      </trkpt>
      <trkpt lat="45.0436" lon="6.65765">
        <ele>1798.76</ele>
        <time>2024-08-11T10:43:42Z</time>
      </trkpt>
      <trkpt lat="45.04299" lon="6.65758">
        <ele>1795.4</ele>
        <time>2024-08-11T10:43:51Z</time>
      </trkpt>
      <trkpt lat="45.04279" lon="6.65754">
        <ele>1793.96</ele>
        <time>2024-08-11T10:43:54Z</time>
      </trkpt>
      <trkpt lat="45.04272" lon="6.65754">
        <ele>1793.48</ele>
        <time>2024-08-11T10:43:55Z</time>
      </trkpt>
      <trkpt lat="45.04266" lon="6.65756">
        <ele>1793.48</ele>
        <time>2024-08-11T10:43:56Z</time>
      </trkpt>
      <trkpt lat="45.04256" lon="6.65759">
        <ele>1793.48</ele>
        <time>2024-08-11T10:43:58Z</time>
      </trkpt>
      <trkpt lat="45.04247" lon="6.65762">
        <ele>1793.48</ele>
        <time>2024-08-11T10:44:00Z</time>
      </trkpt>
      <trkpt lat="45.04239" lon="6.65764">
        <ele>1793.48</ele>
        <time>2024-08-11T10:44:02Z</time>
      </trkpt>
      <trkpt lat="45.04235" lon="6.65765">
        <ele>1793.48</ele>
        <time>2024-08-11T10:44:03Z</time>
      </trkpt>
      <trkpt lat="45.04231" lon="6.65765">
        <ele>1793.96</ele>
        <time>2024-08-11T10:44:04Z</time>
      </trkpt>
      <trkpt lat="45.04223" lon="6.65767">
        <ele>1793.96</ele>
        <time>2024-08-11T10:44:06Z</time>
      </trkpt>
      <trkpt lat="45.04219" lon="6.65768">
        <ele>1793.48</ele>
        <time>2024-08-11T10:44:07Z</time>
      </trkpt>
      <trkpt lat="45.04214" lon="6.6577">
        <ele>1793</ele>
        <time>2024-08-11T10:44:08Z</time>
      </trkpt>
      <trkpt lat="45.0421" lon="6.6577">
        <ele>1793</ele>
        <time>2024-08-11T10:44:09Z</time>
      </trkpt>
      <trkpt lat="45.04206" lon="6.65768">
        <ele>1792.52</ele>
        <time>2024-08-11T10:44:10Z</time>
      </trkpt>
      <trkpt lat="45.04202" lon="6.65765">
        <ele>1792.52</ele>
        <time>2024-08-11T10:44:11Z</time>
      </trkpt>
      <trkpt lat="45.04199" lon="6.6576">
        <ele>1792.03</ele>
        <time>2024-08-11T10:44:12Z</time>
      </trkpt>
      <trkpt lat="45.04197" lon="6.65755">
        <ele>1792.03</ele>
        <time>2024-08-11T10:44:13Z</time>
      </trkpt>
      <trkpt lat="45.04194" lon="6.65749">
        <ele>1791.55</ele>
        <time>2024-08-11T10:44:14Z</time>
      </trkpt>
      <trkpt lat="45.0419" lon="6.65742">
        <ele>1791.55</ele>
        <time>2024-08-11T10:44:15Z</time>
      </trkpt>
      <trkpt lat="45.04185" lon="6.65735">
        <ele>1791.55</ele>
        <time>2024-08-11T10:44:16Z</time>
      </trkpt>
      <trkpt lat="45.04181" lon="6.65731">
        <ele>1791.55</ele>
        <time>2024-08-11T10:44:17Z</time>
      </trkpt>
      <trkpt lat="45.04176" lon="6.65727">
        <ele>1790.59</ele>
        <time>2024-08-11T10:44:18Z</time>
      </trkpt>
      <trkpt lat="45.0417" lon="6.65725">
        <ele>1790.59</ele>
        <time>2024-08-11T10:44:19Z</time>
      </trkpt>
      <trkpt lat="45.04164" lon="6.65724">
        <ele>1790.11</ele>
        <time>2024-08-11T10:44:20Z</time>
      </trkpt>
      <trkpt lat="45.04155" lon="6.65721">
        <ele>1789.63</ele>
        <time>2024-08-11T10:44:22Z</time>
      </trkpt>
      <trkpt lat="45.04139" lon="6.65713">
        <ele>1789.63</ele>
        <time>2024-08-11T10:44:27Z</time>
      </trkpt>
      <trkpt lat="45.0412" lon="6.65697">
        <ele>1789.63</ele>
        <time>2024-08-11T10:44:36Z</time>
      </trkpt>
      <trkpt lat="45.04118" lon="6.65697">
        <ele>1789.15</ele>
        <time>2024-08-11T10:44:37Z</time>
      </trkpt>
      <trkpt lat="45.04115" lon="6.65696">
        <ele>1789.15</ele>
        <time>2024-08-11T10:44:38Z</time>
      </trkpt>
      <trkpt lat="45.04112" lon="6.65696">
        <ele>1789.15</ele>
        <time>2024-08-11T10:44:39Z</time>
      </trkpt>
      <trkpt lat="45.04109" lon="6.65695">
        <ele>1788.67</ele>
        <time>2024-08-11T10:44:40Z</time>
      </trkpt>
      <trkpt lat="45.04106" lon="6.65694">
        <ele>1788.67</ele>
        <time>2024-08-11T10:44:41Z</time>
      </trkpt>
      <trkpt lat="45.04084" lon="6.65668">
        <ele>1788.67</ele>
        <time>2024-08-11T10:44:52Z</time>
      </trkpt>
      <trkpt lat="45.04074" lon="6.65652">
        <ele>1788.67</ele>
        <time>2024-08-11T10:44:57Z</time>
      </trkpt>
      <trkpt lat="45.04064" lon="6.65633">
        <ele>1785.79</ele>
        <time>2024-08-11T10:45:00Z</time>
      </trkpt>
      <trkpt lat="45.04048" lon="6.6561">
        <ele>1784.82</ele>
        <time>2024-08-11T10:45:03Z</time>
      </trkpt>
      <trkpt lat="45.04035" lon="6.65595">
        <ele>1783.86</ele>
        <time>2024-08-11T10:45:05Z</time>
      </trkpt>
      <trkpt lat="45.04028" lon="6.65589">
        <ele>1782.9</ele>
        <time>2024-08-11T10:45:06Z</time>
      </trkpt>
      <trkpt lat="45.04015" lon="6.65578">
        <ele>1782.42</ele>
        <time>2024-08-11T10:45:08Z</time>
      </trkpt>
      <trkpt lat="45.03994" lon="6.65561">
        <ele>1780.5</ele>
        <time>2024-08-11T10:45:11Z</time>
      </trkpt>
      <trkpt lat="45.03965" lon="6.6554">
        <ele>1778.58</ele>
        <time>2024-08-11T10:45:15Z</time>
      </trkpt>
      <trkpt lat="45.03959" lon="6.65534">
        <ele>1778.58</ele>
        <time>2024-08-11T10:45:16Z</time>
      </trkpt>
      <trkpt lat="45.03952" lon="6.65529">
        <ele>1778.58</ele>
        <time>2024-08-11T10:45:17Z</time>
      </trkpt>
      <trkpt lat="45.03944" lon="6.65526">
        <ele>1777.61</ele>
        <time>2024-08-11T10:45:18Z</time>
      </trkpt>
      <trkpt lat="45.03935" lon="6.65526">
        <ele>1777.13</ele>
        <time>2024-08-11T10:45:19Z</time>
      </trkpt>
      <trkpt lat="45.03928" lon="6.65525">
        <ele>1776.17</ele>
        <time>2024-08-11T10:45:20Z</time>
      </trkpt>
      <trkpt lat="45.03921" lon="6.65524">
        <ele>1776.17</ele>
        <time>2024-08-11T10:45:21Z</time>
      </trkpt>
      <trkpt lat="45.03914" lon="6.65522">
        <ele>1776.17</ele>
        <time>2024-08-11T10:45:22Z</time>
      </trkpt>
      <trkpt lat="45.03882" lon="6.6552">
        <ele>1776.17</ele>
        <time>2024-08-11T10:45:28Z</time>
      </trkpt>
      <trkpt lat="45.03873" lon="6.65522">
        <ele>1777.13</ele>
        <time>2024-08-11T10:45:30Z</time>
      </trkpt>
      <trkpt lat="45.03869" lon="6.65522">
        <ele>1777.13</ele>
        <time>2024-08-11T10:45:31Z</time>
      </trkpt>
      <trkpt lat="45.03865" lon="6.65522">
        <ele>1778.1</ele>
        <time>2024-08-11T10:45:32Z</time>
      </trkpt>
      <trkpt lat="45.03862" lon="6.6552">
        <ele>1778.58</ele>
        <time>2024-08-11T10:45:33Z</time>
      </trkpt>
      <trkpt lat="45.03859" lon="6.6552">
        <ele>1779.06</ele>
        <time>2024-08-11T10:45:34Z</time>
      </trkpt>
      <trkpt lat="45.03857" lon="6.6552">
        <ele>1779.54</ele>
        <time>2024-08-11T10:45:35Z</time>
      </trkpt>
      <trkpt lat="45.03855" lon="6.6552">
        <ele>1780.02</ele>
        <time>2024-08-11T10:45:36Z</time>
      </trkpt>
      <trkpt lat="45.03854" lon="6.65519">
        <ele>1780.02</ele>
        <time>2024-08-11T10:45:37Z</time>
      </trkpt>
      <trkpt lat="45.03852" lon="6.65518">
        <ele>1780.5</ele>
        <time>2024-08-11T10:45:38Z</time>
      </trkpt>
      <trkpt lat="45.03851" lon="6.65517">
        <ele>1780.98</ele>
        <time>2024-08-11T10:45:39Z</time>
      </trkpt>
      <trkpt lat="45.03849" lon="6.65516">
        <ele>1780.98</ele>
        <time>2024-08-11T10:45:40Z</time>
      </trkpt>
      <trkpt lat="45.03848" lon="6.65515">
        <ele>1780.98</ele>
        <time>2024-08-11T10:45:41Z</time>
      </trkpt>
      <trkpt lat="45.03846" lon="6.65514">
        <ele>1781.46</ele>
        <time>2024-08-11T10:45:42Z</time>
      </trkpt>
      <trkpt lat="45.03844" lon="6.65513">
        <ele>1781.46</ele>
        <time>2024-08-11T10:45:43Z</time>
      </trkpt>
      <trkpt lat="45.03841" lon="6.65511">
        <ele>1780.98</ele>
        <time>2024-08-11T10:45:44Z</time>
      </trkpt>
      <trkpt lat="45.03838" lon="6.65511">
        <ele>1780.98</ele>
        <time>2024-08-11T10:45:45Z</time>
      </trkpt>
      <trkpt lat="45.03805" lon="6.65506">
        <ele>1781.94</ele>
        <time>2024-08-11T10:45:55Z</time>
      </trkpt>
      <trkpt lat="45.03791" lon="6.65505">
        <ele>1781.94</ele>
        <time>2024-08-11T10:46:00Z</time>
      </trkpt>
      <trkpt lat="45.03787" lon="6.65503">
        <ele>1781.46</ele>
        <time>2024-08-11T10:46:02Z</time>
      </trkpt>
      <trkpt lat="45.03766" lon="6.65505">
        <ele>1782.42</ele>
        <time>2024-08-11T10:46:09Z</time>
      </trkpt>
      <trkpt lat="45.03729" lon="6.655">
        <ele>1783.38</ele>
        <time>2024-08-11T10:46:18Z</time>
      </trkpt>
      <trkpt lat="45.03703" lon="6.65501">
        <ele>1783.38</ele>
        <time>2024-08-11T10:46:26Z</time>
      </trkpt>
      <trkpt lat="45.03699" lon="6.655">
        <ele>1783.38</ele>
        <time>2024-08-11T10:46:27Z</time>
      </trkpt>
      <trkpt lat="45.03697" lon="6.65499">
        <ele>1783.38</ele>
        <time>2024-08-11T10:46:28Z</time>
      </trkpt>
      <trkpt lat="45.03695" lon="6.65497">
        <ele>1783.38</ele>
        <time>2024-08-11T10:46:29Z</time>
      </trkpt>
      <trkpt lat="45.03692" lon="6.65496">
        <ele>1783.38</ele>
        <time>2024-08-11T10:46:30Z</time>
      </trkpt>
      <trkpt lat="45.0369" lon="6.65495">
        <ele>1783.38</ele>
        <time>2024-08-11T10:46:31Z</time>
      </trkpt>
      <trkpt lat="45.03662" lon="6.65486">
        <ele>1783.38</ele>
        <time>2024-08-11T10:46:38Z</time>
      </trkpt>
      <trkpt lat="45.03652" lon="6.65486">
        <ele>1781.46</ele>
        <time>2024-08-11T10:46:40Z</time>
      </trkpt>
      <trkpt lat="45.03637" lon="6.65484">
        <ele>1780.98</ele>
        <time>2024-08-11T10:46:43Z</time>
      </trkpt>
      <trkpt lat="45.03632" lon="6.65484">
        <ele>1780.98</ele>
        <time>2024-08-11T10:46:44Z</time>
      </trkpt>
      <trkpt lat="45.03627" lon="6.65484">
        <ele>1780.98</ele>
        <time>2024-08-11T10:46:45Z</time>
      </trkpt>
      <trkpt lat="45.03622" lon="6.65483">
        <ele>1780.5</ele>
        <time>2024-08-11T10:46:46Z</time>
      </trkpt>
      <trkpt lat="45.03616" lon="6.65482">
        <ele>1780.5</ele>
        <time>2024-08-11T10:46:47Z</time>
      </trkpt>
      <trkpt lat="45.03606" lon="6.65482">
        <ele>1779.54</ele>
        <time>2024-08-11T10:46:49Z</time>
      </trkpt>
      <trkpt lat="45.036" lon="6.65483">
        <ele>1779.54</ele>
        <time>2024-08-11T10:46:50Z</time>
      </trkpt>
      <trkpt lat="45.03596" lon="6.65485">
        <ele>1779.54</ele>
        <time>2024-08-11T10:46:51Z</time>
      </trkpt>
      <trkpt lat="45.03573" lon="6.65498">
        <ele>1780.98</ele>
        <time>2024-08-11T10:47:00Z</time>
      </trkpt>
      <trkpt lat="45.03571" lon="6.65501">
        <ele>1780.98</ele>
        <time>2024-08-11T10:47:01Z</time>
      </trkpt>
      <trkpt lat="45.03569" lon="6.65502">
        <ele>1780.98</ele>
        <time>2024-08-11T10:47:02Z</time>
      </trkpt>
      <trkpt lat="45.03566" lon="6.65503">
        <ele>1780.98</ele>
        <time>2024-08-11T10:47:03Z</time>
      </trkpt>
      <trkpt lat="45.03564" lon="6.65504">
        <ele>1780.98</ele>
        <time>2024-08-11T10:47:04Z</time>
      </trkpt>
      <trkpt lat="45.03549" lon="6.6551">
        <ele>1780.98</ele>
        <time>2024-08-11T10:47:08Z</time>
      </trkpt>
      <trkpt lat="45.03545" lon="6.65511">
        <ele>1780.98</ele>
        <time>2024-08-11T10:47:09Z</time>
      </trkpt>
      <trkpt lat="45.03504" lon="6.65523">
        <ele>1783.38</ele>
        <time>2024-08-11T10:47:19Z</time>
      </trkpt>
      <trkpt lat="45.035" lon="6.65525">
        <ele>1783.38</ele>
        <time>2024-08-11T10:47:20Z</time>
      </trkpt>
      <trkpt lat="45.03496" lon="6.65526">
        <ele>1783.38</ele>
        <time>2024-08-11T10:47:21Z</time>
      </trkpt>
      <trkpt lat="45.03492" lon="6.65526">
        <ele>1783.38</ele>
        <time>2024-08-11T10:47:22Z</time>
      </trkpt>
      <trkpt lat="45.03488" lon="6.65527">
        <ele>1783.38</ele>
        <time>2024-08-11T10:47:23Z</time>
      </trkpt>
      <trkpt lat="45.03485" lon="6.65528">
        <ele>1783.38</ele>
        <time>2024-08-11T10:47:24Z</time>
      </trkpt>
      <trkpt lat="45.03452" lon="6.65537">
        <ele>1783.38</ele>
        <time>2024-08-11T10:47:34Z</time>
      </trkpt>
      <trkpt lat="45.03414" lon="6.65555">
        <ele>1783.38</ele>
        <time>2024-08-11T10:47:45Z</time>
      </trkpt>
      <trkpt lat="45.03369" lon="6.65578">
        <ele>1784.82</ele>
        <time>2024-08-11T10:48:00Z</time>
      </trkpt>
      <trkpt lat="45.03343" lon="6.65595">
        <ele>1785.79</ele>
        <time>2024-08-11T10:48:10Z</time>
      </trkpt>
      <trkpt lat="45.03341" lon="6.65594">
        <ele>1785.79</ele>
        <time>2024-08-11T10:48:11Z</time>
      </trkpt>
      <trkpt lat="45.03338" lon="6.65593">
        <ele>1785.79</ele>
        <time>2024-08-11T10:48:12Z</time>
      </trkpt>
      <trkpt lat="45.03335" lon="6.65592">
        <ele>1785.79</ele>
        <time>2024-08-11T10:48:13Z</time>
      </trkpt>
      <trkpt lat="45.03333" lon="6.65591">
        <ele>1786.27</ele>
        <time>2024-08-11T10:48:14Z</time>
      </trkpt>
      <trkpt lat="45.0333" lon="6.65589">
        <ele>1786.27</ele>
        <time>2024-08-11T10:48:15Z</time>
      </trkpt>
      <trkpt lat="45.03328" lon="6.65586">
        <ele>1786.27</ele>
        <time>2024-08-11T10:48:16Z</time>
      </trkpt>
      <trkpt lat="45.03325" lon="6.65584">
        <ele>1786.27</ele>
        <time>2024-08-11T10:48:17Z</time>
      </trkpt>
      <trkpt lat="45.03323" lon="6.65582">
        <ele>1786.27</ele>
        <time>2024-08-11T10:48:18Z</time>
      </trkpt>
      <trkpt lat="45.03285" lon="6.65563">
        <ele>1787.71</ele>
        <time>2024-08-11T10:48:32Z</time>
      </trkpt>
      <trkpt lat="45.03267" lon="6.65556">
        <ele>1787.71</ele>
        <time>2024-08-11T10:48:43Z</time>
      </trkpt>
      <trkpt lat="45.03267" lon="6.65556">
        <ele>1787.71</ele>
        <time>2024-08-11T10:49:06Z</time>
      </trkpt>
      <trkpt lat="45.03265" lon="6.65557">
        <ele>1787.23</ele>
        <time>2024-08-11T10:49:33Z</time>
      </trkpt>
      <trkpt lat="45.03262" lon="6.65555">
        <ele>1787.23</ele>
        <time>2024-08-11T10:49:46Z</time>
      </trkpt>
      <trkpt lat="45.0326" lon="6.65554">
        <ele>1786.75</ele>
        <time>2024-08-11T10:50:14Z</time>
      </trkpt>
      <trkpt lat="45.03249" lon="6.65551">
        <ele>1785.31</ele>
        <time>2024-08-11T10:50:19Z</time>
      </trkpt>
      <trkpt lat="45.03244" lon="6.6555">
        <ele>1785.31</ele>
        <time>2024-08-11T10:50:22Z</time>
      </trkpt>
      <trkpt lat="45.03242" lon="6.6555">
        <ele>1785.31</ele>
        <time>2024-08-11T10:50:23Z</time>
      </trkpt>
      <trkpt lat="45.0324" lon="6.6555">
        <ele>1785.31</ele>
        <time>2024-08-11T10:50:24Z</time>
      </trkpt>
      <trkpt lat="45.03213" lon="6.65552">
        <ele>1784.82</ele>
        <time>2024-08-11T10:50:36Z</time>
      </trkpt>
      <trkpt lat="45.03202" lon="6.6555">
        <ele>1784.82</ele>
        <time>2024-08-11T10:50:39Z</time>
      </trkpt>
      <trkpt lat="45.03197" lon="6.6555">
        <ele>1784.34</ele>
        <time>2024-08-11T10:50:40Z</time>
      </trkpt>
      <trkpt lat="45.03191" lon="6.6555">
        <ele>1783.86</ele>
        <time>2024-08-11T10:50:41Z</time>
      </trkpt>
      <trkpt lat="45.03186" lon="6.65549">
        <ele>1783.86</ele>
        <time>2024-08-11T10:50:42Z</time>
      </trkpt>
      <trkpt lat="45.03181" lon="6.65549">
        <ele>1783.86</ele>
        <time>2024-08-11T10:50:43Z</time>
      </trkpt>
      <trkpt lat="45.03175" lon="6.65549">
        <ele>1783.38</ele>
        <time>2024-08-11T10:50:44Z</time>
      </trkpt>
      <trkpt lat="45.0317" lon="6.6555">
        <ele>1782.9</ele>
        <time>2024-08-11T10:50:45Z</time>
      </trkpt>
      <trkpt lat="45.03164" lon="6.65551">
        <ele>1782.9</ele>
        <time>2024-08-11T10:50:46Z</time>
      </trkpt>
      <trkpt lat="45.03148" lon="6.65553">
        <ele>1781.94</ele>
        <time>2024-08-11T10:50:49Z</time>
      </trkpt>
      <trkpt lat="45.03143" lon="6.65555">
        <ele>1781.94</ele>
        <time>2024-08-11T10:50:50Z</time>
      </trkpt>
      <trkpt lat="45.03139" lon="6.65558">
        <ele>1781.94</ele>
        <time>2024-08-11T10:50:51Z</time>
      </trkpt>
      <trkpt lat="45.03135" lon="6.65562">
        <ele>1781.94</ele>
        <time>2024-08-11T10:50:52Z</time>
      </trkpt>
      <trkpt lat="45.03131" lon="6.65564">
        <ele>1781.94</ele>
        <time>2024-08-11T10:50:53Z</time>
      </trkpt>
      <trkpt lat="45.03123" lon="6.65569">
        <ele>1781.94</ele>
        <time>2024-08-11T10:50:55Z</time>
      </trkpt>
      <trkpt lat="45.03113" lon="6.65573">
        <ele>1781.94</ele>
        <time>2024-08-11T10:50:57Z</time>
      </trkpt>
      <trkpt lat="45.03109" lon="6.65576">
        <ele>1781.94</ele>
        <time>2024-08-11T10:50:58Z</time>
      </trkpt>
      <trkpt lat="45.03104" lon="6.65578">
        <ele>1781.94</ele>
        <time>2024-08-11T10:50:59Z</time>
      </trkpt>
      <trkpt lat="45.03095" lon="6.65581">
        <ele>1781.94</ele>
        <time>2024-08-11T10:51:01Z</time>
      </trkpt>
      <trkpt lat="45.03086" lon="6.6558">
        <ele>1781.94</ele>
        <time>2024-08-11T10:51:03Z</time>
      </trkpt>
      <trkpt lat="45.03053" lon="6.65587">
        <ele>1784.34</ele>
        <time>2024-08-11T10:51:14Z</time>
      </trkpt>
      <trkpt lat="45.0304" lon="6.6559">
        <ele>1784.34</ele>
        <time>2024-08-11T10:51:18Z</time>
      </trkpt>
      <trkpt lat="45.03035" lon="6.65592">
        <ele>1784.34</ele>
        <time>2024-08-11T10:51:19Z</time>
      </trkpt>
      <trkpt lat="45.0303" lon="6.65595">
        <ele>1782.9</ele>
        <time>2024-08-11T10:51:20Z</time>
      </trkpt>
      <trkpt lat="45.03023" lon="6.65598">
        <ele>1782.42</ele>
        <time>2024-08-11T10:51:21Z</time>
      </trkpt>
      <trkpt lat="45.03017" lon="6.65602">
        <ele>1781.94</ele>
        <time>2024-08-11T10:51:22Z</time>
      </trkpt>
      <trkpt lat="45.0301" lon="6.65605">
        <ele>1781.46</ele>
        <time>2024-08-11T10:51:23Z</time>
      </trkpt>
      <trkpt lat="45.03003" lon="6.65605">
        <ele>1780.98</ele>
        <time>2024-08-11T10:51:24Z</time>
      </trkpt>
      <trkpt lat="45.02996" lon="6.65606">
        <ele>1780.98</ele>
        <time>2024-08-11T10:51:25Z</time>
      </trkpt>
      <trkpt lat="45.02989" lon="6.65607">
        <ele>1780.98</ele>
        <time>2024-08-11T10:51:26Z</time>
      </trkpt>
      <trkpt lat="45.02983" lon="6.65609">
        <ele>1780.98</ele>
        <time>2024-08-11T10:51:27Z</time>
      </trkpt>
      <trkpt lat="45.02943" lon="6.65622">
        <ele>1779.54</ele>
        <time>2024-08-11T10:51:35Z</time>
      </trkpt>
      <trkpt lat="45.02938" lon="6.65624">
        <ele>1779.54</ele>
        <time>2024-08-11T10:51:36Z</time>
      </trkpt>
      <trkpt lat="45.02934" lon="6.65625">
        <ele>1779.54</ele>
        <time>2024-08-11T10:51:37Z</time>
      </trkpt>
      <trkpt lat="45.02897" lon="6.6563">
        <ele>1779.06</ele>
        <time>2024-08-11T10:51:48Z</time>
      </trkpt>
      <trkpt lat="45.02855" lon="6.65642">
        <ele>1780.02</ele>
        <time>2024-08-11T10:52:03Z</time>
      </trkpt>
      <trkpt lat="45.02812" lon="6.65659">
        <ele>1782.42</ele>
        <time>2024-08-11T10:52:18Z</time>
      </trkpt>
      <trkpt lat="45.02781" lon="6.65669">
        <ele>1784.34</ele>
        <time>2024-08-11T10:52:31Z</time>
      </trkpt>
      <trkpt lat="45.02741" lon="6.65679">
        <ele>1786.27</ele>
        <time>2024-08-11T10:52:48Z</time>
      </trkpt>
      <trkpt lat="45.02725" lon="6.65683">
        <ele>1787.23</ele>
        <time>2024-08-11T10:52:56Z</time>
      </trkpt>
      <trkpt lat="45.02723" lon="6.65683">
        <ele>1787.23</ele>
        <time>2024-08-11T10:52:57Z</time>
      </trkpt>
      <trkpt lat="45.02722" lon="6.65682">
        <ele>1787.23</ele>
        <time>2024-08-11T10:52:58Z</time>
      </trkpt>
      <trkpt lat="45.0272" lon="6.65679">
        <ele>1787.23</ele>
        <time>2024-08-11T10:52:59Z</time>
      </trkpt>
      <trkpt lat="45.0272" lon="6.65676">
        <ele>1787.23</ele>
        <time>2024-08-11T10:53:00Z</time>
      </trkpt>
      <trkpt lat="45.02721" lon="6.65674">
        <ele>1787.23</ele>
        <time>2024-08-11T10:53:01Z</time>
      </trkpt>
      <trkpt lat="45.02722" lon="6.65672">
        <ele>1787.23</ele>
        <time>2024-08-11T10:53:02Z</time>
      </trkpt>
      <trkpt lat="45.02723" lon="6.65671">
        <ele>1787.23</ele>
        <time>2024-08-11T10:53:03Z</time>
      </trkpt>
      <trkpt lat="45.02725" lon="6.6567">
        <ele>1787.71</ele>
        <time>2024-08-11T10:53:04Z</time>
      </trkpt>
      <trkpt lat="45.02736" lon="6.65663">
        <ele>1790.59</ele>
        <time>2024-08-11T10:53:12Z</time>
      </trkpt>
      <trkpt lat="45.02742" lon="6.65659">
        <ele>1792.03</ele>
        <time>2024-08-11T10:53:22Z</time>
      </trkpt>
      <trkpt lat="45.02746" lon="6.65656">
        <ele>1793.48</ele>
        <time>2024-08-11T10:53:35Z</time>
      </trkpt>
      <trkpt lat="45.02754" lon="6.6565">
        <ele>1794.92</ele>
        <time>2024-08-11T10:53:48Z</time>
      </trkpt>
      <trkpt lat="45.02753" lon="6.65645">
        <ele>1796.84</ele>
        <time>2024-08-11T10:54:01Z</time>
      </trkpt>
      <trkpt lat="45.02747" lon="6.65639">
        <ele>1798.28</ele>
        <time>2024-08-11T10:54:15Z</time>
      </trkpt>
      <trkpt lat="45.02753" lon="6.65627">
        <ele>1800.69</ele>
        <time>2024-08-11T10:54:30Z</time>
      </trkpt>
      <trkpt lat="45.02761" lon="6.65616">
        <ele>1801.17</ele>
        <time>2024-08-11T10:54:43Z</time>
      </trkpt>
      <trkpt lat="45.02764" lon="6.65613">
        <ele>1801.65</ele>
        <time>2024-08-11T10:54:57Z</time>
      </trkpt>
      <trkpt lat="45.02765" lon="6.65612">
        <ele>1802.13</ele>
        <time>2024-08-11T10:54:59Z</time>
      </trkpt>
      <trkpt lat="45.02766" lon="6.65611">
        <ele>1802.13</ele>
        <time>2024-08-11T10:55:00Z</time>
      </trkpt>
      <trkpt lat="45.02774" lon="6.65599">
        <ele>1803.09</ele>
        <time>2024-08-11T10:55:08Z</time>
      </trkpt>
      <trkpt lat="45.0278" lon="6.65591">
        <ele>1803.57</ele>
        <time>2024-08-11T10:55:13Z</time>
      </trkpt>
      <trkpt lat="45.02793" lon="6.65572">
        <ele>1804.05</ele>
        <time>2024-08-11T10:55:26Z</time>
      </trkpt>
      <trkpt lat="45.02801" lon="6.65563">
        <ele>1804.53</ele>
        <time>2024-08-11T10:55:33Z</time>
      </trkpt>
      <trkpt lat="45.02805" lon="6.65559">
        <ele>1805.49</ele>
        <time>2024-08-11T10:55:37Z</time>
      </trkpt>
      <trkpt lat="45.02812" lon="6.65547">
        <ele>1806.45</ele>
        <time>2024-08-11T10:55:48Z</time>
      </trkpt>
      <trkpt lat="45.02815" lon="6.65542">
        <ele>1808.38</ele>
        <time>2024-08-11T10:56:01Z</time>
      </trkpt>
      <trkpt lat="45.02814" lon="6.65523">
        <ele>1809.82</ele>
        <time>2024-08-11T10:56:17Z</time>
      </trkpt>
      <trkpt lat="45.02816" lon="6.65518">
        <ele>1810.3</ele>
        <time>2024-08-11T10:56:28Z</time>
      </trkpt>
      <trkpt lat="45.02815" lon="6.65512">
        <ele>1810.78</ele>
        <time>2024-08-11T10:56:32Z</time>
      </trkpt>
      <trkpt lat="45.02811" lon="6.65495">
        <ele>1810.3</ele>
        <time>2024-08-11T10:56:39Z</time>
      </trkpt>
      <trkpt lat="45.02807" lon="6.65456">
        <ele>1810.78</ele>
        <time>2024-08-11T10:56:51Z</time>
      </trkpt>
      <trkpt lat="45.02807" lon="6.65453">
        <ele>1810.78</ele>
        <time>2024-08-11T10:56:52Z</time>
      </trkpt>
      <trkpt lat="45.02815" lon="6.65422">
        <ele>1810.3</ele>
        <time>2024-08-11T10:57:00Z</time>
      </trkpt>
      <trkpt lat="45.02822" lon="6.65404">
        <ele>1810.3</ele>
        <time>2024-08-11T10:57:04Z</time>
      </trkpt>
      <trkpt lat="45.02825" lon="6.65398">
        <ele>1810.3</ele>
        <time>2024-08-11T10:57:06Z</time>
      </trkpt>
      <trkpt lat="45.02829" lon="6.65385">
        <ele>1811.74</ele>
        <time>2024-08-11T10:57:13Z</time>
      </trkpt>
      <trkpt lat="45.02828" lon="6.65378">
        <ele>1813.66</ele>
        <time>2024-08-11T10:57:23Z</time>
      </trkpt>
      <trkpt lat="45.02828" lon="6.65376">
        <ele>1815.11</ele>
        <time>2024-08-11T10:57:33Z</time>
      </trkpt>
      <trkpt lat="45.0283" lon="6.65373">
        <ele>1816.07</ele>
        <time>2024-08-11T10:57:45Z</time>
      </trkpt>
      <trkpt lat="45.02836" lon="6.65366">
        <ele>1817.99</ele>
        <time>2024-08-11T10:57:59Z</time>
      </trkpt>
      <trkpt lat="45.02838" lon="6.65362">
        <ele>1820.39</ele>
        <time>2024-08-11T10:58:11Z</time>
      </trkpt>
      <trkpt lat="45.02835" lon="6.65352">
        <ele>1822.8</ele>
        <time>2024-08-11T10:58:24Z</time>
      </trkpt>
      <trkpt lat="45.02836" lon="6.65346">
        <ele>1824.72</ele>
        <time>2024-08-11T10:58:37Z</time>
      </trkpt>
      <trkpt lat="45.0284" lon="6.65339">
        <ele>1827.12</ele>
        <time>2024-08-11T10:58:53Z</time>
      </trkpt>
      <trkpt lat="45.02847" lon="6.65332">
        <ele>1829.53</ele>
        <time>2024-08-11T10:59:06Z</time>
      </trkpt>
      <trkpt lat="45.02853" lon="6.65329">
        <ele>1832.41</ele>
        <time>2024-08-11T10:59:19Z</time>
      </trkpt>
      <trkpt lat="45.02852" lon="6.65325">
        <ele>1835.29</ele>
        <time>2024-08-11T10:59:35Z</time>
      </trkpt>
      <trkpt lat="45.02849" lon="6.65325">
        <ele>1836.74</ele>
        <time>2024-08-11T10:59:50Z</time>
      </trkpt>
      <trkpt lat="45.02839" lon="6.65322">
        <ele>1837.22</ele>
        <time>2024-08-11T11:00:06Z</time>
      </trkpt>
      <trkpt lat="45.02832" lon="6.65321">
        <ele>1838.66</ele>
        <time>2024-08-11T11:00:21Z</time>
      </trkpt>
      <trkpt lat="45.02823" lon="6.65316">
        <ele>1838.66</ele>
        <time>2024-08-11T11:00:43Z</time>
      </trkpt>
      <trkpt lat="45.02827" lon="6.65317">
        <ele>1838.66</ele>
        <time>2024-08-11T11:01:00Z</time>
      </trkpt>
      <trkpt lat="45.02827" lon="6.65314">
        <ele>1839.62</ele>
        <time>2024-08-11T11:01:26Z</time>
      </trkpt>
      <trkpt lat="45.02825" lon="6.65313">
        <ele>1840.58</ele>
        <time>2024-08-11T11:01:38Z</time>
      </trkpt>
      <trkpt lat="45.02821" lon="6.65311">
        <ele>1841.54</ele>
        <time>2024-08-11T11:01:54Z</time>
      </trkpt>
      <trkpt lat="45.02823" lon="6.65311">
        <ele>1842.5</ele>
        <time>2024-08-11T11:02:05Z</time>
      </trkpt>
      <trkpt lat="45.02829" lon="6.6531">
        <ele>1842.5</ele>
        <time>2024-08-11T11:02:21Z</time>
      </trkpt>
      <trkpt lat="45.02831" lon="6.65305">
        <ele>1843.95</ele>
        <time>2024-08-11T11:02:32Z</time>
      </trkpt>
      <trkpt lat="45.02834" lon="6.65303">
        <ele>1843.95</ele>
        <time>2024-08-11T11:02:41Z</time>
      </trkpt>
      <trkpt lat="45.02836" lon="6.65302">
        <ele>1842.5</ele>
        <time>2024-08-11T11:02:43Z</time>
      </trkpt>
      <trkpt lat="45.02839" lon="6.65296">
        <ele>1843.95</ele>
        <time>2024-08-11T11:02:58Z</time>
      </trkpt>
      <trkpt lat="45.0284" lon="6.65294">
        <ele>1844.43</ele>
        <time>2024-08-11T11:03:14Z</time>
      </trkpt>
      <trkpt lat="45.02839" lon="6.65293">
        <ele>1846.83</ele>
        <time>2024-08-11T11:03:27Z</time>
      </trkpt>
      <trkpt lat="45.02835" lon="6.65296">
        <ele>1848.75</ele>
        <time>2024-08-11T11:03:42Z</time>
      </trkpt>
      <trkpt lat="45.0283" lon="6.65298">
        <ele>1851.16</ele>
        <time>2024-08-11T11:03:57Z</time>
      </trkpt>
      <trkpt lat="45.02827" lon="6.65297">
        <ele>1854.04</ele>
        <time>2024-08-11T11:04:12Z</time>
      </trkpt>
      <trkpt lat="45.02818" lon="6.65297">
        <ele>1855.48</ele>
        <time>2024-08-11T11:04:26Z</time>
      </trkpt>
      <trkpt lat="45.02812" lon="6.65294">
        <ele>1857.4</ele>
        <time>2024-08-11T11:04:39Z</time>
      </trkpt>
      <trkpt lat="45.02813" lon="6.6529">
        <ele>1859.81</ele>
        <time>2024-08-11T11:04:53Z</time>
      </trkpt>
      <trkpt lat="45.02812" lon="6.65287">
        <ele>1861.25</ele>
        <time>2024-08-11T11:04:58Z</time>
      </trkpt>
      <trkpt lat="45.02806" lon="6.65283">
        <ele>1861.25</ele>
        <time>2024-08-11T11:05:12Z</time>
      </trkpt>
      <trkpt lat="45.02802" lon="6.65286">
        <ele>1862.69</ele>
        <time>2024-08-11T11:05:22Z</time>
      </trkpt>
      <trkpt lat="45.02795" lon="6.65292">
        <ele>1864.61</ele>
        <time>2024-08-11T11:05:35Z</time>
      </trkpt>
      <trkpt lat="45.02785" lon="6.65296">
        <ele>1865.09</ele>
        <time>2024-08-11T11:05:46Z</time>
      </trkpt>
      <trkpt lat="45.02776" lon="6.65302">
        <ele>1866.06</ele>
        <time>2024-08-11T11:05:57Z</time>
      </trkpt>
      <trkpt lat="45.0277" lon="6.65304">
        <ele>1867.02</ele>
        <time>2024-08-11T11:06:02Z</time>
      </trkpt>
      <trkpt lat="45.0275" lon="6.65309">
        <ele>1869.9</ele>
        <time>2024-08-11T11:06:18Z</time>
      </trkpt>
      <trkpt lat="45.02748" lon="6.6531">
        <ele>1869.9</ele>
        <time>2024-08-11T11:06:20Z</time>
      </trkpt>
      <trkpt lat="45.02742" lon="6.65305">
        <ele>1871.82</ele>
        <time>2024-08-11T11:06:35Z</time>
      </trkpt>
      <trkpt lat="45.02734" lon="6.653">
        <ele>1874.71</ele>
        <time>2024-08-11T11:06:53Z</time>
      </trkpt>
      <trkpt lat="45.02725" lon="6.65298">
        <ele>1877.11</ele>
        <time>2024-08-11T11:07:07Z</time>
      </trkpt>
      <trkpt lat="45.02715" lon="6.65286">
        <ele>1879.03</ele>
        <time>2024-08-11T11:07:21Z</time>
      </trkpt>
      <trkpt lat="45.0271" lon="6.65285">
        <ele>1880</ele>
        <time>2024-08-11T11:07:38Z</time>
      </trkpt>
      <trkpt lat="45.02711" lon="6.65286">
        <ele>1880</ele>
        <time>2024-08-11T11:08:01Z</time>
      </trkpt>
      <trkpt lat="45.02712" lon="6.65289">
        <ele>1880</ele>
        <time>2024-08-11T11:08:23Z</time>
      </trkpt>
      <trkpt lat="45.0271" lon="6.65287">
        <ele>1880</ele>
        <time>2024-08-11T11:08:44Z</time>
      </trkpt>
      <trkpt lat="45.02709" lon="6.65286">
        <ele>1879.51</ele>
        <time>2024-08-11T11:09:10Z</time>
      </trkpt>
      <trkpt lat="45.02709" lon="6.65289">
        <ele>1879.51</ele>
        <time>2024-08-11T11:09:51Z</time>
      </trkpt>
      <trkpt lat="45.02709" lon="6.65292">
        <ele>1878.55</ele>
        <time>2024-08-11T11:10:19Z</time>
      </trkpt>
      <trkpt lat="45.02709" lon="6.65292">
        <ele>1878.55</ele>
        <time>2024-08-11T11:10:53Z</time>
      </trkpt>
      <trkpt lat="45.02708" lon="6.6529">
        <ele>1878.55</ele>
        <time>2024-08-11T11:11:27Z</time>
      </trkpt>
      <trkpt lat="45.02708" lon="6.65293">
        <ele>1878.55</ele>
        <time>2024-08-11T11:11:49Z</time>
      </trkpt>
      <trkpt lat="45.02706" lon="6.65291">
        <ele>1878.55</ele>
        <time>2024-08-11T11:12:22Z</time>
      </trkpt>
      <trkpt lat="45.02706" lon="6.65287">
        <ele>1880</ele>
        <time>2024-08-11T11:12:50Z</time>
      </trkpt>
      <trkpt lat="45.02707" lon="6.65284">
        <ele>1880</ele>
        <time>2024-08-11T11:13:16Z</time>
      </trkpt>
      <trkpt lat="45.02705" lon="6.65286">
        <ele>1879.51</ele>
        <time>2024-08-11T11:13:40Z</time>
      </trkpt>
      <trkpt lat="45.02707" lon="6.65288">
        <ele>1880</ele>
        <time>2024-08-11T11:14:11Z</time>
      </trkpt>
      <trkpt lat="45.02708" lon="6.65288">
        <ele>1880.48</ele>
        <time>2024-08-11T11:14:42Z</time>
      </trkpt>
      <trkpt lat="45.02708" lon="6.65291">
        <ele>1880</ele>
        <time>2024-08-11T11:15:07Z</time>
      </trkpt>
      <trkpt lat="45.0271" lon="6.65286">
        <ele>1880</ele>
        <time>2024-08-11T11:15:30Z</time>
      </trkpt>
      <trkpt lat="45.02707" lon="6.6529">
        <ele>1880</ele>
        <time>2024-08-11T11:15:56Z</time>
      </trkpt>
      <trkpt lat="45.02705" lon="6.65288">
        <ele>1880</ele>
        <time>2024-08-11T11:16:27Z</time>
      </trkpt>
      <trkpt lat="45.02706" lon="6.65285">
        <ele>1880</ele>
        <time>2024-08-11T11:16:50Z</time>
      </trkpt>
      <trkpt lat="45.02706" lon="6.65283">
        <ele>1879.51</ele>
        <time>2024-08-11T11:17:13Z</time>
      </trkpt>
      <trkpt lat="45.02707" lon="6.65281">
        <ele>1879.51</ele>
        <time>2024-08-11T11:17:32Z</time>
      </trkpt>
      <trkpt lat="45.0271" lon="6.65283">
        <ele>1879.51</ele>
        <time>2024-08-11T11:17:53Z</time>
      </trkpt>
      <trkpt lat="45.02711" lon="6.65281">
        <ele>1879.51</ele>
        <time>2024-08-11T11:18:13Z</time>
      </trkpt>
      <trkpt lat="45.02711" lon="6.65281">
        <ele>1879.51</ele>
        <time>2024-08-11T11:18:40Z</time>
      </trkpt>
      <trkpt lat="45.02711" lon="6.65282">
        <ele>1879.51</ele>
        <time>2024-08-11T11:19:00Z</time>
      </trkpt>
      <trkpt lat="45.02709" lon="6.65284">
        <ele>1878.07</ele>
        <time>2024-08-11T11:19:32Z</time>
      </trkpt>
      <trkpt lat="45.0271" lon="6.65281">
        <ele>1878.07</ele>
        <time>2024-08-11T11:19:58Z</time>
      </trkpt>
      <trkpt lat="45.02694" lon="6.65278">
        <ele>1874.71</ele>
        <time>2024-08-11T11:20:04Z</time>
      </trkpt>
      <trkpt lat="45.02687" lon="6.65279">
        <ele>1873.75</ele>
        <time>2024-08-11T11:20:05Z</time>
      </trkpt>
      <trkpt lat="45.02666" lon="6.65281">
        <ele>1871.34</ele>
        <time>2024-08-11T11:20:08Z</time>
      </trkpt>
      <trkpt lat="45.0264" lon="6.65282">
        <ele>1867.5</ele>
        <time>2024-08-11T11:20:12Z</time>
      </trkpt>
      <trkpt lat="45.02633" lon="6.65283">
        <ele>1867.5</ele>
        <time>2024-08-11T11:20:13Z</time>
      </trkpt>
      <trkpt lat="45.02615" lon="6.65286">
        <ele>1864.13</ele>
        <time>2024-08-11T11:20:16Z</time>
      </trkpt>
      <trkpt lat="45.02604" lon="6.65294">
        <ele>1863.17</ele>
        <time>2024-08-11T11:20:18Z</time>
      </trkpt>
      <trkpt lat="45.02593" lon="6.65304">
        <ele>1862.69</ele>
        <time>2024-08-11T11:20:20Z</time>
      </trkpt>
      <trkpt lat="45.02549" lon="6.6532">
        <ele>1859.81</ele>
        <time>2024-08-11T11:20:27Z</time>
      </trkpt>
      <trkpt lat="45.02518" lon="6.65339">
        <ele>1857.89</ele>
        <time>2024-08-11T11:20:32Z</time>
      </trkpt>
      <trkpt lat="45.02506" lon="6.65345">
        <ele>1856.92</ele>
        <time>2024-08-11T11:20:34Z</time>
      </trkpt>
      <trkpt lat="45.0248" lon="6.65338">
        <ele>1856.44</ele>
        <time>2024-08-11T11:20:40Z</time>
      </trkpt>
      <trkpt lat="45.02468" lon="6.65327">
        <ele>1855.48</ele>
        <time>2024-08-11T11:20:44Z</time>
      </trkpt>
      <trkpt lat="45.02463" lon="6.65347">
        <ele>1851.16</ele>
        <time>2024-08-11T11:20:50Z</time>
      </trkpt>
      <trkpt lat="45.0247" lon="6.65374">
        <ele>1848.27</ele>
        <time>2024-08-11T11:20:54Z</time>
      </trkpt>
      <trkpt lat="45.0247" lon="6.65387">
        <ele>1846.35</ele>
        <time>2024-08-11T11:20:56Z</time>
      </trkpt>
      <trkpt lat="45.02463" lon="6.65389">
        <ele>1842.5</ele>
        <time>2024-08-11T11:21:01Z</time>
      </trkpt>
      <trkpt lat="45.02462" lon="6.65391">
        <ele>1841.54</ele>
        <time>2024-08-11T11:21:02Z</time>
      </trkpt>
      <trkpt lat="45.02459" lon="6.65417">
        <ele>1838.18</ele>
        <time>2024-08-11T11:21:07Z</time>
      </trkpt>
      <trkpt lat="45.0246" lon="6.65424">
        <ele>1838.18</ele>
        <time>2024-08-11T11:21:08Z</time>
      </trkpt>
      <trkpt lat="45.02459" lon="6.65441">
        <ele>1836.26</ele>
        <time>2024-08-11T11:21:11Z</time>
      </trkpt>
      <trkpt lat="45.02443" lon="6.65424">
        <ele>1831.93</ele>
        <time>2024-08-11T11:21:19Z</time>
      </trkpt>
      <trkpt lat="45.02434" lon="6.65414">
        <ele>1830.49</ele>
        <time>2024-08-11T11:21:22Z</time>
      </trkpt>
      <trkpt lat="45.0243" lon="6.65421">
        <ele>1828.56</ele>
        <time>2024-08-11T11:21:25Z</time>
      </trkpt>
      <trkpt lat="45.0243" lon="6.65432">
        <ele>1826.16</ele>
        <time>2024-08-11T11:21:28Z</time>
      </trkpt>
      <trkpt lat="45.02431" lon="6.65442">
        <ele>1825.2</ele>
        <time>2024-08-11T11:21:32Z</time>
      </trkpt>
      <trkpt lat="45.0243" lon="6.65471">
        <ele>1821.84</ele>
        <time>2024-08-11T11:21:37Z</time>
      </trkpt>
      <trkpt lat="45.02418" lon="6.65474">
        <ele>1817.51</ele>
        <time>2024-08-11T11:21:41Z</time>
      </trkpt>
      <trkpt lat="45.02417" lon="6.65477">
        <ele>1817.51</ele>
        <time>2024-08-11T11:21:42Z</time>
      </trkpt>
      <trkpt lat="45.02414" lon="6.65488">
        <ele>1815.59</ele>
        <time>2024-08-11T11:21:44Z</time>
      </trkpt>
      <trkpt lat="45.02408" lon="6.65489">
        <ele>1813.18</ele>
        <time>2024-08-11T11:21:47Z</time>
      </trkpt>
      <trkpt lat="45.02406" lon="6.65484">
        <ele>1812.7</ele>
        <time>2024-08-11T11:21:48Z</time>
      </trkpt>
      <trkpt lat="45.02402" lon="6.6547">
        <ele>1810.3</ele>
        <time>2024-08-11T11:21:51Z</time>
      </trkpt>
      <trkpt lat="45.02385" lon="6.65483">
        <ele>1805.49</ele>
        <time>2024-08-11T11:21:57Z</time>
      </trkpt>
      <trkpt lat="45.02376" lon="6.65469">
        <ele>1801.17</ele>
        <time>2024-08-11T11:22:02Z</time>
      </trkpt>
      <trkpt lat="45.02364" lon="6.65458">
        <ele>1797.32</ele>
        <time>2024-08-11T11:22:05Z</time>
      </trkpt>
      <trkpt lat="45.02353" lon="6.65456">
        <ele>1793.96</ele>
        <time>2024-08-11T11:22:09Z</time>
      </trkpt>
      <trkpt lat="45.02335" lon="6.65471">
        <ele>1788.67</ele>
        <time>2024-08-11T11:22:13Z</time>
      </trkpt>
      <trkpt lat="45.02316" lon="6.65477">
        <ele>1783.86</ele>
        <time>2024-08-11T11:22:16Z</time>
      </trkpt>
      <trkpt lat="45.02298" lon="6.65476">
        <ele>1780.5</ele>
        <time>2024-08-11T11:22:19Z</time>
      </trkpt>
      <trkpt lat="45.02293" lon="6.65465">
        <ele>1778.1</ele>
        <time>2024-08-11T11:22:22Z</time>
      </trkpt>
      <trkpt lat="45.02283" lon="6.65432">
        <ele>1772.81</ele>
        <time>2024-08-11T11:22:27Z</time>
      </trkpt>
      <trkpt lat="45.02281" lon="6.65425">
        <ele>1771.85</ele>
        <time>2024-08-11T11:22:28Z</time>
      </trkpt>
      <trkpt lat="45.02266" lon="6.65405">
        <ele>1766.56</ele>
        <time>2024-08-11T11:22:32Z</time>
      </trkpt>
      <trkpt lat="45.02261" lon="6.65396">
        <ele>1765.12</ele>
        <time>2024-08-11T11:22:34Z</time>
      </trkpt>
      <trkpt lat="45.02251" lon="6.65366">
        <ele>1760.79</ele>
        <time>2024-08-11T11:22:38Z</time>
      </trkpt>
      <trkpt lat="45.0223" lon="6.6535">
        <ele>1755.5</ele>
        <time>2024-08-11T11:22:42Z</time>
      </trkpt>
      <trkpt lat="45.02217" lon="6.6534">
        <ele>1751.66</ele>
        <time>2024-08-11T11:22:44Z</time>
      </trkpt>
      <trkpt lat="45.02194" lon="6.65333">
        <ele>1748.29</ele>
        <time>2024-08-11T11:22:47Z</time>
      </trkpt>
      <trkpt lat="45.02186" lon="6.65333">
        <ele>1746.37</ele>
        <time>2024-08-11T11:22:48Z</time>
      </trkpt>
      <trkpt lat="45.02172" lon="6.65332">
        <ele>1743.97</ele>
        <time>2024-08-11T11:22:50Z</time>
      </trkpt>
      <trkpt lat="45.02157" lon="6.65333">
        <ele>1740.12</ele>
        <time>2024-08-11T11:22:52Z</time>
      </trkpt>
      <trkpt lat="45.02143" lon="6.65335">
        <ele>1736.28</ele>
        <time>2024-08-11T11:22:54Z</time>
      </trkpt>
      <trkpt lat="45.02129" lon="6.65344">
        <ele>1733.39</ele>
        <time>2024-08-11T11:22:57Z</time>
      </trkpt>
      <trkpt lat="45.0212" lon="6.65353">
        <ele>1731.95</ele>
        <time>2024-08-11T11:23:00Z</time>
      </trkpt>
      <trkpt lat="45.02116" lon="6.65363">
        <ele>1730.51</ele>
        <time>2024-08-11T11:23:08Z</time>
      </trkpt>
      <trkpt lat="45.02116" lon="6.65365">
        <ele>1730.51</ele>
        <time>2024-08-11T11:23:25Z</time>
      </trkpt>
      <trkpt lat="45.02115" lon="6.65367">
        <ele>1730.51</ele>
        <time>2024-08-11T11:23:42Z</time>
      </trkpt>
      <trkpt lat="45.02112" lon="6.65367">
        <ele>1729.55</ele>
        <time>2024-08-11T11:23:58Z</time>
      </trkpt>
      <trkpt lat="45.02111" lon="6.65369">
        <ele>1729.55</ele>
        <time>2024-08-11T11:24:12Z</time>
      </trkpt>
      <trkpt lat="45.0211" lon="6.65402">
        <ele>1730.99</ele>
        <time>2024-08-11T11:24:22Z</time>
      </trkpt>
      <trkpt lat="45.02111" lon="6.65424">
        <ele>1729.55</ele>
        <time>2024-08-11T11:24:26Z</time>
      </trkpt>
      <trkpt lat="45.02114" lon="6.65443">
        <ele>1727.63</ele>
        <time>2024-08-11T11:24:29Z</time>
      </trkpt>
      <trkpt lat="45.02115" lon="6.65457">
        <ele>1726.67</ele>
        <time>2024-08-11T11:24:31Z</time>
      </trkpt>
      <trkpt lat="45.02106" lon="6.65492">
        <ele>1726.67</ele>
        <time>2024-08-11T11:24:37Z</time>
      </trkpt>
      <trkpt lat="45.02096" lon="6.65501">
        <ele>1726.67</ele>
        <time>2024-08-11T11:24:41Z</time>
      </trkpt>
      <trkpt lat="45.02066" lon="6.65488">
        <ele>1723.3</ele>
        <time>2024-08-11T11:24:48Z</time>
      </trkpt>
      <trkpt lat="45.02062" lon="6.65486">
        <ele>1721.38</ele>
        <time>2024-08-11T11:24:49Z</time>
      </trkpt>
      <trkpt lat="45.02048" lon="6.65466">
        <ele>1717.53</ele>
        <time>2024-08-11T11:24:53Z</time>
      </trkpt>
      <trkpt lat="45.02043" lon="6.6546">
        <ele>1716.09</ele>
        <time>2024-08-11T11:24:54Z</time>
      </trkpt>
      <trkpt lat="45.02033" lon="6.65446">
        <ele>1712.73</ele>
        <time>2024-08-11T11:24:57Z</time>
      </trkpt>
      <trkpt lat="45.02024" lon="6.65432">
        <ele>1709.36</ele>
        <time>2024-08-11T11:25:00Z</time>
      </trkpt>
      <trkpt lat="45.02015" lon="6.65403">
        <ele>1702.63</ele>
        <time>2024-08-11T11:25:05Z</time>
      </trkpt>
      <trkpt lat="45.02014" lon="6.65378">
        <ele>1699.27</ele>
        <time>2024-08-11T11:25:09Z</time>
      </trkpt>
      <trkpt lat="45.02013" lon="6.65372">
        <ele>1698.79</ele>
        <time>2024-08-11T11:25:10Z</time>
      </trkpt>
      <trkpt lat="45.02002" lon="6.65349">
        <ele>1693.98</ele>
        <time>2024-08-11T11:25:15Z</time>
      </trkpt>
      <trkpt lat="45.02001" lon="6.65343">
        <ele>1692.54</ele>
        <time>2024-08-11T11:25:16Z</time>
      </trkpt>
      <trkpt lat="45.01995" lon="6.6531">
        <ele>1687.73</ele>
        <time>2024-08-11T11:25:20Z</time>
      </trkpt>
      <trkpt lat="45.01982" lon="6.65288">
        <ele>1683.89</ele>
        <time>2024-08-11T11:25:23Z</time>
      </trkpt>
      <trkpt lat="45.01967" lon="6.65288">
        <ele>1678.6</ele>
        <time>2024-08-11T11:25:27Z</time>
      </trkpt>
      <trkpt lat="45.01956" lon="6.65306">
        <ele>1675.72</ele>
        <time>2024-08-11T11:25:30Z</time>
      </trkpt>
      <trkpt lat="45.01926" lon="6.65345">
        <ele>1668.99</ele>
        <time>2024-08-11T11:25:36Z</time>
      </trkpt>
      <trkpt lat="45.01922" lon="6.6535">
        <ele>1668.02</ele>
        <time>2024-08-11T11:25:37Z</time>
      </trkpt>
      <trkpt lat="45.01907" lon="6.65371">
        <ele>1662.26</ele>
        <time>2024-08-11T11:25:41Z</time>
      </trkpt>
      <trkpt lat="45.01898" lon="6.65372">
        <ele>1659.37</ele>
        <time>2024-08-11T11:25:44Z</time>
      </trkpt>
      <trkpt lat="45.01896" lon="6.65367">
        <ele>1658.89</ele>
        <time>2024-08-11T11:25:45Z</time>
      </trkpt>
      <trkpt lat="45.01892" lon="6.65352">
        <ele>1656.01</ele>
        <time>2024-08-11T11:25:48Z</time>
      </trkpt>
      <trkpt lat="45.01882" lon="6.6535">
        <ele>1651.2</ele>
        <time>2024-08-11T11:25:52Z</time>
      </trkpt>
      <trkpt lat="45.01879" lon="6.65355">
        <ele>1651.68</ele>
        <time>2024-08-11T11:25:53Z</time>
      </trkpt>
      <trkpt lat="45.01873" lon="6.65367">
        <ele>1649.28</ele>
        <time>2024-08-11T11:25:55Z</time>
      </trkpt>
      <trkpt lat="45.01867" lon="6.65354">
        <ele>1644.95</ele>
        <time>2024-08-11T11:25:59Z</time>
      </trkpt>
      <trkpt lat="45.01853" lon="6.65362">
        <ele>1640.15</ele>
        <time>2024-08-11T11:26:04Z</time>
      </trkpt>
      <trkpt lat="45.01848" lon="6.65388">
        <ele>1634.38</ele>
        <time>2024-08-11T11:26:09Z</time>
      </trkpt>
      <trkpt lat="45.01846" lon="6.65401">
        <ele>1631.49</ele>
        <time>2024-08-11T11:26:13Z</time>
      </trkpt>
      <trkpt lat="45.01836" lon="6.65391">
        <ele>1629.09</ele>
        <time>2024-08-11T11:26:16Z</time>
      </trkpt>
      <trkpt lat="45.01824" lon="6.65373">
        <ele>1623.8</ele>
        <time>2024-08-11T11:26:20Z</time>
      </trkpt>
      <trkpt lat="45.01816" lon="6.65351">
        <ele>1619</ele>
        <time>2024-08-11T11:26:24Z</time>
      </trkpt>
      <trkpt lat="45.01808" lon="6.65337">
        <ele>1615.63</ele>
        <time>2024-08-11T11:26:29Z</time>
      </trkpt>
      <trkpt lat="45.01804" lon="6.65344">
        <ele>1614.19</ele>
        <time>2024-08-11T11:26:31Z</time>
      </trkpt>
      <trkpt lat="45.01797" lon="6.65356">
        <ele>1609.86</ele>
        <time>2024-08-11T11:26:35Z</time>
      </trkpt>
      <trkpt lat="45.01795" lon="6.65358">
        <ele>1608.9</ele>
        <time>2024-08-11T11:26:36Z</time>
      </trkpt>
      <trkpt lat="45.01793" lon="6.65363">
        <ele>1607.94</ele>
        <time>2024-08-11T11:26:38Z</time>
      </trkpt>
      <trkpt lat="45.01787" lon="6.65383">
        <ele>1604.1</ele>
        <time>2024-08-11T11:26:42Z</time>
      </trkpt>
      <trkpt lat="45.01788" lon="6.65392">
        <ele>1602.66</ele>
        <time>2024-08-11T11:26:44Z</time>
      </trkpt>
      <trkpt lat="45.01777" lon="6.65404">
        <ele>1600.25</ele>
        <time>2024-08-11T11:26:50Z</time>
      </trkpt>
      <trkpt lat="45.01771" lon="6.65403">
        <ele>1599.29</ele>
        <time>2024-08-11T11:26:52Z</time>
      </trkpt>
      <trkpt lat="45.01757" lon="6.65399">
        <ele>1598.33</ele>
        <time>2024-08-11T11:27:02Z</time>
      </trkpt>
      <trkpt lat="45.01742" lon="6.65388">
        <ele>1593.52</ele>
        <time>2024-08-11T11:27:08Z</time>
      </trkpt>
      <trkpt lat="45.01735" lon="6.65378">
        <ele>1588.72</ele>
        <time>2024-08-11T11:27:11Z</time>
      </trkpt>
      <trkpt lat="45.01736" lon="6.6538">
        <ele>1588.72</ele>
        <time>2024-08-11T11:27:12Z</time>
      </trkpt>
      <trkpt lat="45.01733" lon="6.6538">
        <ele>1588.72</ele>
        <time>2024-08-11T11:27:20Z</time>
      </trkpt>
      <trkpt lat="45.01728" lon="6.65376">
        <ele>1586.79</ele>
        <time>2024-08-11T11:27:30Z</time>
      </trkpt>
      <trkpt lat="45.01726" lon="6.65376">
        <ele>1586.31</ele>
        <time>2024-08-11T11:27:42Z</time>
      </trkpt>
      <trkpt lat="45.01714" lon="6.6536">
        <ele>1584.39</ele>
        <time>2024-08-11T11:27:47Z</time>
      </trkpt>
      <trkpt lat="45.01698" lon="6.65347">
        <ele>1581.99</ele>
        <time>2024-08-11T11:27:51Z</time>
      </trkpt>
      <trkpt lat="45.01687" lon="6.65338">
        <ele>1577.18</ele>
        <time>2024-08-11T11:27:54Z</time>
      </trkpt>
      <trkpt lat="45.0168" lon="6.65342">
        <ele>1575.74</ele>
        <time>2024-08-11T11:27:56Z</time>
      </trkpt>
      <trkpt lat="45.01659" lon="6.65357">
        <ele>1572.37</ele>
        <time>2024-08-11T11:28:00Z</time>
      </trkpt>
      <trkpt lat="45.01649" lon="6.65368">
        <ele>1569.49</ele>
        <time>2024-08-11T11:28:02Z</time>
      </trkpt>
      <trkpt lat="45.0163" lon="6.65376">
        <ele>1567.57</ele>
        <time>2024-08-11T11:28:05Z</time>
      </trkpt>
      <trkpt lat="45.01593" lon="6.65394">
        <ele>1563.24</ele>
        <time>2024-08-11T11:28:11Z</time>
      </trkpt>
      <trkpt lat="45.01572" lon="6.65402">
        <ele>1560.84</ele>
        <time>2024-08-11T11:28:17Z</time>
      </trkpt>
      <trkpt lat="45.01572" lon="6.65403">
        <ele>1561.32</ele>
        <time>2024-08-11T11:28:35Z</time>
      </trkpt>
      <trkpt lat="45.01572" lon="6.65405">
        <ele>1560.84</ele>
        <time>2024-08-11T11:28:58Z</time>
      </trkpt>
      <trkpt lat="45.01569" lon="6.65402">
        <ele>1559.88</ele>
        <time>2024-08-11T11:29:19Z</time>
      </trkpt>
      <trkpt lat="45.01579" lon="6.65375">
        <ele>1561.32</ele>
        <time>2024-08-11T11:29:32Z</time>
      </trkpt>
      <trkpt lat="45.01604" lon="6.65317">
        <ele>1562.28</ele>
        <time>2024-08-11T11:29:50Z</time>
      </trkpt>
      <trkpt lat="45.01629" lon="6.65261">
        <ele>1563.72</ele>
        <time>2024-08-11T11:30:07Z</time>
      </trkpt>
      <trkpt lat="45.01669" lon="6.65226">
        <ele>1565.64</ele>
        <time>2024-08-11T11:30:22Z</time>
      </trkpt>
      <trkpt lat="45.01713" lon="6.65185">
        <ele>1568.05</ele>
        <time>2024-08-11T11:30:38Z</time>
      </trkpt>
      <trkpt lat="45.01751" lon="6.6511">
        <ele>1569.97</ele>
        <time>2024-08-11T11:30:56Z</time>
      </trkpt>
      <trkpt lat="45.01782" lon="6.65039">
        <ele>1571.41</ele>
        <time>2024-08-11T11:31:13Z</time>
      </trkpt>
      <trkpt lat="45.01791" lon="6.64957">
        <ele>1573.33</ele>
        <time>2024-08-11T11:31:30Z</time>
      </trkpt>
      <trkpt lat="45.01799" lon="6.64865">
        <ele>1576.7</ele>
        <time>2024-08-11T11:31:49Z</time>
      </trkpt>
      <trkpt lat="45.01812" lon="6.64794">
        <ele>1577.66</ele>
        <time>2024-08-11T11:32:04Z</time>
      </trkpt>
      <trkpt lat="45.01812" lon="6.64729">
        <ele>1579.58</ele>
        <time>2024-08-11T11:32:18Z</time>
      </trkpt>
      <trkpt lat="45.01798" lon="6.64663">
        <ele>1581.03</ele>
        <time>2024-08-11T11:32:32Z</time>
      </trkpt>
      <trkpt lat="45.01793" lon="6.64587">
        <ele>1583.91</ele>
        <time>2024-08-11T11:32:48Z</time>
      </trkpt>
      <trkpt lat="45.01788" lon="6.64512">
        <ele>1585.83</ele>
        <time>2024-08-11T11:33:04Z</time>
      </trkpt>
      <trkpt lat="45.01763" lon="6.64433">
        <ele>1588.24</ele>
        <time>2024-08-11T11:33:22Z</time>
      </trkpt>
      <trkpt lat="45.01741" lon="6.64345">
        <ele>1590.64</ele>
        <time>2024-08-11T11:33:41Z</time>
      </trkpt>
      <trkpt lat="45.0174" lon="6.64268">
        <ele>1592.56</ele>
        <time>2024-08-11T11:33:57Z</time>
      </trkpt>
      <trkpt lat="45.0173" lon="6.64193">
        <ele>1594.48</ele>
        <time>2024-08-11T11:34:13Z</time>
      </trkpt>
      <trkpt lat="45.01741" lon="6.64132">
        <ele>1596.41</ele>
        <time>2024-08-11T11:34:26Z</time>
      </trkpt>
      <trkpt lat="45.01727" lon="6.64066">
        <ele>1599.29</ele>
        <time>2024-08-11T11:34:40Z</time>
      </trkpt>
      <trkpt lat="45.01685" lon="6.6399">
        <ele>1600.73</ele>
        <time>2024-08-11T11:34:59Z</time>
      </trkpt>
      <trkpt lat="45.01652" lon="6.63899">
        <ele>1603.62</ele>
        <time>2024-08-11T11:35:20Z</time>
      </trkpt>
      <trkpt lat="45.01653" lon="6.63813">
        <ele>1606.02</ele>
        <time>2024-08-11T11:35:37Z</time>
      </trkpt>
      <trkpt lat="45.01663" lon="6.63728">
        <ele>1609.38</ele>
        <time>2024-08-11T11:35:54Z</time>
      </trkpt>
      <trkpt lat="45.01679" lon="6.63645">
        <ele>1610.83</ele>
        <time>2024-08-11T11:36:11Z</time>
      </trkpt>
      <trkpt lat="45.01689" lon="6.63537">
        <ele>1613.23</ele>
        <time>2024-08-11T11:36:31Z</time>
      </trkpt>
      <trkpt lat="45.01692" lon="6.63512">
        <ele>1613.71</ele>
        <time>2024-08-11T11:36:36Z</time>
      </trkpt>
      <trkpt lat="45.01706" lon="6.63495">
        <ele>1614.19</ele>
        <time>2024-08-11T11:36:42Z</time>
      </trkpt>
      <trkpt lat="45.01717" lon="6.6348">
        <ele>1614.67</ele>
        <time>2024-08-11T11:36:48Z</time>
      </trkpt>
      <trkpt lat="45.01724" lon="6.63474">
        <ele>1614.67</ele>
        <time>2024-08-11T11:36:52Z</time>
      </trkpt>
      <trkpt lat="45.01736" lon="6.63469">
        <ele>1615.15</ele>
        <time>2024-08-11T11:36:57Z</time>
      </trkpt>
      <trkpt lat="45.01739" lon="6.63429">
        <ele>1615.63</ele>
        <time>2024-08-11T11:37:10Z</time>
      </trkpt>
      <trkpt lat="45.01745" lon="6.63372">
        <ele>1616.11</ele>
        <time>2024-08-11T11:37:25Z</time>
      </trkpt>
      <trkpt lat="45.01757" lon="6.63329">
        <ele>1616.59</ele>
        <time>2024-08-11T11:37:36Z</time>
      </trkpt>
      <trkpt lat="45.01762" lon="6.63302">
        <ele>1616.11</ele>
        <time>2024-08-11T11:37:45Z</time>
      </trkpt>
      <trkpt lat="45.01776" lon="6.63298">
        <ele>1618.04</ele>
        <time>2024-08-11T11:37:52Z</time>
      </trkpt>
      <trkpt lat="45.01778" lon="6.63298">
        <ele>1618.52</ele>
        <time>2024-08-11T11:37:53Z</time>
      </trkpt>
      <trkpt lat="45.01785" lon="6.63293">
        <ele>1618.52</ele>
        <time>2024-08-11T11:37:58Z</time>
      </trkpt>
      <trkpt lat="45.01811" lon="6.6329">
        <ele>1619.96</ele>
        <time>2024-08-11T11:38:12Z</time>
      </trkpt>
      <trkpt lat="45.01837" lon="6.63298">
        <ele>1623.32</ele>
        <time>2024-08-11T11:38:24Z</time>
      </trkpt>
      <trkpt lat="45.01866" lon="6.63319">
        <ele>1625.73</ele>
        <time>2024-08-11T11:38:39Z</time>
      </trkpt>
      <trkpt lat="45.01891" lon="6.63354">
        <ele>1628.13</ele>
        <time>2024-08-11T11:38:55Z</time>
      </trkpt>
      <trkpt lat="45.01904" lon="6.63342">
        <ele>1629.09</ele>
        <time>2024-08-11T11:39:03Z</time>
      </trkpt>
      <trkpt lat="45.01911" lon="6.63277">
        <ele>1630.53</ele>
        <time>2024-08-11T11:39:19Z</time>
      </trkpt>
      <trkpt lat="45.01918" lon="6.63221">
        <ele>1630.53</ele>
        <time>2024-08-11T11:39:33Z</time>
      </trkpt>
      <trkpt lat="45.01937" lon="6.63141">
        <ele>1631.01</ele>
        <time>2024-08-11T11:39:52Z</time>
      </trkpt>
      <trkpt lat="45.01961" lon="6.63117">
        <ele>1632.46</ele>
        <time>2024-08-11T11:40:03Z</time>
      </trkpt>
      <trkpt lat="45.01978" lon="6.6312">
        <ele>1635.34</ele>
        <time>2024-08-11T11:40:09Z</time>
      </trkpt>
      <trkpt lat="45.01998" lon="6.63124">
        <ele>1635.82</ele>
        <time>2024-08-11T11:40:16Z</time>
      </trkpt>
      <trkpt lat="45.02002" lon="6.63122">
        <ele>1637.26</ele>
        <time>2024-08-11T11:40:18Z</time>
      </trkpt>
      <trkpt lat="45.02004" lon="6.63117">
        <ele>1637.26</ele>
        <time>2024-08-11T11:40:20Z</time>
      </trkpt>
      <trkpt lat="45.0201" lon="6.6311">
        <ele>1637.74</ele>
        <time>2024-08-11T11:40:24Z</time>
      </trkpt>
      <trkpt lat="45.02028" lon="6.63089">
        <ele>1637.26</ele>
        <time>2024-08-11T11:40:34Z</time>
      </trkpt>
      <trkpt lat="45.0203" lon="6.63077">
        <ele>1637.26</ele>
        <time>2024-08-11T11:40:39Z</time>
      </trkpt>
      <trkpt lat="45.02037" lon="6.63036">
        <ele>1635.82</ele>
        <time>2024-08-11T11:40:50Z</time>
      </trkpt>
      <trkpt lat="45.02035" lon="6.6302">
        <ele>1635.82</ele>
        <time>2024-08-11T11:40:55Z</time>
      </trkpt>
      <trkpt lat="45.02039" lon="6.63015">
        <ele>1635.82</ele>
        <time>2024-08-11T11:40:57Z</time>
      </trkpt>
      <trkpt lat="45.02041" lon="6.63014">
        <ele>1635.82</ele>
        <time>2024-08-11T11:40:59Z</time>
      </trkpt>
      <trkpt lat="45.02047" lon="6.63017">
        <ele>1635.34</ele>
        <time>2024-08-11T11:41:11Z</time>
      </trkpt>
      <trkpt lat="45.02046" lon="6.63017">
        <ele>1635.34</ele>
        <time>2024-08-11T11:41:25Z</time>
      </trkpt>
      <trkpt lat="45.02049" lon="6.63015">
        <ele>1635.34</ele>
        <time>2024-08-11T11:41:46Z</time>
      </trkpt>
    </trkseg>
  </trk>
</gpx>